<?xml version="1.0" encoding="UTF-8" standalone="no" ?>
<gpx xmlns="http://www.topografix.com/GPX/1/1" xmlns:xsi="http://www.w3.org/2001/XMLSchema-instance" xsi:schemaLocation="http://www.topografix.com/GPX/1/1 http://www.topografix.com/GPX/1/1/gpx.xsd" version="1.1" creator="VisuGPX - https://www.visugpx.com">
  <metadata>
    <name>VTT - Mt Aucellier / St Sauveur</name>
    <desc><![CDATA[Mt Aucellier - Rando ASCVTT du 17 mars 2012
Relevé terrain:   1 100 m / - 1 950 m / 28 Km
CR ASCVTT ici <>]]></desc>
  </metadata>
  <trk>
    <name><![CDATA[2012-03-17T08:49:32Z]]></name>
    <trkseg>
      <trkpt lat="44.10181" lon="7.08767">
        <ele>1355.677</ele>
        <time>2012-03-17T08:49:37Z</time>
      </trkpt>
      <trkpt lat="44.10181" lon="7.08766">
        <ele>1355.644</ele>
        <time>2012-03-17T08:49:39Z</time>
      </trkpt>
      <trkpt lat="44.10187" lon="7.08756">
        <ele>1357.638</ele>
        <time>2012-03-17T08:49:45Z</time>
      </trkpt>
      <trkpt lat="44.10195" lon="7.08737">
        <ele>1362.503</ele>
        <time>2012-03-17T08:49:52Z</time>
      </trkpt>
      <trkpt lat="44.10205" lon="7.08715">
        <ele>1365.781</ele>
        <time>2012-03-17T08:49:59Z</time>
      </trkpt>
      <trkpt lat="44.10214" lon="7.08691">
        <ele>1365.957</ele>
        <time>2012-03-17T08:50:06Z</time>
      </trkpt>
      <trkpt lat="44.10222" lon="7.08671">
        <ele>1364.426</ele>
        <time>2012-03-17T08:50:13Z</time>
      </trkpt>
      <trkpt lat="44.10229" lon="7.08662">
        <ele>1371.171</ele>
        <time>2012-03-17T08:50:21Z</time>
      </trkpt>
      <trkpt lat="44.10234" lon="7.08653">
        <ele>1376.993</ele>
        <time>2012-03-17T08:50:28Z</time>
      </trkpt>
      <trkpt lat="44.10239" lon="7.08642">
        <ele>1379.994</ele>
        <time>2012-03-17T08:50:35Z</time>
      </trkpt>
      <trkpt lat="44.10245" lon="7.08634">
        <ele>1382.213</ele>
        <time>2012-03-17T08:50:41Z</time>
      </trkpt>
      <trkpt lat="44.1025" lon="7.08621">
        <ele>1381.155</ele>
        <time>2012-03-17T08:50:47Z</time>
      </trkpt>
      <trkpt lat="44.10255" lon="7.08607">
        <ele>1381.497</ele>
        <time>2012-03-17T08:50:54Z</time>
      </trkpt>
      <trkpt lat="44.10264" lon="7.08602">
        <ele>1382.85</ele>
        <time>2012-03-17T08:51:00Z</time>
      </trkpt>
      <trkpt lat="44.10277" lon="7.08601">
        <ele>1385.149</ele>
        <time>2012-03-17T08:51:08Z</time>
      </trkpt>
      <trkpt lat="44.10286" lon="7.08599">
        <ele>1386.198</ele>
        <time>2012-03-17T08:51:14Z</time>
      </trkpt>
      <trkpt lat="44.10301" lon="7.08594">
        <ele>1387.41</ele>
        <time>2012-03-17T08:51:22Z</time>
      </trkpt>
      <trkpt lat="44.10308" lon="7.0859">
        <ele>1387.046</ele>
        <time>2012-03-17T08:51:27Z</time>
      </trkpt>
      <trkpt lat="44.1032" lon="7.08584">
        <ele>1388.028</ele>
        <time>2012-03-17T08:51:34Z</time>
      </trkpt>
      <trkpt lat="44.10331" lon="7.08575">
        <ele>1387.757</ele>
        <time>2012-03-17T08:51:40Z</time>
      </trkpt>
      <trkpt lat="44.10339" lon="7.08568">
        <ele>1389.83</ele>
        <time>2012-03-17T08:51:46Z</time>
      </trkpt>
      <trkpt lat="44.10349" lon="7.0856">
        <ele>1391.621</ele>
        <time>2012-03-17T08:51:52Z</time>
      </trkpt>
      <trkpt lat="44.10357" lon="7.08551">
        <ele>1391.47</ele>
        <time>2012-03-17T08:51:58Z</time>
      </trkpt>
      <trkpt lat="44.10367" lon="7.08543">
        <ele>1393.432</ele>
        <time>2012-03-17T08:52:05Z</time>
      </trkpt>
      <trkpt lat="44.10375" lon="7.08531">
        <ele>1389.702</ele>
        <time>2012-03-17T08:52:12Z</time>
      </trkpt>
      <trkpt lat="44.10385" lon="7.08518">
        <ele>1389.999</ele>
        <time>2012-03-17T08:52:20Z</time>
      </trkpt>
      <trkpt lat="44.10393" lon="7.0851">
        <ele>1390.849</ele>
        <time>2012-03-17T08:52:26Z</time>
      </trkpt>
      <trkpt lat="44.10403" lon="7.085">
        <ele>1396.013</ele>
        <time>2012-03-17T08:52:34Z</time>
      </trkpt>
      <trkpt lat="44.1041" lon="7.08492">
        <ele>1399.412</ele>
        <time>2012-03-17T08:52:40Z</time>
      </trkpt>
      <trkpt lat="44.10419" lon="7.08479">
        <ele>1404.124</ele>
        <time>2012-03-17T08:52:50Z</time>
      </trkpt>
      <trkpt lat="44.10425" lon="7.08469">
        <ele>1405.391</ele>
        <time>2012-03-17T08:52:56Z</time>
      </trkpt>
      <trkpt lat="44.10433" lon="7.08457">
        <ele>1407.207</ele>
        <time>2012-03-17T08:53:03Z</time>
      </trkpt>
      <trkpt lat="44.10445" lon="7.08439">
        <ele>1407.807</ele>
        <time>2012-03-17T08:53:12Z</time>
      </trkpt>
      <trkpt lat="44.10453" lon="7.08424">
        <ele>1406.724</ele>
        <time>2012-03-17T08:53:20Z</time>
      </trkpt>
      <trkpt lat="44.10457" lon="7.08414">
        <ele>1408.07</ele>
        <time>2012-03-17T08:53:26Z</time>
      </trkpt>
      <trkpt lat="44.10462" lon="7.08402">
        <ele>1408.994</ele>
        <time>2012-03-17T08:53:33Z</time>
      </trkpt>
      <trkpt lat="44.10468" lon="7.0839">
        <ele>1411.245</ele>
        <time>2012-03-17T08:53:40Z</time>
      </trkpt>
      <trkpt lat="44.10474" lon="7.08374">
        <ele>1413.105</ele>
        <time>2012-03-17T08:53:47Z</time>
      </trkpt>
      <trkpt lat="44.10483" lon="7.08357">
        <ele>1413.824</ele>
        <time>2012-03-17T08:53:55Z</time>
      </trkpt>
      <trkpt lat="44.10492" lon="7.08342">
        <ele>1409.132</ele>
        <time>2012-03-17T08:54:02Z</time>
      </trkpt>
      <trkpt lat="44.10499" lon="7.08335">
        <ele>1414.019</ele>
        <time>2012-03-17T08:54:08Z</time>
      </trkpt>
      <trkpt lat="44.10506" lon="7.08326">
        <ele>1417.72</ele>
        <time>2012-03-17T08:54:15Z</time>
      </trkpt>
      <trkpt lat="44.10516" lon="7.08315">
        <ele>1422.348</ele>
        <time>2012-03-17T08:54:23Z</time>
      </trkpt>
      <trkpt lat="44.10522" lon="7.08305">
        <ele>1422.115</ele>
        <time>2012-03-17T08:54:29Z</time>
      </trkpt>
      <trkpt lat="44.10529" lon="7.08293">
        <ele>1420.574</ele>
        <time>2012-03-17T08:54:35Z</time>
      </trkpt>
      <trkpt lat="44.10539" lon="7.08274">
        <ele>1417.294</ele>
        <time>2012-03-17T08:54:44Z</time>
      </trkpt>
      <trkpt lat="44.10546" lon="7.08261">
        <ele>1419.896</ele>
        <time>2012-03-17T08:54:52Z</time>
      </trkpt>
      <trkpt lat="44.10549" lon="7.08255">
        <ele>1419.785</ele>
        <time>2012-03-17T08:54:56Z</time>
      </trkpt>
      <trkpt lat="44.10553" lon="7.08249">
        <ele>1420.565</ele>
        <time>2012-03-17T08:55:00Z</time>
      </trkpt>
      <trkpt lat="44.10559" lon="7.08236">
        <ele>1423.994</ele>
        <time>2012-03-17T08:55:09Z</time>
      </trkpt>
      <trkpt lat="44.10565" lon="7.08223">
        <ele>1426.244</ele>
        <time>2012-03-17T08:55:16Z</time>
      </trkpt>
      <trkpt lat="44.10569" lon="7.08208">
        <ele>1426.973</ele>
        <time>2012-03-17T08:55:24Z</time>
      </trkpt>
      <trkpt lat="44.10572" lon="7.08196">
        <ele>1429.134</ele>
        <time>2012-03-17T08:55:30Z</time>
      </trkpt>
      <trkpt lat="44.10579" lon="7.08179">
        <ele>1431.124</ele>
        <time>2012-03-17T08:55:38Z</time>
      </trkpt>
      <trkpt lat="44.10586" lon="7.08163">
        <ele>1433.163</ele>
        <time>2012-03-17T08:55:46Z</time>
      </trkpt>
      <trkpt lat="44.1059" lon="7.08156">
        <ele>1437.929</ele>
        <time>2012-03-17T08:55:51Z</time>
      </trkpt>
      <trkpt lat="44.10597" lon="7.08141">
        <ele>1439.875</ele>
        <time>2012-03-17T08:55:57Z</time>
      </trkpt>
      <trkpt lat="44.10604" lon="7.08125">
        <ele>1439.393</ele>
        <time>2012-03-17T08:56:04Z</time>
      </trkpt>
      <trkpt lat="44.10607" lon="7.08115">
        <ele>1440.236</ele>
        <time>2012-03-17T08:56:10Z</time>
      </trkpt>
      <trkpt lat="44.10614" lon="7.08101">
        <ele>1439.742</ele>
        <time>2012-03-17T08:56:17Z</time>
      </trkpt>
      <trkpt lat="44.10625" lon="7.08084">
        <ele>1440.962</ele>
        <time>2012-03-17T08:56:24Z</time>
      </trkpt>
      <trkpt lat="44.10633" lon="7.0807">
        <ele>1441.784</ele>
        <time>2012-03-17T08:56:30Z</time>
      </trkpt>
      <trkpt lat="44.10638" lon="7.08055">
        <ele>1442.713</ele>
        <time>2012-03-17T08:56:37Z</time>
      </trkpt>
      <trkpt lat="44.10644" lon="7.08039">
        <ele>1444.685</ele>
        <time>2012-03-17T08:56:43Z</time>
      </trkpt>
      <trkpt lat="44.1065" lon="7.08023">
        <ele>1442.402</ele>
        <time>2012-03-17T08:56:49Z</time>
      </trkpt>
      <trkpt lat="44.1066" lon="7.08">
        <ele>1445.406</ele>
        <time>2012-03-17T08:56:57Z</time>
      </trkpt>
      <trkpt lat="44.10665" lon="7.07984">
        <ele>1445.407</ele>
        <time>2012-03-17T08:57:03Z</time>
      </trkpt>
      <trkpt lat="44.10673" lon="7.07963">
        <ele>1442.623</ele>
        <time>2012-03-17T08:57:10Z</time>
      </trkpt>
      <trkpt lat="44.10685" lon="7.07938">
        <ele>1440.471</ele>
        <time>2012-03-17T08:57:18Z</time>
      </trkpt>
      <trkpt lat="44.10692" lon="7.07921">
        <ele>1440.852</ele>
        <time>2012-03-17T08:57:23Z</time>
      </trkpt>
      <trkpt lat="44.10702" lon="7.079">
        <ele>1440.851</ele>
        <time>2012-03-17T08:57:30Z</time>
      </trkpt>
      <trkpt lat="44.1071" lon="7.07879">
        <ele>1434.396</ele>
        <time>2012-03-17T08:57:36Z</time>
      </trkpt>
      <trkpt lat="44.10725" lon="7.07845">
        <ele>1429.467</ele>
        <time>2012-03-17T08:57:45Z</time>
      </trkpt>
      <trkpt lat="44.10735" lon="7.07811">
        <ele>1426.896</ele>
        <time>2012-03-17T08:57:53Z</time>
      </trkpt>
      <trkpt lat="44.10737" lon="7.07783">
        <ele>1426.648</ele>
        <time>2012-03-17T08:58:00Z</time>
      </trkpt>
      <trkpt lat="44.10739" lon="7.07751">
        <ele>1424.587</ele>
        <time>2012-03-17T08:58:08Z</time>
      </trkpt>
      <trkpt lat="44.10739" lon="7.07746">
        <ele>1424.377</ele>
        <time>2012-03-17T08:58:09Z</time>
      </trkpt>
      <trkpt lat="44.1075" lon="7.07728">
        <ele>1426.711</ele>
        <time>2012-03-17T08:58:13Z</time>
      </trkpt>
      <trkpt lat="44.10772" lon="7.07705">
        <ele>1428.462</ele>
        <time>2012-03-17T08:58:19Z</time>
      </trkpt>
      <trkpt lat="44.10798" lon="7.07678">
        <ele>1438.048</ele>
        <time>2012-03-17T08:58:28Z</time>
      </trkpt>
      <trkpt lat="44.10808" lon="7.07663">
        <ele>1441.068</ele>
        <time>2012-03-17T08:58:33Z</time>
      </trkpt>
      <trkpt lat="44.10824" lon="7.07637">
        <ele>1440.092</ele>
        <time>2012-03-17T08:58:40Z</time>
      </trkpt>
      <trkpt lat="44.1084" lon="7.07619">
        <ele>1437.63</ele>
        <time>2012-03-17T08:58:46Z</time>
      </trkpt>
      <trkpt lat="44.10853" lon="7.07604">
        <ele>1439.075</ele>
        <time>2012-03-17T08:58:51Z</time>
      </trkpt>
      <trkpt lat="44.1087" lon="7.07582">
        <ele>1443.037</ele>
        <time>2012-03-17T08:58:58Z</time>
      </trkpt>
      <trkpt lat="44.10889" lon="7.07556">
        <ele>1446.027</ele>
        <time>2012-03-17T08:59:06Z</time>
      </trkpt>
      <trkpt lat="44.10905" lon="7.07531">
        <ele>1448.085</ele>
        <time>2012-03-17T08:59:13Z</time>
      </trkpt>
      <trkpt lat="44.10921" lon="7.07505">
        <ele>1446.722</ele>
        <time>2012-03-17T08:59:20Z</time>
      </trkpt>
      <trkpt lat="44.10936" lon="7.07484">
        <ele>1453.251</ele>
        <time>2012-03-17T08:59:28Z</time>
      </trkpt>
      <trkpt lat="44.10948" lon="7.07464">
        <ele>1450.784</ele>
        <time>2012-03-17T08:59:34Z</time>
      </trkpt>
      <trkpt lat="44.10958" lon="7.0744">
        <ele>1449.972</ele>
        <time>2012-03-17T08:59:42Z</time>
      </trkpt>
      <trkpt lat="44.10965" lon="7.07429">
        <ele>1449.843</ele>
        <time>2012-03-17T08:59:48Z</time>
      </trkpt>
      <trkpt lat="44.10975" lon="7.07416">
        <ele>1449.152</ele>
        <time>2012-03-17T08:59:54Z</time>
      </trkpt>
      <trkpt lat="44.10988" lon="7.07407">
        <ele>1453.857</ele>
        <time>2012-03-17T09:00:00Z</time>
      </trkpt>
      <trkpt lat="44.11004" lon="7.07399">
        <ele>1452.413</ele>
        <time>2012-03-17T09:00:07Z</time>
      </trkpt>
      <trkpt lat="44.11017" lon="7.07398">
        <ele>1452.814</ele>
        <time>2012-03-17T09:00:13Z</time>
      </trkpt>
      <trkpt lat="44.11033" lon="7.07396">
        <ele>1454.904</ele>
        <time>2012-03-17T09:00:20Z</time>
      </trkpt>
      <trkpt lat="44.11047" lon="7.07394">
        <ele>1456.745</ele>
        <time>2012-03-17T09:00:27Z</time>
      </trkpt>
      <trkpt lat="44.11059" lon="7.07394">
        <ele>1456.674</ele>
        <time>2012-03-17T09:00:33Z</time>
      </trkpt>
      <trkpt lat="44.11075" lon="7.07397">
        <ele>1460.596</ele>
        <time>2012-03-17T09:00:41Z</time>
      </trkpt>
      <trkpt lat="44.11077" lon="7.07397">
        <ele>1460.957</ele>
        <time>2012-03-17T09:00:42Z</time>
      </trkpt>
      <trkpt lat="44.11089" lon="7.07396">
        <ele>1460.873</ele>
        <time>2012-03-17T09:00:49Z</time>
      </trkpt>
      <trkpt lat="44.11107" lon="7.07396">
        <ele>1460.973</ele>
        <time>2012-03-17T09:00:57Z</time>
      </trkpt>
      <trkpt lat="44.11124" lon="7.07397">
        <ele>1460.952</ele>
        <time>2012-03-17T09:01:05Z</time>
      </trkpt>
      <trkpt lat="44.11141" lon="7.07404">
        <ele>1460.433</ele>
        <time>2012-03-17T09:01:14Z</time>
      </trkpt>
      <trkpt lat="44.11155" lon="7.07408">
        <ele>1460.341</ele>
        <time>2012-03-17T09:01:21Z</time>
      </trkpt>
      <trkpt lat="44.11162" lon="7.07406">
        <ele>1460.872</ele>
        <time>2012-03-17T09:01:25Z</time>
      </trkpt>
      <trkpt lat="44.11161" lon="7.07397">
        <ele>1462.514</ele>
        <time>2012-03-17T09:01:31Z</time>
      </trkpt>
      <trkpt lat="44.11158" lon="7.07394">
        <ele>1464.965</ele>
        <time>2012-03-17T09:01:37Z</time>
      </trkpt>
      <trkpt lat="44.1116" lon="7.07394">
        <ele>1462.053</ele>
        <time>2012-03-17T09:03:54Z</time>
      </trkpt>
      <trkpt lat="44.11157" lon="7.07394">
        <ele>1466.015</ele>
        <time>2012-03-17T09:04:01Z</time>
      </trkpt>
      <trkpt lat="44.11147" lon="7.07392">
        <ele>1468.553</ele>
        <time>2012-03-17T09:05:11Z</time>
      </trkpt>
      <trkpt lat="44.11137" lon="7.07383">
        <ele>1468.895</ele>
        <time>2012-03-17T09:05:19Z</time>
      </trkpt>
      <trkpt lat="44.1113" lon="7.07374">
        <ele>1467.754</ele>
        <time>2012-03-17T09:05:25Z</time>
      </trkpt>
      <trkpt lat="44.1112" lon="7.07365">
        <ele>1468.736</ele>
        <time>2012-03-17T09:05:33Z</time>
      </trkpt>
      <trkpt lat="44.1111" lon="7.07358">
        <ele>1471.247</ele>
        <time>2012-03-17T09:05:40Z</time>
      </trkpt>
      <trkpt lat="44.111" lon="7.07356">
        <ele>1472.807</ele>
        <time>2012-03-17T09:05:48Z</time>
      </trkpt>
      <trkpt lat="44.1109" lon="7.07355">
        <ele>1475.136</ele>
        <time>2012-03-17T09:05:55Z</time>
      </trkpt>
      <trkpt lat="44.11079" lon="7.07354">
        <ele>1483</ele>
        <time>2012-03-17T09:06:02Z</time>
      </trkpt>
      <trkpt lat="44.11069" lon="7.07353">
        <ele>1487.112</ele>
        <time>2012-03-17T09:06:09Z</time>
      </trkpt>
      <trkpt lat="44.11061" lon="7.07348">
        <ele>1486.236</ele>
        <time>2012-03-17T09:06:15Z</time>
      </trkpt>
      <trkpt lat="44.1105" lon="7.07343">
        <ele>1485.645</ele>
        <time>2012-03-17T09:06:22Z</time>
      </trkpt>
      <trkpt lat="44.11035" lon="7.07339">
        <ele>1486.496</ele>
        <time>2012-03-17T09:06:31Z</time>
      </trkpt>
      <trkpt lat="44.11024" lon="7.07337">
        <ele>1488.507</ele>
        <time>2012-03-17T09:06:38Z</time>
      </trkpt>
      <trkpt lat="44.11008" lon="7.07333">
        <ele>1486.882</ele>
        <time>2012-03-17T09:06:46Z</time>
      </trkpt>
      <trkpt lat="44.10992" lon="7.0733">
        <ele>1487.893</ele>
        <time>2012-03-17T09:06:55Z</time>
      </trkpt>
      <trkpt lat="44.1098" lon="7.07329">
        <ele>1488.073</ele>
        <time>2012-03-17T09:07:02Z</time>
      </trkpt>
      <trkpt lat="44.10978" lon="7.07329">
        <ele>1487.742</ele>
        <time>2012-03-17T09:07:03Z</time>
      </trkpt>
      <trkpt lat="44.10969" lon="7.07327">
        <ele>1488.363</ele>
        <time>2012-03-17T09:07:10Z</time>
      </trkpt>
      <trkpt lat="44.10957" lon="7.07327">
        <ele>1489.744</ele>
        <time>2012-03-17T09:07:18Z</time>
      </trkpt>
      <trkpt lat="44.10945" lon="7.07331">
        <ele>1491.523</ele>
        <time>2012-03-17T09:07:25Z</time>
      </trkpt>
      <trkpt lat="44.10934" lon="7.07337">
        <ele>1489.992</ele>
        <time>2012-03-17T09:07:32Z</time>
      </trkpt>
      <trkpt lat="44.10927" lon="7.07343">
        <ele>1489.832</ele>
        <time>2012-03-17T09:07:38Z</time>
      </trkpt>
      <trkpt lat="44.10918" lon="7.07353">
        <ele>1491.673</ele>
        <time>2012-03-17T09:07:46Z</time>
      </trkpt>
      <trkpt lat="44.1091" lon="7.07363">
        <ele>1492.673</ele>
        <time>2012-03-17T09:07:53Z</time>
      </trkpt>
      <trkpt lat="44.109" lon="7.07371">
        <ele>1492.773</ele>
        <time>2012-03-17T09:08:00Z</time>
      </trkpt>
      <trkpt lat="44.10888" lon="7.07382">
        <ele>1494.803</ele>
        <time>2012-03-17T09:08:08Z</time>
      </trkpt>
      <trkpt lat="44.10879" lon="7.07392">
        <ele>1496.103</ele>
        <time>2012-03-17T09:08:15Z</time>
      </trkpt>
      <trkpt lat="44.10871" lon="7.07398">
        <ele>1495.261</ele>
        <time>2012-03-17T09:08:21Z</time>
      </trkpt>
      <trkpt lat="44.1086" lon="7.07407">
        <ele>1497.303</ele>
        <time>2012-03-17T09:08:28Z</time>
      </trkpt>
      <trkpt lat="44.10849" lon="7.07418">
        <ele>1499.845</ele>
        <time>2012-03-17T09:08:36Z</time>
      </trkpt>
      <trkpt lat="44.10838" lon="7.07426">
        <ele>1502.175</ele>
        <time>2012-03-17T09:08:43Z</time>
      </trkpt>
      <trkpt lat="44.1083" lon="7.07432">
        <ele>1502.323</ele>
        <time>2012-03-17T09:08:49Z</time>
      </trkpt>
      <trkpt lat="44.10823" lon="7.07437">
        <ele>1503.814</ele>
        <time>2012-03-17T09:08:55Z</time>
      </trkpt>
      <trkpt lat="44.1081" lon="7.07446">
        <ele>1504.694</ele>
        <time>2012-03-17T09:09:04Z</time>
      </trkpt>
      <trkpt lat="44.108" lon="7.07455">
        <ele>1503.472</ele>
        <time>2012-03-17T09:09:12Z</time>
      </trkpt>
      <trkpt lat="44.1079" lon="7.07464">
        <ele>1511.55</ele>
        <time>2012-03-17T09:09:20Z</time>
      </trkpt>
      <trkpt lat="44.10783" lon="7.07474">
        <ele>1515.29</ele>
        <time>2012-03-17T09:09:27Z</time>
      </trkpt>
      <trkpt lat="44.10774" lon="7.07482">
        <ele>1518.648</ele>
        <time>2012-03-17T09:09:34Z</time>
      </trkpt>
      <trkpt lat="44.10767" lon="7.07491">
        <ele>1517.696</ele>
        <time>2012-03-17T09:09:41Z</time>
      </trkpt>
      <trkpt lat="44.10758" lon="7.075">
        <ele>1518.063</ele>
        <time>2012-03-17T09:09:48Z</time>
      </trkpt>
      <trkpt lat="44.10751" lon="7.07508">
        <ele>1518.613</ele>
        <time>2012-03-17T09:09:54Z</time>
      </trkpt>
      <trkpt lat="44.10742" lon="7.07519">
        <ele>1519.585</ele>
        <time>2012-03-17T09:10:02Z</time>
      </trkpt>
      <trkpt lat="44.10732" lon="7.07531">
        <ele>1523.346</ele>
        <time>2012-03-17T09:10:10Z</time>
      </trkpt>
      <trkpt lat="44.10723" lon="7.07544">
        <ele>1523.995</ele>
        <time>2012-03-17T09:10:18Z</time>
      </trkpt>
      <trkpt lat="44.10715" lon="7.07555">
        <ele>1526.416</ele>
        <time>2012-03-17T09:10:25Z</time>
      </trkpt>
      <trkpt lat="44.10707" lon="7.07566">
        <ele>1527.676</ele>
        <time>2012-03-17T09:10:32Z</time>
      </trkpt>
      <trkpt lat="44.107" lon="7.07577">
        <ele>1528.744</ele>
        <time>2012-03-17T09:10:39Z</time>
      </trkpt>
      <trkpt lat="44.10694" lon="7.07588">
        <ele>1527.813</ele>
        <time>2012-03-17T09:10:45Z</time>
      </trkpt>
      <trkpt lat="44.10684" lon="7.07599">
        <ele>1524.269</ele>
        <time>2012-03-17T09:10:52Z</time>
      </trkpt>
      <trkpt lat="44.10677" lon="7.07609">
        <ele>1526.494</ele>
        <time>2012-03-17T09:10:58Z</time>
      </trkpt>
      <trkpt lat="44.10668" lon="7.07618">
        <ele>1528.846</ele>
        <time>2012-03-17T09:11:04Z</time>
      </trkpt>
      <trkpt lat="44.10653" lon="7.07629">
        <ele>1530.595</ele>
        <time>2012-03-17T09:11:13Z</time>
      </trkpt>
      <trkpt lat="44.10643" lon="7.0764">
        <ele>1533.076</ele>
        <time>2012-03-17T09:11:20Z</time>
      </trkpt>
      <trkpt lat="44.10633" lon="7.07654">
        <ele>1536.827</ele>
        <time>2012-03-17T09:11:28Z</time>
      </trkpt>
      <trkpt lat="44.10623" lon="7.07667">
        <ele>1539.036</ele>
        <time>2012-03-17T09:11:35Z</time>
      </trkpt>
      <trkpt lat="44.1062" lon="7.07675">
        <ele>1540.167</ele>
        <time>2012-03-17T09:11:39Z</time>
      </trkpt>
      <trkpt lat="44.10617" lon="7.07681">
        <ele>1539.546</ele>
        <time>2012-03-17T09:11:43Z</time>
      </trkpt>
      <trkpt lat="44.10612" lon="7.07693">
        <ele>1542.467</ele>
        <time>2012-03-17T09:11:50Z</time>
      </trkpt>
      <trkpt lat="44.10612" lon="7.07695">
        <ele>1543.538</ele>
        <time>2012-03-17T09:11:51Z</time>
      </trkpt>
      <trkpt lat="44.10612" lon="7.077">
        <ele>1543.929</ele>
        <time>2012-03-17T09:11:54Z</time>
      </trkpt>
      <trkpt lat="44.10606" lon="7.07715">
        <ele>1551.514</ele>
        <time>2012-03-17T09:12:02Z</time>
      </trkpt>
      <trkpt lat="44.10603" lon="7.07724">
        <ele>1554.453</ele>
        <time>2012-03-17T09:12:07Z</time>
      </trkpt>
      <trkpt lat="44.106" lon="7.07733">
        <ele>1554.938</ele>
        <time>2012-03-17T09:12:13Z</time>
      </trkpt>
      <trkpt lat="44.10596" lon="7.07746">
        <ele>1561.131</ele>
        <time>2012-03-17T09:12:20Z</time>
      </trkpt>
      <trkpt lat="44.10594" lon="7.0776">
        <ele>1560.918</ele>
        <time>2012-03-17T09:12:28Z</time>
      </trkpt>
      <trkpt lat="44.1059" lon="7.07772">
        <ele>1565.209</ele>
        <time>2012-03-17T09:12:36Z</time>
      </trkpt>
      <trkpt lat="44.10588" lon="7.07783">
        <ele>1565.407</ele>
        <time>2012-03-17T09:12:43Z</time>
      </trkpt>
      <trkpt lat="44.10583" lon="7.07794">
        <ele>1566.978</ele>
        <time>2012-03-17T09:12:49Z</time>
      </trkpt>
      <trkpt lat="44.10579" lon="7.07809">
        <ele>1566.098</ele>
        <time>2012-03-17T09:12:58Z</time>
      </trkpt>
      <trkpt lat="44.10575" lon="7.07819">
        <ele>1567.74</ele>
        <time>2012-03-17T09:13:04Z</time>
      </trkpt>
      <trkpt lat="44.10569" lon="7.07831">
        <ele>1569.647</ele>
        <time>2012-03-17T09:13:11Z</time>
      </trkpt>
      <trkpt lat="44.10564" lon="7.07844">
        <ele>1569.606</ele>
        <time>2012-03-17T09:13:19Z</time>
      </trkpt>
      <trkpt lat="44.1056" lon="7.07859">
        <ele>1571.136</ele>
        <time>2012-03-17T09:13:26Z</time>
      </trkpt>
      <trkpt lat="44.10553" lon="7.07872">
        <ele>1572.219</ele>
        <time>2012-03-17T09:13:33Z</time>
      </trkpt>
      <trkpt lat="44.10547" lon="7.07884">
        <ele>1572.597</ele>
        <time>2012-03-17T09:13:40Z</time>
      </trkpt>
      <trkpt lat="44.10539" lon="7.07899">
        <ele>1568.314</ele>
        <time>2012-03-17T09:13:47Z</time>
      </trkpt>
      <trkpt lat="44.10533" lon="7.07913">
        <ele>1564.423</ele>
        <time>2012-03-17T09:13:53Z</time>
      </trkpt>
      <trkpt lat="44.10522" lon="7.07924">
        <ele>1563.394</ele>
        <time>2012-03-17T09:14:00Z</time>
      </trkpt>
      <trkpt lat="44.10512" lon="7.07935">
        <ele>1567.176</ele>
        <time>2012-03-17T09:14:08Z</time>
      </trkpt>
      <trkpt lat="44.10504" lon="7.07943">
        <ele>1566.866</ele>
        <time>2012-03-17T09:14:15Z</time>
      </trkpt>
      <trkpt lat="44.10495" lon="7.07952">
        <ele>1564.005</ele>
        <time>2012-03-17T09:14:21Z</time>
      </trkpt>
      <trkpt lat="44.10488" lon="7.0796">
        <ele>1566.967</ele>
        <time>2012-03-17T09:14:27Z</time>
      </trkpt>
      <trkpt lat="44.10478" lon="7.07969">
        <ele>1570.467</ele>
        <time>2012-03-17T09:14:34Z</time>
      </trkpt>
      <trkpt lat="44.10472" lon="7.07978">
        <ele>1568.553</ele>
        <time>2012-03-17T09:14:40Z</time>
      </trkpt>
      <trkpt lat="44.10463" lon="7.07985">
        <ele>1563.172</ele>
        <time>2012-03-17T09:14:47Z</time>
      </trkpt>
      <trkpt lat="44.10455" lon="7.07994">
        <ele>1566.035</ele>
        <time>2012-03-17T09:14:55Z</time>
      </trkpt>
      <trkpt lat="44.10448" lon="7.08002">
        <ele>1568.357</ele>
        <time>2012-03-17T09:15:02Z</time>
      </trkpt>
      <trkpt lat="44.10439" lon="7.08011">
        <ele>1568.847</ele>
        <time>2012-03-17T09:15:09Z</time>
      </trkpt>
      <trkpt lat="44.10429" lon="7.08019">
        <ele>1572.7</ele>
        <time>2012-03-17T09:15:16Z</time>
      </trkpt>
      <trkpt lat="44.1042" lon="7.08028">
        <ele>1573.226</ele>
        <time>2012-03-17T09:15:23Z</time>
      </trkpt>
      <trkpt lat="44.10412" lon="7.08037">
        <ele>1573.847</ele>
        <time>2012-03-17T09:15:30Z</time>
      </trkpt>
      <trkpt lat="44.10402" lon="7.08045">
        <ele>1578.549</ele>
        <time>2012-03-17T09:15:38Z</time>
      </trkpt>
      <trkpt lat="44.10393" lon="7.08054">
        <ele>1577.407</ele>
        <time>2012-03-17T09:15:45Z</time>
      </trkpt>
      <trkpt lat="44.10385" lon="7.08061">
        <ele>1577.146</ele>
        <time>2012-03-17T09:15:51Z</time>
      </trkpt>
      <trkpt lat="44.10374" lon="7.08069">
        <ele>1574.643</ele>
        <time>2012-03-17T09:15:58Z</time>
      </trkpt>
      <trkpt lat="44.10369" lon="7.08074">
        <ele>1575.996</ele>
        <time>2012-03-17T09:16:03Z</time>
      </trkpt>
      <trkpt lat="44.1036" lon="7.08082">
        <ele>1575.153</ele>
        <time>2012-03-17T09:16:10Z</time>
      </trkpt>
      <trkpt lat="44.10354" lon="7.08086">
        <ele>1572.741</ele>
        <time>2012-03-17T09:16:16Z</time>
      </trkpt>
      <trkpt lat="44.10348" lon="7.08091">
        <ele>1576.656</ele>
        <time>2012-03-17T09:16:22Z</time>
      </trkpt>
      <trkpt lat="44.10339" lon="7.08095">
        <ele>1581.37</ele>
        <time>2012-03-17T09:16:28Z</time>
      </trkpt>
      <trkpt lat="44.10328" lon="7.081">
        <ele>1583.667</ele>
        <time>2012-03-17T09:16:35Z</time>
      </trkpt>
      <trkpt lat="44.10316" lon="7.08105">
        <ele>1586.597</ele>
        <time>2012-03-17T09:16:43Z</time>
      </trkpt>
      <trkpt lat="44.10308" lon="7.0811">
        <ele>1588.095</ele>
        <time>2012-03-17T09:16:50Z</time>
      </trkpt>
      <trkpt lat="44.10302" lon="7.08114">
        <ele>1588.377</ele>
        <time>2012-03-17T09:16:55Z</time>
      </trkpt>
      <trkpt lat="44.10292" lon="7.08127">
        <ele>1589.428</ele>
        <time>2012-03-17T09:17:05Z</time>
      </trkpt>
      <trkpt lat="44.10282" lon="7.08137">
        <ele>1596.161</ele>
        <time>2012-03-17T09:17:14Z</time>
      </trkpt>
      <trkpt lat="44.10275" lon="7.08146">
        <ele>1599.979</ele>
        <time>2012-03-17T09:17:21Z</time>
      </trkpt>
      <trkpt lat="44.10268" lon="7.08153">
        <ele>1591.499</ele>
        <time>2012-03-17T09:17:26Z</time>
      </trkpt>
      <trkpt lat="44.10261" lon="7.08161">
        <ele>1588.121</ele>
        <time>2012-03-17T09:17:32Z</time>
      </trkpt>
      <trkpt lat="44.10253" lon="7.08167">
        <ele>1591.806</ele>
        <time>2012-03-17T09:17:39Z</time>
      </trkpt>
      <trkpt lat="44.10245" lon="7.08176">
        <ele>1589.524</ele>
        <time>2012-03-17T09:17:45Z</time>
      </trkpt>
      <trkpt lat="44.10237" lon="7.08182">
        <ele>1587.283</ele>
        <time>2012-03-17T09:17:53Z</time>
      </trkpt>
      <trkpt lat="44.10231" lon="7.08187">
        <ele>1590.075</ele>
        <time>2012-03-17T09:17:59Z</time>
      </trkpt>
      <trkpt lat="44.10224" lon="7.08193">
        <ele>1593.968</ele>
        <time>2012-03-17T09:18:05Z</time>
      </trkpt>
      <trkpt lat="44.10217" lon="7.08198">
        <ele>1596.306</ele>
        <time>2012-03-17T09:18:12Z</time>
      </trkpt>
      <trkpt lat="44.10217" lon="7.08198">
        <ele>1596.537</ele>
        <time>2012-03-17T09:18:13Z</time>
      </trkpt>
      <trkpt lat="44.1021" lon="7.08195">
        <ele>1598.455</ele>
        <time>2012-03-17T09:18:19Z</time>
      </trkpt>
      <trkpt lat="44.10207" lon="7.08194">
        <ele>1597.274</ele>
        <time>2012-03-17T09:18:21Z</time>
      </trkpt>
      <trkpt lat="44.10205" lon="7.08188">
        <ele>1594.892</ele>
        <time>2012-03-17T09:18:25Z</time>
      </trkpt>
      <trkpt lat="44.10206" lon="7.08183">
        <ele>1593.921</ele>
        <time>2012-03-17T09:18:28Z</time>
      </trkpt>
      <trkpt lat="44.1021" lon="7.08176">
        <ele>1593.802</ele>
        <time>2012-03-17T09:18:32Z</time>
      </trkpt>
      <trkpt lat="44.10215" lon="7.08163">
        <ele>1592.552</ele>
        <time>2012-03-17T09:18:40Z</time>
      </trkpt>
      <trkpt lat="44.1022" lon="7.08156">
        <ele>1595.564</ele>
        <time>2012-03-17T09:18:47Z</time>
      </trkpt>
      <trkpt lat="44.10224" lon="7.0815">
        <ele>1597.183</ele>
        <time>2012-03-17T09:18:53Z</time>
      </trkpt>
      <trkpt lat="44.10229" lon="7.08139">
        <ele>1597.324</ele>
        <time>2012-03-17T09:18:59Z</time>
      </trkpt>
      <trkpt lat="44.10238" lon="7.08123">
        <ele>1595.061</ele>
        <time>2012-03-17T09:19:07Z</time>
      </trkpt>
      <trkpt lat="44.10243" lon="7.08112">
        <ele>1594.811</ele>
        <time>2012-03-17T09:19:13Z</time>
      </trkpt>
      <trkpt lat="44.10246" lon="7.08104">
        <ele>1594.711</ele>
        <time>2012-03-17T09:19:17Z</time>
      </trkpt>
      <trkpt lat="44.1025" lon="7.08092">
        <ele>1596.502</ele>
        <time>2012-03-17T09:19:25Z</time>
      </trkpt>
      <trkpt lat="44.10258" lon="7.08076">
        <ele>1598.273</ele>
        <time>2012-03-17T09:19:33Z</time>
      </trkpt>
      <trkpt lat="44.10263" lon="7.08064">
        <ele>1597.773</ele>
        <time>2012-03-17T09:19:38Z</time>
      </trkpt>
      <trkpt lat="44.10272" lon="7.08051">
        <ele>1598.843</ele>
        <time>2012-03-17T09:19:45Z</time>
      </trkpt>
      <trkpt lat="44.10279" lon="7.08043">
        <ele>1599.733</ele>
        <time>2012-03-17T09:19:50Z</time>
      </trkpt>
      <trkpt lat="44.1029" lon="7.08033">
        <ele>1599.592</ele>
        <time>2012-03-17T09:19:57Z</time>
      </trkpt>
      <trkpt lat="44.10299" lon="7.08026">
        <ele>1600.743</ele>
        <time>2012-03-17T09:20:04Z</time>
      </trkpt>
      <trkpt lat="44.10311" lon="7.08015">
        <ele>1602.093</ele>
        <time>2012-03-17T09:20:12Z</time>
      </trkpt>
      <trkpt lat="44.10319" lon="7.08004">
        <ele>1602.673</ele>
        <time>2012-03-17T09:20:19Z</time>
      </trkpt>
      <trkpt lat="44.10321" lon="7.08002">
        <ele>1604.004</ele>
        <time>2012-03-17T09:20:21Z</time>
      </trkpt>
      <trkpt lat="44.10329" lon="7.0799">
        <ele>1604.913</ele>
        <time>2012-03-17T09:20:28Z</time>
      </trkpt>
      <trkpt lat="44.10337" lon="7.07976">
        <ele>1605.914</ele>
        <time>2012-03-17T09:20:34Z</time>
      </trkpt>
      <trkpt lat="44.10344" lon="7.07964">
        <ele>1605.712</ele>
        <time>2012-03-17T09:20:40Z</time>
      </trkpt>
      <trkpt lat="44.1035" lon="7.07952">
        <ele>1606.112</ele>
        <time>2012-03-17T09:20:46Z</time>
      </trkpt>
      <trkpt lat="44.10355" lon="7.07941">
        <ele>1608.344</ele>
        <time>2012-03-17T09:20:53Z</time>
      </trkpt>
      <trkpt lat="44.10361" lon="7.07927">
        <ele>1610.012</ele>
        <time>2012-03-17T09:21:00Z</time>
      </trkpt>
      <trkpt lat="44.10367" lon="7.07913">
        <ele>1610.171</ele>
        <time>2012-03-17T09:21:07Z</time>
      </trkpt>
      <trkpt lat="44.10373" lon="7.07901">
        <ele>1611.643</ele>
        <time>2012-03-17T09:21:13Z</time>
      </trkpt>
      <trkpt lat="44.10377" lon="7.0789">
        <ele>1611.733</ele>
        <time>2012-03-17T09:21:19Z</time>
      </trkpt>
      <trkpt lat="44.1038" lon="7.07878">
        <ele>1612.587</ele>
        <time>2012-03-17T09:21:25Z</time>
      </trkpt>
      <trkpt lat="44.10386" lon="7.07862">
        <ele>1612.974</ele>
        <time>2012-03-17T09:21:33Z</time>
      </trkpt>
      <trkpt lat="44.10392" lon="7.07846">
        <ele>1613.064</ele>
        <time>2012-03-17T09:21:39Z</time>
      </trkpt>
      <trkpt lat="44.10397" lon="7.07834">
        <ele>1617.426</ele>
        <time>2012-03-17T09:21:46Z</time>
      </trkpt>
      <trkpt lat="44.10399" lon="7.0783">
        <ele>1618.736</ele>
        <time>2012-03-17T09:21:48Z</time>
      </trkpt>
      <trkpt lat="44.10402" lon="7.07815">
        <ele>1619.976</ele>
        <time>2012-03-17T09:21:55Z</time>
      </trkpt>
      <trkpt lat="44.10405" lon="7.07796">
        <ele>1618.542</ele>
        <time>2012-03-17T09:22:02Z</time>
      </trkpt>
      <trkpt lat="44.10407" lon="7.07776">
        <ele>1618.373</ele>
        <time>2012-03-17T09:22:10Z</time>
      </trkpt>
      <trkpt lat="44.10407" lon="7.0776">
        <ele>1621.625</ele>
        <time>2012-03-17T09:22:17Z</time>
      </trkpt>
      <trkpt lat="44.10406" lon="7.07742">
        <ele>1624.194</ele>
        <time>2012-03-17T09:22:25Z</time>
      </trkpt>
      <trkpt lat="44.10407" lon="7.07727">
        <ele>1623.854</ele>
        <time>2012-03-17T09:22:32Z</time>
      </trkpt>
      <trkpt lat="44.1041" lon="7.07712">
        <ele>1623.852</ele>
        <time>2012-03-17T09:22:38Z</time>
      </trkpt>
      <trkpt lat="44.10412" lon="7.07694">
        <ele>1626.143</ele>
        <time>2012-03-17T09:22:46Z</time>
      </trkpt>
      <trkpt lat="44.10413" lon="7.07689">
        <ele>1625.622</ele>
        <time>2012-03-17T09:22:48Z</time>
      </trkpt>
      <trkpt lat="44.10418" lon="7.07678">
        <ele>1629.036</ele>
        <time>2012-03-17T09:22:55Z</time>
      </trkpt>
      <trkpt lat="44.10422" lon="7.07664">
        <ele>1633.127</ele>
        <time>2012-03-17T09:23:03Z</time>
      </trkpt>
      <trkpt lat="44.10426" lon="7.0765">
        <ele>1632.652</ele>
        <time>2012-03-17T09:23:10Z</time>
      </trkpt>
      <trkpt lat="44.10429" lon="7.07633">
        <ele>1630.31</ele>
        <time>2012-03-17T09:23:17Z</time>
      </trkpt>
      <trkpt lat="44.10435" lon="7.07619">
        <ele>1628.908</ele>
        <time>2012-03-17T09:23:22Z</time>
      </trkpt>
      <trkpt lat="44.10439" lon="7.07606">
        <ele>1629.422</ele>
        <time>2012-03-17T09:23:29Z</time>
      </trkpt>
      <trkpt lat="44.10441" lon="7.07599">
        <ele>1628.621</ele>
        <time>2012-03-17T09:23:32Z</time>
      </trkpt>
      <trkpt lat="44.10445" lon="7.0759">
        <ele>1629.512</ele>
        <time>2012-03-17T09:23:36Z</time>
      </trkpt>
      <trkpt lat="44.10452" lon="7.07573">
        <ele>1630.271</ele>
        <time>2012-03-17T09:23:44Z</time>
      </trkpt>
      <trkpt lat="44.10458" lon="7.07558">
        <ele>1633.643</ele>
        <time>2012-03-17T09:23:53Z</time>
      </trkpt>
      <trkpt lat="44.1046" lon="7.0755">
        <ele>1637.615</ele>
        <time>2012-03-17T09:24:00Z</time>
      </trkpt>
      <trkpt lat="44.10468" lon="7.07535">
        <ele>1641.875</ele>
        <time>2012-03-17T09:24:08Z</time>
      </trkpt>
      <trkpt lat="44.10478" lon="7.07518">
        <ele>1642.469</ele>
        <time>2012-03-17T09:24:15Z</time>
      </trkpt>
      <trkpt lat="44.10487" lon="7.075">
        <ele>1641.308</ele>
        <time>2012-03-17T09:24:23Z</time>
      </trkpt>
      <trkpt lat="44.10495" lon="7.07484">
        <ele>1638.886</ele>
        <time>2012-03-17T09:24:31Z</time>
      </trkpt>
      <trkpt lat="44.10501" lon="7.07468">
        <ele>1637.927</ele>
        <time>2012-03-17T09:24:39Z</time>
      </trkpt>
      <trkpt lat="44.10506" lon="7.07453">
        <ele>1635.906</ele>
        <time>2012-03-17T09:24:46Z</time>
      </trkpt>
      <trkpt lat="44.10512" lon="7.07442">
        <ele>1638.153</ele>
        <time>2012-03-17T09:24:53Z</time>
      </trkpt>
      <trkpt lat="44.10517" lon="7.0743">
        <ele>1640.633</ele>
        <time>2012-03-17T09:24:59Z</time>
      </trkpt>
      <trkpt lat="44.1052" lon="7.07424">
        <ele>1640.562</ele>
        <time>2012-03-17T09:25:02Z</time>
      </trkpt>
      <trkpt lat="44.10525" lon="7.07413">
        <ele>1645.405</ele>
        <time>2012-03-17T09:25:09Z</time>
      </trkpt>
      <trkpt lat="44.10527" lon="7.07411">
        <ele>1646.515</ele>
        <time>2012-03-17T09:25:10Z</time>
      </trkpt>
      <trkpt lat="44.10533" lon="7.07396">
        <ele>1648.903</ele>
        <time>2012-03-17T09:25:18Z</time>
      </trkpt>
      <trkpt lat="44.10539" lon="7.07385">
        <ele>1650.552</ele>
        <time>2012-03-17T09:25:25Z</time>
      </trkpt>
      <trkpt lat="44.10543" lon="7.07373">
        <ele>1649.84</ele>
        <time>2012-03-17T09:25:32Z</time>
      </trkpt>
      <trkpt lat="44.10549" lon="7.0736">
        <ele>1651.623</ele>
        <time>2012-03-17T09:25:39Z</time>
      </trkpt>
      <trkpt lat="44.10554" lon="7.07347">
        <ele>1651.181</ele>
        <time>2012-03-17T09:25:46Z</time>
      </trkpt>
      <trkpt lat="44.10563" lon="7.0733">
        <ele>1649.859</ele>
        <time>2012-03-17T09:25:54Z</time>
      </trkpt>
      <trkpt lat="44.10568" lon="7.07316">
        <ele>1650.242</ele>
        <time>2012-03-17T09:26:02Z</time>
      </trkpt>
      <trkpt lat="44.10577" lon="7.07301">
        <ele>1651.622</ele>
        <time>2012-03-17T09:26:10Z</time>
      </trkpt>
      <trkpt lat="44.10584" lon="7.07285">
        <ele>1650.489</ele>
        <time>2012-03-17T09:26:17Z</time>
      </trkpt>
      <trkpt lat="44.10591" lon="7.07273">
        <ele>1651.682</ele>
        <time>2012-03-17T09:26:25Z</time>
      </trkpt>
      <trkpt lat="44.10597" lon="7.07263">
        <ele>1652.671</ele>
        <time>2012-03-17T09:26:30Z</time>
      </trkpt>
      <trkpt lat="44.10601" lon="7.07251">
        <ele>1654.004</ele>
        <time>2012-03-17T09:26:37Z</time>
      </trkpt>
      <trkpt lat="44.10609" lon="7.0724">
        <ele>1656.413</ele>
        <time>2012-03-17T09:26:44Z</time>
      </trkpt>
      <trkpt lat="44.10616" lon="7.07225">
        <ele>1656.531</ele>
        <time>2012-03-17T09:26:51Z</time>
      </trkpt>
      <trkpt lat="44.10622" lon="7.07211">
        <ele>1658.192</ele>
        <time>2012-03-17T09:26:58Z</time>
      </trkpt>
      <trkpt lat="44.10628" lon="7.07197">
        <ele>1658.972</ele>
        <time>2012-03-17T09:27:06Z</time>
      </trkpt>
      <trkpt lat="44.10632" lon="7.07187">
        <ele>1660.393</ele>
        <time>2012-03-17T09:27:12Z</time>
      </trkpt>
      <trkpt lat="44.10638" lon="7.0717">
        <ele>1661.712</ele>
        <time>2012-03-17T09:27:20Z</time>
      </trkpt>
      <trkpt lat="44.10643" lon="7.07157">
        <ele>1661.351</ele>
        <time>2012-03-17T09:27:26Z</time>
      </trkpt>
      <trkpt lat="44.10647" lon="7.07145">
        <ele>1662.182</ele>
        <time>2012-03-17T09:27:31Z</time>
      </trkpt>
      <trkpt lat="44.10652" lon="7.0713">
        <ele>1664.373</ele>
        <time>2012-03-17T09:27:38Z</time>
      </trkpt>
      <trkpt lat="44.10652" lon="7.07128">
        <ele>1664.964</ele>
        <time>2012-03-17T09:27:39Z</time>
      </trkpt>
      <trkpt lat="44.10658" lon="7.07111">
        <ele>1666.723</ele>
        <time>2012-03-17T09:27:47Z</time>
      </trkpt>
      <trkpt lat="44.1066" lon="7.07099">
        <ele>1667.001</ele>
        <time>2012-03-17T09:27:54Z</time>
      </trkpt>
      <trkpt lat="44.10663" lon="7.07087">
        <ele>1669.561</ele>
        <time>2012-03-17T09:28:01Z</time>
      </trkpt>
      <trkpt lat="44.10665" lon="7.07077">
        <ele>1667.98</ele>
        <time>2012-03-17T09:28:06Z</time>
      </trkpt>
      <trkpt lat="44.10667" lon="7.07061">
        <ele>1667.871</ele>
        <time>2012-03-17T09:28:12Z</time>
      </trkpt>
      <trkpt lat="44.10673" lon="7.07045">
        <ele>1669.232</ele>
        <time>2012-03-17T09:28:19Z</time>
      </trkpt>
      <trkpt lat="44.10677" lon="7.07031">
        <ele>1668.939</ele>
        <time>2012-03-17T09:28:24Z</time>
      </trkpt>
      <trkpt lat="44.10679" lon="7.07025">
        <ele>1669.431</ele>
        <time>2012-03-17T09:28:28Z</time>
      </trkpt>
      <trkpt lat="44.10683" lon="7.07008">
        <ele>1671.18</ele>
        <time>2012-03-17T09:28:36Z</time>
      </trkpt>
      <trkpt lat="44.10685" lon="7.06994">
        <ele>1671.36</ele>
        <time>2012-03-17T09:28:43Z</time>
      </trkpt>
      <trkpt lat="44.1069" lon="7.06976">
        <ele>1671.949</ele>
        <time>2012-03-17T09:28:51Z</time>
      </trkpt>
      <trkpt lat="44.10696" lon="7.06961">
        <ele>1673.501</ele>
        <time>2012-03-17T09:28:58Z</time>
      </trkpt>
      <trkpt lat="44.10699" lon="7.06948">
        <ele>1677.752</ele>
        <time>2012-03-17T09:29:05Z</time>
      </trkpt>
      <trkpt lat="44.107" lon="7.06935">
        <ele>1676.991</ele>
        <time>2012-03-17T09:29:12Z</time>
      </trkpt>
      <trkpt lat="44.10702" lon="7.06918">
        <ele>1675.77</ele>
        <time>2012-03-17T09:29:20Z</time>
      </trkpt>
      <trkpt lat="44.10707" lon="7.06902">
        <ele>1673.065</ele>
        <time>2012-03-17T09:29:28Z</time>
      </trkpt>
      <trkpt lat="44.1071" lon="7.06893">
        <ele>1674.1</ele>
        <time>2012-03-17T09:29:33Z</time>
      </trkpt>
      <trkpt lat="44.1072" lon="7.06878">
        <ele>1675.699</ele>
        <time>2012-03-17T09:29:41Z</time>
      </trkpt>
      <trkpt lat="44.10728" lon="7.06865">
        <ele>1678.931</ele>
        <time>2012-03-17T09:29:49Z</time>
      </trkpt>
      <trkpt lat="44.10732" lon="7.06857">
        <ele>1681.251</ele>
        <time>2012-03-17T09:29:55Z</time>
      </trkpt>
      <trkpt lat="44.10738" lon="7.06847">
        <ele>1682.8</ele>
        <time>2012-03-17T09:30:01Z</time>
      </trkpt>
      <trkpt lat="44.1074" lon="7.06844">
        <ele>1682.979</ele>
        <time>2012-03-17T09:30:03Z</time>
      </trkpt>
      <trkpt lat="44.10747" lon="7.06829">
        <ele>1682.627</ele>
        <time>2012-03-17T09:30:11Z</time>
      </trkpt>
      <trkpt lat="44.1075" lon="7.06822">
        <ele>1684.512</ele>
        <time>2012-03-17T09:30:18Z</time>
      </trkpt>
      <trkpt lat="44.10754" lon="7.0681">
        <ele>1683.129</ele>
        <time>2012-03-17T09:30:25Z</time>
      </trkpt>
      <trkpt lat="44.1076" lon="7.06798">
        <ele>1684.23</ele>
        <time>2012-03-17T09:30:31Z</time>
      </trkpt>
      <trkpt lat="44.1077" lon="7.06778">
        <ele>1684.508</ele>
        <time>2012-03-17T09:30:40Z</time>
      </trkpt>
      <trkpt lat="44.1078" lon="7.0676">
        <ele>1684.259</ele>
        <time>2012-03-17T09:30:48Z</time>
      </trkpt>
      <trkpt lat="44.10787" lon="7.06748">
        <ele>1686.662</ele>
        <time>2012-03-17T09:30:55Z</time>
      </trkpt>
      <trkpt lat="44.10796" lon="7.06734">
        <ele>1687.401</ele>
        <time>2012-03-17T09:31:02Z</time>
      </trkpt>
      <trkpt lat="44.10798" lon="7.0673">
        <ele>1687.872</ele>
        <time>2012-03-17T09:31:04Z</time>
      </trkpt>
      <trkpt lat="44.10804" lon="7.0672">
        <ele>1690.064</ele>
        <time>2012-03-17T09:31:11Z</time>
      </trkpt>
      <trkpt lat="44.10809" lon="7.0671">
        <ele>1690.233</ele>
        <time>2012-03-17T09:31:16Z</time>
      </trkpt>
      <trkpt lat="44.10814" lon="7.06697">
        <ele>1690.043</ele>
        <time>2012-03-17T09:31:22Z</time>
      </trkpt>
      <trkpt lat="44.10819" lon="7.06687">
        <ele>1689.749</ele>
        <time>2012-03-17T09:31:27Z</time>
      </trkpt>
      <trkpt lat="44.10827" lon="7.06672">
        <ele>1688.368</ele>
        <time>2012-03-17T09:31:33Z</time>
      </trkpt>
      <trkpt lat="44.10836" lon="7.06656">
        <ele>1688.64</ele>
        <time>2012-03-17T09:31:40Z</time>
      </trkpt>
      <trkpt lat="44.10841" lon="7.06642">
        <ele>1688.428</ele>
        <time>2012-03-17T09:31:46Z</time>
      </trkpt>
      <trkpt lat="44.10848" lon="7.06626">
        <ele>1687.738</ele>
        <time>2012-03-17T09:31:53Z</time>
      </trkpt>
      <trkpt lat="44.10854" lon="7.06616">
        <ele>1688.93</ele>
        <time>2012-03-17T09:31:58Z</time>
      </trkpt>
      <trkpt lat="44.10862" lon="7.066">
        <ele>1689.57</ele>
        <time>2012-03-17T09:32:06Z</time>
      </trkpt>
      <trkpt lat="44.10868" lon="7.06587">
        <ele>1690.389</ele>
        <time>2012-03-17T09:32:12Z</time>
      </trkpt>
      <trkpt lat="44.1087" lon="7.0657">
        <ele>1690.54</ele>
        <time>2012-03-17T09:32:18Z</time>
      </trkpt>
      <trkpt lat="44.10859" lon="7.06552">
        <ele>1691.94</ele>
        <time>2012-03-17T09:32:24Z</time>
      </trkpt>
      <trkpt lat="44.10851" lon="7.06542">
        <ele>1693.962</ele>
        <time>2012-03-17T09:32:27Z</time>
      </trkpt>
      <trkpt lat="44.10836" lon="7.06513">
        <ele>1692.938</ele>
        <time>2012-03-17T09:32:34Z</time>
      </trkpt>
      <trkpt lat="44.10832" lon="7.06496">
        <ele>1692.229</ele>
        <time>2012-03-17T09:32:38Z</time>
      </trkpt>
      <trkpt lat="44.10834" lon="7.0647">
        <ele>1692.74</ele>
        <time>2012-03-17T09:32:42Z</time>
      </trkpt>
      <trkpt lat="44.10845" lon="7.06454">
        <ele>1692.949</ele>
        <time>2012-03-17T09:32:48Z</time>
      </trkpt>
      <trkpt lat="44.10848" lon="7.06448">
        <ele>1690.897</ele>
        <time>2012-03-17T09:32:52Z</time>
      </trkpt>
      <trkpt lat="44.10853" lon="7.06448">
        <ele>1694.359</ele>
        <time>2012-03-17T09:43:12Z</time>
      </trkpt>
      <trkpt lat="44.10851" lon="7.0645">
        <ele>1696.799</ele>
        <time>2012-03-17T09:43:36Z</time>
      </trkpt>
      <trkpt lat="44.10852" lon="7.06441">
        <ele>1696.222</ele>
        <time>2012-03-17T09:43:42Z</time>
      </trkpt>
      <trkpt lat="44.10854" lon="7.06428">
        <ele>1698.453</ele>
        <time>2012-03-17T09:43:48Z</time>
      </trkpt>
      <trkpt lat="44.10857" lon="7.06418">
        <ele>1702.255</ele>
        <time>2012-03-17T09:43:54Z</time>
      </trkpt>
      <trkpt lat="44.10861" lon="7.06407">
        <ele>1703.504</ele>
        <time>2012-03-17T09:44:00Z</time>
      </trkpt>
      <trkpt lat="44.10865" lon="7.06399">
        <ele>1705.023</ele>
        <time>2012-03-17T09:44:06Z</time>
      </trkpt>
      <trkpt lat="44.10872" lon="7.06387">
        <ele>1705.041</ele>
        <time>2012-03-17T09:44:14Z</time>
      </trkpt>
      <trkpt lat="44.10876" lon="7.06378">
        <ele>1704.783</ele>
        <time>2012-03-17T09:44:21Z</time>
      </trkpt>
      <trkpt lat="44.10881" lon="7.06369">
        <ele>1707.383</ele>
        <time>2012-03-17T09:44:28Z</time>
      </trkpt>
      <trkpt lat="44.10888" lon="7.06359">
        <ele>1710.463</ele>
        <time>2012-03-17T09:44:36Z</time>
      </trkpt>
      <trkpt lat="44.10891" lon="7.06352">
        <ele>1712.8</ele>
        <time>2012-03-17T09:44:42Z</time>
      </trkpt>
      <trkpt lat="44.10894" lon="7.06345">
        <ele>1711.551</ele>
        <time>2012-03-17T09:44:48Z</time>
      </trkpt>
      <trkpt lat="44.109" lon="7.06335">
        <ele>1710.079</ele>
        <time>2012-03-17T09:44:56Z</time>
      </trkpt>
      <trkpt lat="44.10905" lon="7.06326">
        <ele>1709.58</ele>
        <time>2012-03-17T09:45:03Z</time>
      </trkpt>
      <trkpt lat="44.10909" lon="7.06317">
        <ele>1708.06</ele>
        <time>2012-03-17T09:45:10Z</time>
      </trkpt>
      <trkpt lat="44.10913" lon="7.06311">
        <ele>1709.381</ele>
        <time>2012-03-17T09:45:16Z</time>
      </trkpt>
      <trkpt lat="44.10918" lon="7.06306">
        <ele>1710.219</ele>
        <time>2012-03-17T09:45:20Z</time>
      </trkpt>
      <trkpt lat="44.10923" lon="7.06298">
        <ele>1710.57</ele>
        <time>2012-03-17T09:45:28Z</time>
      </trkpt>
      <trkpt lat="44.10929" lon="7.0629">
        <ele>1712.09</ele>
        <time>2012-03-17T09:45:34Z</time>
      </trkpt>
      <trkpt lat="44.10934" lon="7.06279">
        <ele>1715.263</ele>
        <time>2012-03-17T09:45:41Z</time>
      </trkpt>
      <trkpt lat="44.10942" lon="7.06268">
        <ele>1717.213</ele>
        <time>2012-03-17T09:45:50Z</time>
      </trkpt>
      <trkpt lat="44.10947" lon="7.06256">
        <ele>1719.852</ele>
        <time>2012-03-17T09:45:57Z</time>
      </trkpt>
      <trkpt lat="44.10957" lon="7.06241">
        <ele>1722.84</ele>
        <time>2012-03-17T09:46:07Z</time>
      </trkpt>
      <trkpt lat="44.10965" lon="7.0623">
        <ele>1727.604</ele>
        <time>2012-03-17T09:46:15Z</time>
      </trkpt>
      <trkpt lat="44.10968" lon="7.06222">
        <ele>1723.197</ele>
        <time>2012-03-17T09:46:22Z</time>
      </trkpt>
      <trkpt lat="44.10971" lon="7.06218">
        <ele>1722.338</ele>
        <time>2012-03-17T09:46:25Z</time>
      </trkpt>
      <trkpt lat="44.10972" lon="7.06214">
        <ele>1723.509</ele>
        <time>2012-03-17T09:46:27Z</time>
      </trkpt>
      <trkpt lat="44.10977" lon="7.06207">
        <ele>1723.81</ele>
        <time>2012-03-17T09:46:33Z</time>
      </trkpt>
      <trkpt lat="44.1098" lon="7.06203">
        <ele>1726.011</ele>
        <time>2012-03-17T09:46:36Z</time>
      </trkpt>
      <trkpt lat="44.10987" lon="7.0619">
        <ele>1730.653</ele>
        <time>2012-03-17T09:46:45Z</time>
      </trkpt>
      <trkpt lat="44.1099" lon="7.06181">
        <ele>1728.76</ele>
        <time>2012-03-17T09:46:51Z</time>
      </trkpt>
      <trkpt lat="44.10998" lon="7.06164">
        <ele>1725.178</ele>
        <time>2012-03-17T09:46:59Z</time>
      </trkpt>
      <trkpt lat="44.11007" lon="7.06147">
        <ele>1726</ele>
        <time>2012-03-17T09:47:08Z</time>
      </trkpt>
      <trkpt lat="44.11017" lon="7.06132">
        <ele>1728.682</ele>
        <time>2012-03-17T09:47:15Z</time>
      </trkpt>
      <trkpt lat="44.11025" lon="7.06121">
        <ele>1728.269</ele>
        <time>2012-03-17T09:47:24Z</time>
      </trkpt>
      <trkpt lat="44.1103" lon="7.06115">
        <ele>1730.832</ele>
        <time>2012-03-17T09:47:29Z</time>
      </trkpt>
      <trkpt lat="44.11039" lon="7.061">
        <ele>1733.651</ele>
        <time>2012-03-17T09:47:38Z</time>
      </trkpt>
      <trkpt lat="44.11043" lon="7.06088">
        <ele>1732.338</ele>
        <time>2012-03-17T09:47:44Z</time>
      </trkpt>
      <trkpt lat="44.1105" lon="7.06078">
        <ele>1734.892</ele>
        <time>2012-03-17T09:47:50Z</time>
      </trkpt>
      <trkpt lat="44.11054" lon="7.06069">
        <ele>1738.976</ele>
        <time>2012-03-17T09:47:56Z</time>
      </trkpt>
      <trkpt lat="44.11058" lon="7.06058">
        <ele>1742.827</ele>
        <time>2012-03-17T09:48:03Z</time>
      </trkpt>
      <trkpt lat="44.1106" lon="7.06053">
        <ele>1744.375</ele>
        <time>2012-03-17T09:48:06Z</time>
      </trkpt>
      <trkpt lat="44.11062" lon="7.06037">
        <ele>1743.592</ele>
        <time>2012-03-17T09:48:14Z</time>
      </trkpt>
      <trkpt lat="44.11065" lon="7.0603">
        <ele>1744.432</ele>
        <time>2012-03-17T09:48:18Z</time>
      </trkpt>
      <trkpt lat="44.11073" lon="7.06017">
        <ele>1746.063</ele>
        <time>2012-03-17T09:48:25Z</time>
      </trkpt>
      <trkpt lat="44.11078" lon="7.06005">
        <ele>1745.03</ele>
        <time>2012-03-17T09:48:32Z</time>
      </trkpt>
      <trkpt lat="44.11078" lon="7.06005">
        <ele>1744.479</ele>
        <time>2012-03-17T09:48:33Z</time>
      </trkpt>
      <trkpt lat="44.11079" lon="7.06002">
        <ele>1743.538</ele>
        <time>2012-03-17T09:48:35Z</time>
      </trkpt>
      <trkpt lat="44.11083" lon="7.05996">
        <ele>1743.839</ele>
        <time>2012-03-17T09:48:39Z</time>
      </trkpt>
      <trkpt lat="44.11086" lon="7.05983">
        <ele>1744.45</ele>
        <time>2012-03-17T09:48:48Z</time>
      </trkpt>
      <trkpt lat="44.1109" lon="7.05973">
        <ele>1745.261</ele>
        <time>2012-03-17T09:48:55Z</time>
      </trkpt>
      <trkpt lat="44.11094" lon="7.05964">
        <ele>1747.751</ele>
        <time>2012-03-17T09:49:01Z</time>
      </trkpt>
      <trkpt lat="44.11098" lon="7.05956">
        <ele>1748.711</ele>
        <time>2012-03-17T09:49:05Z</time>
      </trkpt>
      <trkpt lat="44.11104" lon="7.05944">
        <ele>1754.014</ele>
        <time>2012-03-17T09:49:13Z</time>
      </trkpt>
      <trkpt lat="44.11108" lon="7.05935">
        <ele>1755.803</ele>
        <time>2012-03-17T09:49:20Z</time>
      </trkpt>
      <trkpt lat="44.11112" lon="7.05924">
        <ele>1758.462</ele>
        <time>2012-03-17T09:49:27Z</time>
      </trkpt>
      <trkpt lat="44.11114" lon="7.05918">
        <ele>1757.949</ele>
        <time>2012-03-17T09:49:33Z</time>
      </trkpt>
      <trkpt lat="44.11119" lon="7.05912">
        <ele>1758.638</ele>
        <time>2012-03-17T09:49:40Z</time>
      </trkpt>
      <trkpt lat="44.11125" lon="7.05899">
        <ele>1752.179</ele>
        <time>2012-03-17T09:49:53Z</time>
      </trkpt>
      <trkpt lat="44.11129" lon="7.05888">
        <ele>1753.889</ele>
        <time>2012-03-17T09:50:01Z</time>
      </trkpt>
      <trkpt lat="44.11128" lon="7.05885">
        <ele>1754.54</ele>
        <time>2012-03-17T09:50:07Z</time>
      </trkpt>
      <trkpt lat="44.11134" lon="7.05878">
        <ele>1759.412</ele>
        <time>2012-03-17T09:50:14Z</time>
      </trkpt>
      <trkpt lat="44.11141" lon="7.05867">
        <ele>1763.262</ele>
        <time>2012-03-17T09:50:24Z</time>
      </trkpt>
      <trkpt lat="44.11144" lon="7.05861">
        <ele>1764.974</ele>
        <time>2012-03-17T09:50:29Z</time>
      </trkpt>
      <trkpt lat="44.11148" lon="7.05856">
        <ele>1767.856</ele>
        <time>2012-03-17T09:50:37Z</time>
      </trkpt>
      <trkpt lat="44.11149" lon="7.05855">
        <ele>1767.312</ele>
        <time>2012-03-17T09:50:40Z</time>
      </trkpt>
      <trkpt lat="44.11155" lon="7.05847">
        <ele>1767.081</ele>
        <time>2012-03-17T09:50:48Z</time>
      </trkpt>
      <trkpt lat="44.11157" lon="7.05844">
        <ele>1768.001</ele>
        <time>2012-03-17T09:50:52Z</time>
      </trkpt>
      <trkpt lat="44.11161" lon="7.05841">
        <ele>1768.091</ele>
        <time>2012-03-17T09:50:56Z</time>
      </trkpt>
      <trkpt lat="44.11167" lon="7.05835">
        <ele>1768.872</ele>
        <time>2012-03-17T09:51:03Z</time>
      </trkpt>
      <trkpt lat="44.11173" lon="7.05828">
        <ele>1769.129</ele>
        <time>2012-03-17T09:51:10Z</time>
      </trkpt>
      <trkpt lat="44.11175" lon="7.05823">
        <ele>1766.087</ele>
        <time>2012-03-17T09:51:16Z</time>
      </trkpt>
      <trkpt lat="44.11178" lon="7.05818">
        <ele>1765.266</ele>
        <time>2012-03-17T09:51:23Z</time>
      </trkpt>
      <trkpt lat="44.11186" lon="7.05808">
        <ele>1766.93</ele>
        <time>2012-03-17T09:51:30Z</time>
      </trkpt>
      <trkpt lat="44.11192" lon="7.05796">
        <ele>1768.31</ele>
        <time>2012-03-17T09:51:38Z</time>
      </trkpt>
      <trkpt lat="44.11197" lon="7.05792">
        <ele>1770.35</ele>
        <time>2012-03-17T09:51:44Z</time>
      </trkpt>
      <trkpt lat="44.11199" lon="7.05795">
        <ele>1776.44</ele>
        <time>2012-03-17T09:51:53Z</time>
      </trkpt>
      <trkpt lat="44.11203" lon="7.05786">
        <ele>1780.078</ele>
        <time>2012-03-17T09:52:47Z</time>
      </trkpt>
      <trkpt lat="44.11203" lon="7.05783">
        <ele>1780.689</ele>
        <time>2012-03-17T09:52:52Z</time>
      </trkpt>
      <trkpt lat="44.11204" lon="7.05777">
        <ele>1781.231</ele>
        <time>2012-03-17T09:52:58Z</time>
      </trkpt>
      <trkpt lat="44.11204" lon="7.05775">
        <ele>1781.189</ele>
        <time>2012-03-17T09:53:02Z</time>
      </trkpt>
      <trkpt lat="44.11206" lon="7.0577">
        <ele>1782.322</ele>
        <time>2012-03-17T09:53:07Z</time>
      </trkpt>
      <trkpt lat="44.11208" lon="7.05763">
        <ele>1784.012</ele>
        <time>2012-03-17T09:53:15Z</time>
      </trkpt>
      <trkpt lat="44.11211" lon="7.05756">
        <ele>1784.789</ele>
        <time>2012-03-17T09:53:22Z</time>
      </trkpt>
      <trkpt lat="44.11211" lon="7.05752">
        <ele>1784.849</ele>
        <time>2012-03-17T09:53:29Z</time>
      </trkpt>
      <trkpt lat="44.11213" lon="7.0575">
        <ele>1785.99</ele>
        <time>2012-03-17T09:53:39Z</time>
      </trkpt>
      <trkpt lat="44.11217" lon="7.05745">
        <ele>1786.239</ele>
        <time>2012-03-17T09:53:46Z</time>
      </trkpt>
      <trkpt lat="44.11219" lon="7.05741">
        <ele>1786.551</ele>
        <time>2012-03-17T09:53:51Z</time>
      </trkpt>
      <trkpt lat="44.1122" lon="7.05738">
        <ele>1786.91</ele>
        <time>2012-03-17T09:53:54Z</time>
      </trkpt>
      <trkpt lat="44.11224" lon="7.0573">
        <ele>1788.631</ele>
        <time>2012-03-17T09:54:02Z</time>
      </trkpt>
      <trkpt lat="44.11226" lon="7.05725">
        <ele>1790.2</ele>
        <time>2012-03-17T09:54:08Z</time>
      </trkpt>
      <trkpt lat="44.11229" lon="7.05717">
        <ele>1790.499</ele>
        <time>2012-03-17T09:54:16Z</time>
      </trkpt>
      <trkpt lat="44.11235" lon="7.05705">
        <ele>1792.519</ele>
        <time>2012-03-17T09:54:27Z</time>
      </trkpt>
      <trkpt lat="44.11236" lon="7.05702">
        <ele>1792.679</ele>
        <time>2012-03-17T09:54:32Z</time>
      </trkpt>
      <trkpt lat="44.11239" lon="7.05698">
        <ele>1793.539</ele>
        <time>2012-03-17T09:54:36Z</time>
      </trkpt>
      <trkpt lat="44.11246" lon="7.05684">
        <ele>1792.817</ele>
        <time>2012-03-17T09:54:47Z</time>
      </trkpt>
      <trkpt lat="44.11251" lon="7.05674">
        <ele>1793.759</ele>
        <time>2012-03-17T09:54:56Z</time>
      </trkpt>
      <trkpt lat="44.11254" lon="7.05666">
        <ele>1794.999</ele>
        <time>2012-03-17T09:55:05Z</time>
      </trkpt>
      <trkpt lat="44.11251" lon="7.0566">
        <ele>1797.18</ele>
        <time>2012-03-17T09:55:13Z</time>
      </trkpt>
      <trkpt lat="44.11251" lon="7.05656">
        <ele>1797.82</ele>
        <time>2012-03-17T09:55:19Z</time>
      </trkpt>
      <trkpt lat="44.1125" lon="7.05649">
        <ele>1799.05</ele>
        <time>2012-03-17T09:55:26Z</time>
      </trkpt>
      <trkpt lat="44.11252" lon="7.05644">
        <ele>1799.389</ele>
        <time>2012-03-17T09:55:30Z</time>
      </trkpt>
      <trkpt lat="44.11253" lon="7.05641">
        <ele>1799.629</ele>
        <time>2012-03-17T09:55:33Z</time>
      </trkpt>
      <trkpt lat="44.11256" lon="7.05635">
        <ele>1799.346</ele>
        <time>2012-03-17T09:55:40Z</time>
      </trkpt>
      <trkpt lat="44.11257" lon="7.05633">
        <ele>1799.328</ele>
        <time>2012-03-17T09:55:48Z</time>
      </trkpt>
      <trkpt lat="44.1126" lon="7.05631">
        <ele>1800.929</ele>
        <time>2012-03-17T09:56:02Z</time>
      </trkpt>
      <trkpt lat="44.11264" lon="7.05626">
        <ele>1799.885</ele>
        <time>2012-03-17T09:56:09Z</time>
      </trkpt>
      <trkpt lat="44.11268" lon="7.05622">
        <ele>1799.176</ele>
        <time>2012-03-17T09:56:13Z</time>
      </trkpt>
      <trkpt lat="44.1127" lon="7.05614">
        <ele>1799.597</ele>
        <time>2012-03-17T09:56:17Z</time>
      </trkpt>
      <trkpt lat="44.11279" lon="7.0561">
        <ele>1802.269</ele>
        <time>2012-03-17T09:56:25Z</time>
      </trkpt>
      <trkpt lat="44.11288" lon="7.056">
        <ele>1801.759</ele>
        <time>2012-03-17T09:56:33Z</time>
      </trkpt>
      <trkpt lat="44.11297" lon="7.0559">
        <ele>1802.042</ele>
        <time>2012-03-17T09:56:40Z</time>
      </trkpt>
      <trkpt lat="44.11303" lon="7.05586">
        <ele>1803.723</ele>
        <time>2012-03-17T09:56:45Z</time>
      </trkpt>
      <trkpt lat="44.11312" lon="7.05577">
        <ele>1811.091</ele>
        <time>2012-03-17T09:57:00Z</time>
      </trkpt>
      <trkpt lat="44.11316" lon="7.05576">
        <ele>1813.481</ele>
        <time>2012-03-17T09:57:08Z</time>
      </trkpt>
      <trkpt lat="44.11319" lon="7.05569">
        <ele>1812.82</ele>
        <time>2012-03-17T09:57:14Z</time>
      </trkpt>
      <trkpt lat="44.11322" lon="7.05565">
        <ele>1813.03</ele>
        <time>2012-03-17T09:57:20Z</time>
      </trkpt>
      <trkpt lat="44.11326" lon="7.05559">
        <ele>1811.207</ele>
        <time>2012-03-17T09:57:27Z</time>
      </trkpt>
      <trkpt lat="44.11327" lon="7.0556">
        <ele>1811.407</ele>
        <time>2012-03-17T09:57:29Z</time>
      </trkpt>
      <trkpt lat="44.11332" lon="7.05554">
        <ele>1811.057</ele>
        <time>2012-03-17T09:57:35Z</time>
      </trkpt>
      <trkpt lat="44.11342" lon="7.05543">
        <ele>1811.629</ele>
        <time>2012-03-17T09:57:43Z</time>
      </trkpt>
      <trkpt lat="44.11349" lon="7.05538">
        <ele>1813.993</ele>
        <time>2012-03-17T09:57:47Z</time>
      </trkpt>
      <trkpt lat="44.11355" lon="7.05533">
        <ele>1815.503</ele>
        <time>2012-03-17T09:57:54Z</time>
      </trkpt>
      <trkpt lat="44.1136" lon="7.05528">
        <ele>1817.73</ele>
        <time>2012-03-17T09:58:00Z</time>
      </trkpt>
      <trkpt lat="44.11364" lon="7.05523">
        <ele>1817.808</ele>
        <time>2012-03-17T09:58:09Z</time>
      </trkpt>
      <trkpt lat="44.11366" lon="7.05521">
        <ele>1818.159</ele>
        <time>2012-03-17T09:58:13Z</time>
      </trkpt>
      <trkpt lat="44.11368" lon="7.05517">
        <ele>1819.05</ele>
        <time>2012-03-17T09:58:20Z</time>
      </trkpt>
      <trkpt lat="44.11371" lon="7.05514">
        <ele>1818.177</ele>
        <time>2012-03-17T09:58:24Z</time>
      </trkpt>
      <trkpt lat="44.11376" lon="7.05502">
        <ele>1819.159</ele>
        <time>2012-03-17T09:58:33Z</time>
      </trkpt>
      <trkpt lat="44.1138" lon="7.05497">
        <ele>1819.729</ele>
        <time>2012-03-17T09:58:39Z</time>
      </trkpt>
      <trkpt lat="44.11384" lon="7.0549">
        <ele>1819.137</ele>
        <time>2012-03-17T09:58:45Z</time>
      </trkpt>
      <trkpt lat="44.11386" lon="7.05488">
        <ele>1819.318</ele>
        <time>2012-03-17T09:58:48Z</time>
      </trkpt>
      <trkpt lat="44.1139" lon="7.05484">
        <ele>1819.468</ele>
        <time>2012-03-17T09:58:52Z</time>
      </trkpt>
      <trkpt lat="44.11397" lon="7.0548">
        <ele>1823.411</ele>
        <time>2012-03-17T09:58:59Z</time>
      </trkpt>
      <trkpt lat="44.11401" lon="7.05474">
        <ele>1825.331</ele>
        <time>2012-03-17T09:59:06Z</time>
      </trkpt>
      <trkpt lat="44.11405" lon="7.05469">
        <ele>1827.3</ele>
        <time>2012-03-17T09:59:12Z</time>
      </trkpt>
      <trkpt lat="44.11407" lon="7.05461">
        <ele>1826.509</ele>
        <time>2012-03-17T09:59:20Z</time>
      </trkpt>
      <trkpt lat="44.11409" lon="7.05455">
        <ele>1827.63</ele>
        <time>2012-03-17T09:59:27Z</time>
      </trkpt>
      <trkpt lat="44.11413" lon="7.05449">
        <ele>1830.23</ele>
        <time>2012-03-17T09:59:36Z</time>
      </trkpt>
      <trkpt lat="44.11418" lon="7.05446">
        <ele>1833.482</ele>
        <time>2012-03-17T09:59:57Z</time>
      </trkpt>
      <trkpt lat="44.11425" lon="7.05443">
        <ele>1835.962</ele>
        <time>2012-03-17T10:00:06Z</time>
      </trkpt>
      <trkpt lat="44.11427" lon="7.05439">
        <ele>1837.451</ele>
        <time>2012-03-17T10:00:12Z</time>
      </trkpt>
      <trkpt lat="44.11431" lon="7.0543">
        <ele>1839.561</ele>
        <time>2012-03-17T10:00:21Z</time>
      </trkpt>
      <trkpt lat="44.11435" lon="7.05427">
        <ele>1840.72</ele>
        <time>2012-03-17T10:00:28Z</time>
      </trkpt>
      <trkpt lat="44.11437" lon="7.05423">
        <ele>1841.09</ele>
        <time>2012-03-17T10:00:34Z</time>
      </trkpt>
      <trkpt lat="44.11439" lon="7.05421">
        <ele>1842.4</ele>
        <time>2012-03-17T10:00:42Z</time>
      </trkpt>
      <trkpt lat="44.11441" lon="7.05419">
        <ele>1843.58</ele>
        <time>2012-03-17T10:00:48Z</time>
      </trkpt>
      <trkpt lat="44.11444" lon="7.05419">
        <ele>1843.64</ele>
        <time>2012-03-17T10:00:55Z</time>
      </trkpt>
      <trkpt lat="44.11447" lon="7.0542">
        <ele>1843.289</ele>
        <time>2012-03-17T10:01:01Z</time>
      </trkpt>
      <trkpt lat="44.11449" lon="7.05416">
        <ele>1843.08</ele>
        <time>2012-03-17T10:01:06Z</time>
      </trkpt>
      <trkpt lat="44.11451" lon="7.05413">
        <ele>1843.09</ele>
        <time>2012-03-17T10:01:13Z</time>
      </trkpt>
      <trkpt lat="44.11453" lon="7.05411">
        <ele>1843.273</ele>
        <time>2012-03-17T10:01:18Z</time>
      </trkpt>
      <trkpt lat="44.11456" lon="7.05409">
        <ele>1843.717</ele>
        <time>2012-03-17T10:01:25Z</time>
      </trkpt>
      <trkpt lat="44.11457" lon="7.05406">
        <ele>1843.942</ele>
        <time>2012-03-17T10:01:31Z</time>
      </trkpt>
      <trkpt lat="44.11461" lon="7.05401">
        <ele>1845.248</ele>
        <time>2012-03-17T10:01:39Z</time>
      </trkpt>
      <trkpt lat="44.11463" lon="7.05399">
        <ele>1846.406</ele>
        <time>2012-03-17T10:01:45Z</time>
      </trkpt>
      <trkpt lat="44.11465" lon="7.05396">
        <ele>1847.427</ele>
        <time>2012-03-17T10:01:51Z</time>
      </trkpt>
      <trkpt lat="44.11468" lon="7.05395">
        <ele>1848.003</ele>
        <time>2012-03-17T10:01:57Z</time>
      </trkpt>
      <trkpt lat="44.11471" lon="7.05397">
        <ele>1848.412</ele>
        <time>2012-03-17T10:02:04Z</time>
      </trkpt>
      <trkpt lat="44.11475" lon="7.05397">
        <ele>1849.564</ele>
        <time>2012-03-17T10:02:11Z</time>
      </trkpt>
      <trkpt lat="44.11479" lon="7.05399">
        <ele>1851.167</ele>
        <time>2012-03-17T10:02:19Z</time>
      </trkpt>
      <trkpt lat="44.11481" lon="7.05395">
        <ele>1852.692</ele>
        <time>2012-03-17T10:02:25Z</time>
      </trkpt>
      <trkpt lat="44.11485" lon="7.05389">
        <ele>1853.832</ele>
        <time>2012-03-17T10:02:33Z</time>
      </trkpt>
      <trkpt lat="44.11489" lon="7.05383">
        <ele>1855.144</ele>
        <time>2012-03-17T10:02:41Z</time>
      </trkpt>
      <trkpt lat="44.11493" lon="7.05376">
        <ele>1855.904</ele>
        <time>2012-03-17T10:02:48Z</time>
      </trkpt>
      <trkpt lat="44.11497" lon="7.05373">
        <ele>1857.186</ele>
        <time>2012-03-17T10:02:55Z</time>
      </trkpt>
      <trkpt lat="44.115" lon="7.05374">
        <ele>1858.7</ele>
        <time>2012-03-17T10:03:01Z</time>
      </trkpt>
      <trkpt lat="44.11504" lon="7.05377">
        <ele>1860.297</ele>
        <time>2012-03-17T10:03:11Z</time>
      </trkpt>
      <trkpt lat="44.11507" lon="7.0538">
        <ele>1860.633</ele>
        <time>2012-03-17T10:03:17Z</time>
      </trkpt>
      <trkpt lat="44.11513" lon="7.05381">
        <ele>1862.298</ele>
        <time>2012-03-17T10:03:25Z</time>
      </trkpt>
      <trkpt lat="44.11513" lon="7.05381">
        <ele>1862.516</ele>
        <time>2012-03-17T10:03:26Z</time>
      </trkpt>
      <trkpt lat="44.11518" lon="7.05375">
        <ele>1863.43</ele>
        <time>2012-03-17T10:03:34Z</time>
      </trkpt>
      <trkpt lat="44.11524" lon="7.05369">
        <ele>1865.349</ele>
        <time>2012-03-17T10:03:45Z</time>
      </trkpt>
      <trkpt lat="44.11527" lon="7.05367">
        <ele>1866.309</ele>
        <time>2012-03-17T10:03:49Z</time>
      </trkpt>
      <trkpt lat="44.11531" lon="7.05365">
        <ele>1867.432</ele>
        <time>2012-03-17T10:03:56Z</time>
      </trkpt>
      <trkpt lat="44.11536" lon="7.05363">
        <ele>1868.916</ele>
        <time>2012-03-17T10:04:04Z</time>
      </trkpt>
      <trkpt lat="44.1154" lon="7.05358">
        <ele>1870.618</ele>
        <time>2012-03-17T10:04:13Z</time>
      </trkpt>
      <trkpt lat="44.11543" lon="7.05355">
        <ele>1871.513</ele>
        <time>2012-03-17T10:04:19Z</time>
      </trkpt>
      <trkpt lat="44.11549" lon="7.05353">
        <ele>1872.429</ele>
        <time>2012-03-17T10:04:26Z</time>
      </trkpt>
      <trkpt lat="44.11556" lon="7.05354">
        <ele>1873.802</ele>
        <time>2012-03-17T10:04:33Z</time>
      </trkpt>
      <trkpt lat="44.11556" lon="7.05353">
        <ele>1873.941</ele>
        <time>2012-03-17T10:04:34Z</time>
      </trkpt>
      <trkpt lat="44.11562" lon="7.05348">
        <ele>1875.655</ele>
        <time>2012-03-17T10:04:43Z</time>
      </trkpt>
      <trkpt lat="44.11568" lon="7.05342">
        <ele>1876.803</ele>
        <time>2012-03-17T10:04:51Z</time>
      </trkpt>
      <trkpt lat="44.11571" lon="7.05337">
        <ele>1877.981</ele>
        <time>2012-03-17T10:04:59Z</time>
      </trkpt>
      <trkpt lat="44.11573" lon="7.05331">
        <ele>1878.971</ele>
        <time>2012-03-17T10:05:07Z</time>
      </trkpt>
      <trkpt lat="44.11576" lon="7.05327">
        <ele>1880.201</ele>
        <time>2012-03-17T10:05:13Z</time>
      </trkpt>
      <trkpt lat="44.11577" lon="7.05322">
        <ele>1881.379</ele>
        <time>2012-03-17T10:05:20Z</time>
      </trkpt>
      <trkpt lat="44.11578" lon="7.05319">
        <ele>1882.233</ele>
        <time>2012-03-17T10:05:24Z</time>
      </trkpt>
      <trkpt lat="44.11578" lon="7.05315">
        <ele>1881.967</ele>
        <time>2012-03-17T10:05:30Z</time>
      </trkpt>
      <trkpt lat="44.11578" lon="7.05315">
        <ele>1881.658</ele>
        <time>2012-03-17T10:05:39Z</time>
      </trkpt>
      <trkpt lat="44.11574" lon="7.05315">
        <ele>1888.295</ele>
        <time>2012-03-17T10:12:43Z</time>
      </trkpt>
      <trkpt lat="44.11575" lon="7.05315">
        <ele>1888.779</ele>
        <time>2012-03-17T10:12:50Z</time>
      </trkpt>
      <trkpt lat="44.11579" lon="7.05313">
        <ele>1889.801</ele>
        <time>2012-03-17T10:12:54Z</time>
      </trkpt>
      <trkpt lat="44.11587" lon="7.05305">
        <ele>1890.86</ele>
        <time>2012-03-17T10:13:01Z</time>
      </trkpt>
      <trkpt lat="44.11595" lon="7.05295">
        <ele>1891.442</ele>
        <time>2012-03-17T10:13:09Z</time>
      </trkpt>
      <trkpt lat="44.11601" lon="7.05287">
        <ele>1893.068</ele>
        <time>2012-03-17T10:13:16Z</time>
      </trkpt>
      <trkpt lat="44.11607" lon="7.0528">
        <ele>1894.691</ele>
        <time>2012-03-17T10:13:23Z</time>
      </trkpt>
      <trkpt lat="44.11616" lon="7.05272">
        <ele>1895.479</ele>
        <time>2012-03-17T10:13:30Z</time>
      </trkpt>
      <trkpt lat="44.11625" lon="7.05267">
        <ele>1896.972</ele>
        <time>2012-03-17T10:13:35Z</time>
      </trkpt>
      <trkpt lat="44.1163" lon="7.05263">
        <ele>1897.021</ele>
        <time>2012-03-17T10:13:39Z</time>
      </trkpt>
      <trkpt lat="44.11635" lon="7.05257">
        <ele>1898.941</ele>
        <time>2012-03-17T10:13:46Z</time>
      </trkpt>
      <trkpt lat="44.11639" lon="7.05252">
        <ele>1903.012</ele>
        <time>2012-03-17T10:13:54Z</time>
      </trkpt>
      <trkpt lat="44.11642" lon="7.05248">
        <ele>1904.443</ele>
        <time>2012-03-17T10:14:01Z</time>
      </trkpt>
      <trkpt lat="44.11644" lon="7.05244">
        <ele>1904.168</ele>
        <time>2012-03-17T10:14:05Z</time>
      </trkpt>
      <trkpt lat="44.11649" lon="7.05236">
        <ele>1902.469</ele>
        <time>2012-03-17T10:14:13Z</time>
      </trkpt>
      <trkpt lat="44.11652" lon="7.05232">
        <ele>1903.168</ele>
        <time>2012-03-17T10:14:20Z</time>
      </trkpt>
      <trkpt lat="44.11658" lon="7.05227">
        <ele>1902.378</ele>
        <time>2012-03-17T10:14:27Z</time>
      </trkpt>
      <trkpt lat="44.11668" lon="7.05222">
        <ele>1904.27</ele>
        <time>2012-03-17T10:14:32Z</time>
      </trkpt>
      <trkpt lat="44.11672" lon="7.05217">
        <ele>1902.93</ele>
        <time>2012-03-17T10:14:38Z</time>
      </trkpt>
      <trkpt lat="44.11674" lon="7.05215">
        <ele>1903.677</ele>
        <time>2012-03-17T10:14:40Z</time>
      </trkpt>
      <trkpt lat="44.11679" lon="7.05212">
        <ele>1905.811</ele>
        <time>2012-03-17T10:14:46Z</time>
      </trkpt>
      <trkpt lat="44.1168" lon="7.05206">
        <ele>1908.35</ele>
        <time>2012-03-17T10:15:03Z</time>
      </trkpt>
      <trkpt lat="44.11683" lon="7.052">
        <ele>1910.45</ele>
        <time>2012-03-17T10:15:10Z</time>
      </trkpt>
      <trkpt lat="44.11687" lon="7.05196">
        <ele>1911.061</ele>
        <time>2012-03-17T10:15:17Z</time>
      </trkpt>
      <trkpt lat="44.11688" lon="7.05194">
        <ele>1911.404</ele>
        <time>2012-03-17T10:15:19Z</time>
      </trkpt>
      <trkpt lat="44.11693" lon="7.05185">
        <ele>1911.836</ele>
        <time>2012-03-17T10:15:28Z</time>
      </trkpt>
      <trkpt lat="44.11696" lon="7.0518">
        <ele>1911.408</ele>
        <time>2012-03-17T10:15:35Z</time>
      </trkpt>
      <trkpt lat="44.11702" lon="7.05173">
        <ele>1912.125</ele>
        <time>2012-03-17T10:15:43Z</time>
      </trkpt>
      <trkpt lat="44.11704" lon="7.05169">
        <ele>1912.057</ele>
        <time>2012-03-17T10:15:48Z</time>
      </trkpt>
      <trkpt lat="44.11708" lon="7.0516">
        <ele>1913.097</ele>
        <time>2012-03-17T10:15:55Z</time>
      </trkpt>
      <trkpt lat="44.11711" lon="7.05149">
        <ele>1913.338</ele>
        <time>2012-03-17T10:16:03Z</time>
      </trkpt>
      <trkpt lat="44.11716" lon="7.05141">
        <ele>1913.957</ele>
        <time>2012-03-17T10:16:12Z</time>
      </trkpt>
      <trkpt lat="44.11718" lon="7.05134">
        <ele>1914.988</ele>
        <time>2012-03-17T10:16:20Z</time>
      </trkpt>
      <trkpt lat="44.1172" lon="7.0513">
        <ele>1915.529</ele>
        <time>2012-03-17T10:16:24Z</time>
      </trkpt>
      <trkpt lat="44.11721" lon="7.05125">
        <ele>1916.651</ele>
        <time>2012-03-17T10:16:27Z</time>
      </trkpt>
      <trkpt lat="44.11723" lon="7.05121">
        <ele>1917.489</ele>
        <time>2012-03-17T10:16:30Z</time>
      </trkpt>
      <trkpt lat="44.11723" lon="7.05117">
        <ele>1917.999</ele>
        <time>2012-03-17T10:16:33Z</time>
      </trkpt>
      <trkpt lat="44.11726" lon="7.0511">
        <ele>1918.387</ele>
        <time>2012-03-17T10:16:39Z</time>
      </trkpt>
      <trkpt lat="44.11734" lon="7.05096">
        <ele>1919.57</ele>
        <time>2012-03-17T10:16:50Z</time>
      </trkpt>
      <trkpt lat="44.11739" lon="7.05092">
        <ele>1920.949</ele>
        <time>2012-03-17T10:16:56Z</time>
      </trkpt>
      <trkpt lat="44.11741" lon="7.05091">
        <ele>1921.627</ele>
        <time>2012-03-17T10:17:00Z</time>
      </trkpt>
      <trkpt lat="44.11742" lon="7.05089">
        <ele>1921.628</ele>
        <time>2012-03-17T10:17:02Z</time>
      </trkpt>
      <trkpt lat="44.11744" lon="7.05085">
        <ele>1922.068</ele>
        <time>2012-03-17T10:17:06Z</time>
      </trkpt>
      <trkpt lat="44.11749" lon="7.05076">
        <ele>1922.271</ele>
        <time>2012-03-17T10:17:14Z</time>
      </trkpt>
      <trkpt lat="44.11753" lon="7.05073">
        <ele>1922.788</ele>
        <time>2012-03-17T10:17:19Z</time>
      </trkpt>
      <trkpt lat="44.11756" lon="7.05069">
        <ele>1923.309</ele>
        <time>2012-03-17T10:17:23Z</time>
      </trkpt>
      <trkpt lat="44.11765" lon="7.05065">
        <ele>1924.662</ele>
        <time>2012-03-17T10:17:32Z</time>
      </trkpt>
      <trkpt lat="44.11772" lon="7.05059">
        <ele>1925.499</ele>
        <time>2012-03-17T10:17:41Z</time>
      </trkpt>
      <trkpt lat="44.11773" lon="7.05057">
        <ele>1925.819</ele>
        <time>2012-03-17T10:17:45Z</time>
      </trkpt>
      <trkpt lat="44.11782" lon="7.05053">
        <ele>1926.46</ele>
        <time>2012-03-17T10:17:54Z</time>
      </trkpt>
      <trkpt lat="44.11785" lon="7.05053">
        <ele>1926.948</ele>
        <time>2012-03-17T10:17:58Z</time>
      </trkpt>
      <trkpt lat="44.11791" lon="7.05043">
        <ele>1928.21</ele>
        <time>2012-03-17T10:18:08Z</time>
      </trkpt>
      <trkpt lat="44.11792" lon="7.05042">
        <ele>1928.289</ele>
        <time>2012-03-17T10:18:09Z</time>
      </trkpt>
      <trkpt lat="44.11793" lon="7.05037">
        <ele>1928.83</ele>
        <time>2012-03-17T10:18:14Z</time>
      </trkpt>
      <trkpt lat="44.118" lon="7.05028">
        <ele>1930.37</ele>
        <time>2012-03-17T10:18:24Z</time>
      </trkpt>
      <trkpt lat="44.11807" lon="7.05021">
        <ele>1930.568</ele>
        <time>2012-03-17T10:18:33Z</time>
      </trkpt>
      <trkpt lat="44.11816" lon="7.05014">
        <ele>1933.153</ele>
        <time>2012-03-17T10:18:42Z</time>
      </trkpt>
      <trkpt lat="44.11821" lon="7.05008">
        <ele>1933.373</ele>
        <time>2012-03-17T10:18:49Z</time>
      </trkpt>
      <trkpt lat="44.11828" lon="7.05003">
        <ele>1933.167</ele>
        <time>2012-03-17T10:18:56Z</time>
      </trkpt>
      <trkpt lat="44.11835" lon="7.04998">
        <ele>1934.229</ele>
        <time>2012-03-17T10:19:03Z</time>
      </trkpt>
      <trkpt lat="44.11844" lon="7.04992">
        <ele>1935.618</ele>
        <time>2012-03-17T10:19:12Z</time>
      </trkpt>
      <trkpt lat="44.11852" lon="7.04983">
        <ele>1935.798</ele>
        <time>2012-03-17T10:19:21Z</time>
      </trkpt>
      <trkpt lat="44.11854" lon="7.04982">
        <ele>1936.409</ele>
        <time>2012-03-17T10:19:23Z</time>
      </trkpt>
      <trkpt lat="44.11856" lon="7.04979">
        <ele>1937.25</ele>
        <time>2012-03-17T10:19:27Z</time>
      </trkpt>
      <trkpt lat="44.11861" lon="7.04972">
        <ele>1938.499</ele>
        <time>2012-03-17T10:19:35Z</time>
      </trkpt>
      <trkpt lat="44.11863" lon="7.04973">
        <ele>1939.44</ele>
        <time>2012-03-17T10:19:39Z</time>
      </trkpt>
      <trkpt lat="44.11867" lon="7.04973">
        <ele>1941.267</ele>
        <time>2012-03-17T10:19:45Z</time>
      </trkpt>
      <trkpt lat="44.11867" lon="7.04974">
        <ele>1941.25</ele>
        <time>2012-03-17T10:19:46Z</time>
      </trkpt>
      <trkpt lat="44.11871" lon="7.04977">
        <ele>1942.83</ele>
        <time>2012-03-17T10:19:51Z</time>
      </trkpt>
      <trkpt lat="44.11875" lon="7.04975">
        <ele>1944.031</ele>
        <time>2012-03-17T10:19:55Z</time>
      </trkpt>
      <trkpt lat="44.11881" lon="7.04966">
        <ele>1944.495</ele>
        <time>2012-03-17T10:20:03Z</time>
      </trkpt>
      <trkpt lat="44.1189" lon="7.04962">
        <ele>1945.367</ele>
        <time>2012-03-17T10:20:12Z</time>
      </trkpt>
      <trkpt lat="44.11898" lon="7.04961">
        <ele>1945.642</ele>
        <time>2012-03-17T10:20:19Z</time>
      </trkpt>
      <trkpt lat="44.11907" lon="7.04959">
        <ele>1946.083</ele>
        <time>2012-03-17T10:20:28Z</time>
      </trkpt>
      <trkpt lat="44.11915" lon="7.04959">
        <ele>1947.344</ele>
        <time>2012-03-17T10:20:38Z</time>
      </trkpt>
      <trkpt lat="44.11919" lon="7.04956">
        <ele>1949.69</ele>
        <time>2012-03-17T10:20:46Z</time>
      </trkpt>
      <trkpt lat="44.11921" lon="7.04953">
        <ele>1950.19</ele>
        <time>2012-03-17T10:20:52Z</time>
      </trkpt>
      <trkpt lat="44.11923" lon="7.04951">
        <ele>1950.524</ele>
        <time>2012-03-17T10:20:56Z</time>
      </trkpt>
      <trkpt lat="44.11927" lon="7.04947">
        <ele>1951.03</ele>
        <time>2012-03-17T10:21:04Z</time>
      </trkpt>
      <trkpt lat="44.1193" lon="7.04941">
        <ele>1951.83</ele>
        <time>2012-03-17T10:21:11Z</time>
      </trkpt>
      <trkpt lat="44.1193" lon="7.04936">
        <ele>1952.984</ele>
        <time>2012-03-17T10:21:18Z</time>
      </trkpt>
      <trkpt lat="44.11932" lon="7.04933">
        <ele>1954.601</ele>
        <time>2012-03-17T10:21:25Z</time>
      </trkpt>
      <trkpt lat="44.11935" lon="7.0493">
        <ele>1956.014</ele>
        <time>2012-03-17T10:21:31Z</time>
      </trkpt>
      <trkpt lat="44.11939" lon="7.04929">
        <ele>1957.541</ele>
        <time>2012-03-17T10:21:38Z</time>
      </trkpt>
      <trkpt lat="44.1194" lon="7.04926">
        <ele>1958.12</ele>
        <time>2012-03-17T10:21:44Z</time>
      </trkpt>
      <trkpt lat="44.11943" lon="7.04922">
        <ele>1959.781</ele>
        <time>2012-03-17T10:21:51Z</time>
      </trkpt>
      <trkpt lat="44.11946" lon="7.04918">
        <ele>1961.665</ele>
        <time>2012-03-17T10:21:58Z</time>
      </trkpt>
      <trkpt lat="44.1195" lon="7.04912">
        <ele>1962.689</ele>
        <time>2012-03-17T10:22:07Z</time>
      </trkpt>
      <trkpt lat="44.11955" lon="7.04906">
        <ele>1963.796</ele>
        <time>2012-03-17T10:22:16Z</time>
      </trkpt>
      <trkpt lat="44.1196" lon="7.04898">
        <ele>1964.688</ele>
        <time>2012-03-17T10:22:25Z</time>
      </trkpt>
      <trkpt lat="44.11961" lon="7.04897">
        <ele>1966.204</ele>
        <time>2012-03-17T10:22:32Z</time>
      </trkpt>
      <trkpt lat="44.11965" lon="7.04895">
        <ele>1969.028</ele>
        <time>2012-03-17T10:23:18Z</time>
      </trkpt>
      <trkpt lat="44.11968" lon="7.0489">
        <ele>1970.044</ele>
        <time>2012-03-17T10:23:28Z</time>
      </trkpt>
      <trkpt lat="44.1197" lon="7.04888">
        <ele>1971.28</ele>
        <time>2012-03-17T10:23:33Z</time>
      </trkpt>
      <trkpt lat="44.11973" lon="7.04886">
        <ele>1971.871</ele>
        <time>2012-03-17T10:23:39Z</time>
      </trkpt>
      <trkpt lat="44.11973" lon="7.04884">
        <ele>1974.594</ele>
        <time>2012-03-17T10:23:44Z</time>
      </trkpt>
      <trkpt lat="44.11977" lon="7.04874">
        <ele>1976.068</ele>
        <time>2012-03-17T10:23:52Z</time>
      </trkpt>
      <trkpt lat="44.1198" lon="7.04867">
        <ele>1978.503</ele>
        <time>2012-03-17T10:23:59Z</time>
      </trkpt>
      <trkpt lat="44.11983" lon="7.0486">
        <ele>1980.093</ele>
        <time>2012-03-17T10:24:07Z</time>
      </trkpt>
      <trkpt lat="44.11983" lon="7.04858">
        <ele>1980.495</ele>
        <time>2012-03-17T10:24:09Z</time>
      </trkpt>
      <trkpt lat="44.1199" lon="7.04848">
        <ele>1980.273</ele>
        <time>2012-03-17T10:24:19Z</time>
      </trkpt>
      <trkpt lat="44.11992" lon="7.04845">
        <ele>1980.116</ele>
        <time>2012-03-17T10:24:22Z</time>
      </trkpt>
      <trkpt lat="44.11995" lon="7.04838">
        <ele>1980.135</ele>
        <time>2012-03-17T10:24:27Z</time>
      </trkpt>
      <trkpt lat="44.12" lon="7.04831">
        <ele>1982.25</ele>
        <time>2012-03-17T10:24:34Z</time>
      </trkpt>
      <trkpt lat="44.12002" lon="7.04824">
        <ele>1985.472</ele>
        <time>2012-03-17T10:24:42Z</time>
      </trkpt>
      <trkpt lat="44.12003" lon="7.0482">
        <ele>1986.373</ele>
        <time>2012-03-17T10:24:45Z</time>
      </trkpt>
      <trkpt lat="44.12004" lon="7.04812">
        <ele>1986.98</ele>
        <time>2012-03-17T10:24:52Z</time>
      </trkpt>
      <trkpt lat="44.12006" lon="7.04804">
        <ele>1987.53</ele>
        <time>2012-03-17T10:24:59Z</time>
      </trkpt>
      <trkpt lat="44.12011" lon="7.04804">
        <ele>1984.735</ele>
        <time>2012-03-17T10:25:02Z</time>
      </trkpt>
      <trkpt lat="44.12017" lon="7.04799">
        <ele>1985.428</ele>
        <time>2012-03-17T10:25:10Z</time>
      </trkpt>
      <trkpt lat="44.12026" lon="7.04796">
        <ele>1981.545</ele>
        <time>2012-03-17T10:25:16Z</time>
      </trkpt>
      <trkpt lat="44.12028" lon="7.04793">
        <ele>1984.12</ele>
        <time>2012-03-17T10:25:22Z</time>
      </trkpt>
      <trkpt lat="44.12029" lon="7.0479">
        <ele>1984.309</ele>
        <time>2012-03-17T10:25:29Z</time>
      </trkpt>
      <trkpt lat="44.12029" lon="7.04789">
        <ele>1985.54</ele>
        <time>2012-03-17T10:25:34Z</time>
      </trkpt>
      <trkpt lat="44.12031" lon="7.04789">
        <ele>1986.21</ele>
        <time>2012-03-17T10:25:39Z</time>
      </trkpt>
      <trkpt lat="44.12032" lon="7.0479">
        <ele>1989.933</ele>
        <time>2012-03-17T10:25:48Z</time>
      </trkpt>
      <trkpt lat="44.12034" lon="7.04789">
        <ele>1991.441</ele>
        <time>2012-03-17T10:25:56Z</time>
      </trkpt>
      <trkpt lat="44.12037" lon="7.0479">
        <ele>1992.742</ele>
        <time>2012-03-17T10:26:01Z</time>
      </trkpt>
      <trkpt lat="44.12041" lon="7.04789">
        <ele>1993.09</ele>
        <time>2012-03-17T10:26:06Z</time>
      </trkpt>
      <trkpt lat="44.12046" lon="7.04788">
        <ele>1995.381</ele>
        <time>2012-03-17T10:26:13Z</time>
      </trkpt>
      <trkpt lat="44.12054" lon="7.04783">
        <ele>1995.538</ele>
        <time>2012-03-17T10:26:21Z</time>
      </trkpt>
      <trkpt lat="44.12064" lon="7.04783">
        <ele>1993.228</ele>
        <time>2012-03-17T10:26:32Z</time>
      </trkpt>
      <trkpt lat="44.12067" lon="7.0478">
        <ele>1992.708</ele>
        <time>2012-03-17T10:26:37Z</time>
      </trkpt>
      <trkpt lat="44.12074" lon="7.04778">
        <ele>1994.129</ele>
        <time>2012-03-17T10:26:46Z</time>
      </trkpt>
      <trkpt lat="44.12083" lon="7.04779">
        <ele>1994.479</ele>
        <time>2012-03-17T10:26:55Z</time>
      </trkpt>
      <trkpt lat="44.12087" lon="7.04778">
        <ele>1994.299</ele>
        <time>2012-03-17T10:27:02Z</time>
      </trkpt>
      <trkpt lat="44.12093" lon="7.04778">
        <ele>1995.481</ele>
        <time>2012-03-17T10:27:10Z</time>
      </trkpt>
      <trkpt lat="44.12099" lon="7.04779">
        <ele>1997.14</ele>
        <time>2012-03-17T10:27:19Z</time>
      </trkpt>
      <trkpt lat="44.12104" lon="7.0478">
        <ele>1998.25</ele>
        <time>2012-03-17T10:27:27Z</time>
      </trkpt>
      <trkpt lat="44.12108" lon="7.04779">
        <ele>2000.819</ele>
        <time>2012-03-17T10:27:35Z</time>
      </trkpt>
      <trkpt lat="44.12115" lon="7.04779">
        <ele>2001.87</ele>
        <time>2012-03-17T10:27:44Z</time>
      </trkpt>
      <trkpt lat="44.12122" lon="7.04776">
        <ele>2003.819</ele>
        <time>2012-03-17T10:27:53Z</time>
      </trkpt>
      <trkpt lat="44.12128" lon="7.04774">
        <ele>2004.07</ele>
        <time>2012-03-17T10:28:01Z</time>
      </trkpt>
      <trkpt lat="44.12133" lon="7.04776">
        <ele>2004.92</ele>
        <time>2012-03-17T10:28:09Z</time>
      </trkpt>
      <trkpt lat="44.12137" lon="7.0478">
        <ele>2005.821</ele>
        <time>2012-03-17T10:28:17Z</time>
      </trkpt>
      <trkpt lat="44.12142" lon="7.04781">
        <ele>2008.531</ele>
        <time>2012-03-17T10:28:26Z</time>
      </trkpt>
      <trkpt lat="44.12148" lon="7.04781">
        <ele>2011.451</ele>
        <time>2012-03-17T10:28:37Z</time>
      </trkpt>
      <trkpt lat="44.12155" lon="7.04778">
        <ele>2012.199</ele>
        <time>2012-03-17T10:28:46Z</time>
      </trkpt>
      <trkpt lat="44.12162" lon="7.04779">
        <ele>2013.261</ele>
        <time>2012-03-17T10:28:55Z</time>
      </trkpt>
      <trkpt lat="44.12166" lon="7.04781">
        <ele>2014.791</ele>
        <time>2012-03-17T10:29:02Z</time>
      </trkpt>
      <trkpt lat="44.12168" lon="7.04783">
        <ele>2014.758</ele>
        <time>2012-03-17T10:29:09Z</time>
      </trkpt>
      <trkpt lat="44.1217" lon="7.04782">
        <ele>2015.448</ele>
        <time>2012-03-17T10:29:18Z</time>
      </trkpt>
      <trkpt lat="44.12175" lon="7.04784">
        <ele>2016.079</ele>
        <time>2012-03-17T10:29:41Z</time>
      </trkpt>
      <trkpt lat="44.12181" lon="7.04787">
        <ele>2016.72</ele>
        <time>2012-03-17T10:29:49Z</time>
      </trkpt>
      <trkpt lat="44.12187" lon="7.04795">
        <ele>2016.129</ele>
        <time>2012-03-17T10:29:57Z</time>
      </trkpt>
      <trkpt lat="44.12192" lon="7.04798">
        <ele>2018.142</ele>
        <time>2012-03-17T10:30:04Z</time>
      </trkpt>
      <trkpt lat="44.12197" lon="7.04803">
        <ele>2021.561</ele>
        <time>2012-03-17T10:30:12Z</time>
      </trkpt>
      <trkpt lat="44.12198" lon="7.04804">
        <ele>2023.855</ele>
        <time>2012-03-17T10:30:18Z</time>
      </trkpt>
      <trkpt lat="44.12203" lon="7.04805">
        <ele>2024.831</ele>
        <time>2012-03-17T10:30:25Z</time>
      </trkpt>
      <trkpt lat="44.12205" lon="7.04806">
        <ele>2026.291</ele>
        <time>2012-03-17T10:30:30Z</time>
      </trkpt>
      <trkpt lat="44.12208" lon="7.04807">
        <ele>2025.358</ele>
        <time>2012-03-17T10:30:39Z</time>
      </trkpt>
      <trkpt lat="44.12211" lon="7.04808">
        <ele>2025.209</ele>
        <time>2012-03-17T10:30:51Z</time>
      </trkpt>
      <trkpt lat="44.1222" lon="7.04808">
        <ele>2026.62</ele>
        <time>2012-03-17T10:31:00Z</time>
      </trkpt>
      <trkpt lat="44.12228" lon="7.04808">
        <ele>2026.13</ele>
        <time>2012-03-17T10:31:08Z</time>
      </trkpt>
      <trkpt lat="44.12229" lon="7.04809">
        <ele>2026.131</ele>
        <time>2012-03-17T10:31:09Z</time>
      </trkpt>
      <trkpt lat="44.12233" lon="7.04809">
        <ele>2026.111</ele>
        <time>2012-03-17T10:31:14Z</time>
      </trkpt>
      <trkpt lat="44.12241" lon="7.0481">
        <ele>2026.441</ele>
        <time>2012-03-17T10:31:23Z</time>
      </trkpt>
      <trkpt lat="44.12248" lon="7.04814">
        <ele>2027.25</ele>
        <time>2012-03-17T10:31:31Z</time>
      </trkpt>
      <trkpt lat="44.12258" lon="7.04818">
        <ele>2029.524</ele>
        <time>2012-03-17T10:31:41Z</time>
      </trkpt>
      <trkpt lat="44.12268" lon="7.04821">
        <ele>2032.553</ele>
        <time>2012-03-17T10:31:52Z</time>
      </trkpt>
      <trkpt lat="44.12277" lon="7.0482">
        <ele>2033.482</ele>
        <time>2012-03-17T10:32:01Z</time>
      </trkpt>
      <trkpt lat="44.12285" lon="7.04819">
        <ele>2033.982</ele>
        <time>2012-03-17T10:32:09Z</time>
      </trkpt>
      <trkpt lat="44.12296" lon="7.04817">
        <ele>2035.853</ele>
        <time>2012-03-17T10:32:20Z</time>
      </trkpt>
      <trkpt lat="44.12301" lon="7.04818">
        <ele>2039.544</ele>
        <time>2012-03-17T10:32:30Z</time>
      </trkpt>
      <trkpt lat="44.12305" lon="7.0482">
        <ele>2040.693</ele>
        <time>2012-03-17T10:32:35Z</time>
      </trkpt>
      <trkpt lat="44.12314" lon="7.04818">
        <ele>2038.738</ele>
        <time>2012-03-17T10:32:44Z</time>
      </trkpt>
      <trkpt lat="44.12316" lon="7.04817">
        <ele>2038.403</ele>
        <time>2012-03-17T10:32:47Z</time>
      </trkpt>
      <trkpt lat="44.12321" lon="7.0482">
        <ele>2039.231</ele>
        <time>2012-03-17T10:32:52Z</time>
      </trkpt>
      <trkpt lat="44.12327" lon="7.04819">
        <ele>2041.311</ele>
        <time>2012-03-17T10:32:59Z</time>
      </trkpt>
      <trkpt lat="44.12329" lon="7.04819">
        <ele>2042.172</ele>
        <time>2012-03-17T10:33:02Z</time>
      </trkpt>
      <trkpt lat="44.12332" lon="7.04818">
        <ele>2041.46</ele>
        <time>2012-03-17T10:33:04Z</time>
      </trkpt>
      <trkpt lat="44.12338" lon="7.04808">
        <ele>2042.6</ele>
        <time>2012-03-17T10:33:14Z</time>
      </trkpt>
      <trkpt lat="44.12339" lon="7.04807">
        <ele>2042.7</ele>
        <time>2012-03-17T10:33:15Z</time>
      </trkpt>
      <trkpt lat="44.1234" lon="7.04805">
        <ele>2043.23</ele>
        <time>2012-03-17T10:33:23Z</time>
      </trkpt>
      <trkpt lat="44.12338" lon="7.04806">
        <ele>2047.315</ele>
        <time>2012-03-17T10:34:53Z</time>
      </trkpt>
      <trkpt lat="44.1234" lon="7.04803">
        <ele>2047.359</ele>
        <time>2012-03-17T10:34:58Z</time>
      </trkpt>
      <trkpt lat="44.12347" lon="7.04798">
        <ele>2047.88</ele>
        <time>2012-03-17T10:35:04Z</time>
      </trkpt>
      <trkpt lat="44.12356" lon="7.04794">
        <ele>2047.951</ele>
        <time>2012-03-17T10:35:09Z</time>
      </trkpt>
      <trkpt lat="44.1237" lon="7.04784">
        <ele>2048.211</ele>
        <time>2012-03-17T10:35:17Z</time>
      </trkpt>
      <trkpt lat="44.12379" lon="7.04781">
        <ele>2048.21</ele>
        <time>2012-03-17T10:35:22Z</time>
      </trkpt>
      <trkpt lat="44.12382" lon="7.04777">
        <ele>2049.434</ele>
        <time>2012-03-17T10:35:25Z</time>
      </trkpt>
      <trkpt lat="44.12383" lon="7.04774">
        <ele>2051.105</ele>
        <time>2012-03-17T10:35:28Z</time>
      </trkpt>
      <trkpt lat="44.12391" lon="7.04766">
        <ele>2053.886</ele>
        <time>2012-03-17T10:35:36Z</time>
      </trkpt>
      <trkpt lat="44.12391" lon="7.04766">
        <ele>2054.499</ele>
        <time>2012-03-17T10:35:37Z</time>
      </trkpt>
      <trkpt lat="44.12393" lon="7.04764">
        <ele>2055.728</ele>
        <time>2012-03-17T10:35:39Z</time>
      </trkpt>
      <trkpt lat="44.12398" lon="7.04759">
        <ele>2056.576</ele>
        <time>2012-03-17T10:35:43Z</time>
      </trkpt>
      <trkpt lat="44.12412" lon="7.04749">
        <ele>2056.712</ele>
        <time>2012-03-17T10:35:52Z</time>
      </trkpt>
      <trkpt lat="44.1242" lon="7.04745">
        <ele>2057.177</ele>
        <time>2012-03-17T10:35:57Z</time>
      </trkpt>
      <trkpt lat="44.12426" lon="7.04733">
        <ele>2060.085</ele>
        <time>2012-03-17T10:36:05Z</time>
      </trkpt>
      <trkpt lat="44.12433" lon="7.04722">
        <ele>2061.774</ele>
        <time>2012-03-17T10:36:14Z</time>
      </trkpt>
      <trkpt lat="44.1244" lon="7.04714">
        <ele>2062.582</ele>
        <time>2012-03-17T10:36:21Z</time>
      </trkpt>
      <trkpt lat="44.12444" lon="7.04711">
        <ele>2064.025</ele>
        <time>2012-03-17T10:36:27Z</time>
      </trkpt>
      <trkpt lat="44.12448" lon="7.04707">
        <ele>2065.799</ele>
        <time>2012-03-17T10:36:33Z</time>
      </trkpt>
      <trkpt lat="44.12456" lon="7.04704">
        <ele>2065.193</ele>
        <time>2012-03-17T10:37:21Z</time>
      </trkpt>
      <trkpt lat="44.12458" lon="7.04697">
        <ele>2067.865</ele>
        <time>2012-03-17T10:37:28Z</time>
      </trkpt>
      <trkpt lat="44.12469" lon="7.04693">
        <ele>2068.113</ele>
        <time>2012-03-17T10:37:37Z</time>
      </trkpt>
      <trkpt lat="44.1247" lon="7.04693">
        <ele>2068.113</ele>
        <time>2012-03-17T10:37:38Z</time>
      </trkpt>
      <trkpt lat="44.1248" lon="7.04686">
        <ele>2066.943</ele>
        <time>2012-03-17T10:37:46Z</time>
      </trkpt>
      <trkpt lat="44.12487" lon="7.0468">
        <ele>2065.141</ele>
        <time>2012-03-17T10:37:52Z</time>
      </trkpt>
      <trkpt lat="44.12496" lon="7.04675">
        <ele>2066.642</ele>
        <time>2012-03-17T10:38:03Z</time>
      </trkpt>
      <trkpt lat="44.12502" lon="7.0467">
        <ele>2069.573</ele>
        <time>2012-03-17T10:38:12Z</time>
      </trkpt>
      <trkpt lat="44.12503" lon="7.04666">
        <ele>2073.193</ele>
        <time>2012-03-17T10:38:20Z</time>
      </trkpt>
      <trkpt lat="44.12508" lon="7.04662">
        <ele>2076.891</ele>
        <time>2012-03-17T10:38:41Z</time>
      </trkpt>
      <trkpt lat="44.12512" lon="7.04655">
        <ele>2078.811</ele>
        <time>2012-03-17T10:38:49Z</time>
      </trkpt>
      <trkpt lat="44.12515" lon="7.0465">
        <ele>2080.192</ele>
        <time>2012-03-17T10:38:57Z</time>
      </trkpt>
      <trkpt lat="44.12517" lon="7.04645">
        <ele>2081.632</ele>
        <time>2012-03-17T10:39:03Z</time>
      </trkpt>
      <trkpt lat="44.12522" lon="7.0464">
        <ele>2083.151</ele>
        <time>2012-03-17T10:39:12Z</time>
      </trkpt>
      <trkpt lat="44.12527" lon="7.04635">
        <ele>2084.651</ele>
        <time>2012-03-17T10:39:21Z</time>
      </trkpt>
      <trkpt lat="44.1253" lon="7.04633">
        <ele>2084.111</ele>
        <time>2012-03-17T10:39:27Z</time>
      </trkpt>
      <trkpt lat="44.12532" lon="7.04632">
        <ele>2084.199</ele>
        <time>2012-03-17T10:39:33Z</time>
      </trkpt>
      <trkpt lat="44.12538" lon="7.04628">
        <ele>2084.942</ele>
        <time>2012-03-17T10:39:41Z</time>
      </trkpt>
      <trkpt lat="44.12539" lon="7.04627">
        <ele>2085.52</ele>
        <time>2012-03-17T10:39:47Z</time>
      </trkpt>
      <trkpt lat="44.12542" lon="7.04625">
        <ele>2086.883</ele>
        <time>2012-03-17T10:39:54Z</time>
      </trkpt>
      <trkpt lat="44.12547" lon="7.04617">
        <ele>2088.12</ele>
        <time>2012-03-17T10:40:04Z</time>
      </trkpt>
      <trkpt lat="44.12551" lon="7.04609">
        <ele>2087.972</ele>
        <time>2012-03-17T10:40:12Z</time>
      </trkpt>
      <trkpt lat="44.12554" lon="7.046">
        <ele>2088.611</ele>
        <time>2012-03-17T10:40:20Z</time>
      </trkpt>
      <trkpt lat="44.12557" lon="7.04591">
        <ele>2088.701</ele>
        <time>2012-03-17T10:40:29Z</time>
      </trkpt>
      <trkpt lat="44.1256" lon="7.04583">
        <ele>2087.33</ele>
        <time>2012-03-17T10:40:37Z</time>
      </trkpt>
      <trkpt lat="44.1256" lon="7.04575">
        <ele>2086.808</ele>
        <time>2012-03-17T10:40:44Z</time>
      </trkpt>
      <trkpt lat="44.12563" lon="7.04569">
        <ele>2089.133</ele>
        <time>2012-03-17T10:40:52Z</time>
      </trkpt>
      <trkpt lat="44.12566" lon="7.04563">
        <ele>2090.202</ele>
        <time>2012-03-17T10:40:59Z</time>
      </trkpt>
      <trkpt lat="44.12567" lon="7.04555">
        <ele>2091.022</ele>
        <time>2012-03-17T10:41:06Z</time>
      </trkpt>
      <trkpt lat="44.12572" lon="7.04546">
        <ele>2089</ele>
        <time>2012-03-17T10:41:15Z</time>
      </trkpt>
      <trkpt lat="44.12572" lon="7.04534">
        <ele>2090.071</ele>
        <time>2012-03-17T10:41:25Z</time>
      </trkpt>
      <trkpt lat="44.12571" lon="7.04524">
        <ele>2093.341</ele>
        <time>2012-03-17T10:41:34Z</time>
      </trkpt>
      <trkpt lat="44.1257" lon="7.04514">
        <ele>2096.491</ele>
        <time>2012-03-17T10:41:43Z</time>
      </trkpt>
      <trkpt lat="44.12573" lon="7.04504">
        <ele>2097.281</ele>
        <time>2012-03-17T10:41:53Z</time>
      </trkpt>
      <trkpt lat="44.12575" lon="7.04494">
        <ele>2097.121</ele>
        <time>2012-03-17T10:42:03Z</time>
      </trkpt>
      <trkpt lat="44.12577" lon="7.04488">
        <ele>2097.589</ele>
        <time>2012-03-17T10:42:11Z</time>
      </trkpt>
      <trkpt lat="44.12577" lon="7.04483">
        <ele>2097.349</ele>
        <time>2012-03-17T10:43:04Z</time>
      </trkpt>
      <trkpt lat="44.12579" lon="7.04474">
        <ele>2098.68</ele>
        <time>2012-03-17T10:43:12Z</time>
      </trkpt>
      <trkpt lat="44.1258" lon="7.04468">
        <ele>2100.151</ele>
        <time>2012-03-17T10:43:18Z</time>
      </trkpt>
      <trkpt lat="44.12583" lon="7.04458">
        <ele>2102.2</ele>
        <time>2012-03-17T10:43:27Z</time>
      </trkpt>
      <trkpt lat="44.12585" lon="7.04444">
        <ele>2105.361</ele>
        <time>2012-03-17T10:43:37Z</time>
      </trkpt>
      <trkpt lat="44.12587" lon="7.0443">
        <ele>2107.719</ele>
        <time>2012-03-17T10:43:48Z</time>
      </trkpt>
      <trkpt lat="44.12588" lon="7.04431">
        <ele>2108.39</ele>
        <time>2012-03-17T10:43:52Z</time>
      </trkpt>
      <trkpt lat="44.12593" lon="7.04432">
        <ele>2108.63</ele>
        <time>2012-03-17T10:43:56Z</time>
      </trkpt>
      <trkpt lat="44.12599" lon="7.04429">
        <ele>2111.2</ele>
        <time>2012-03-17T10:44:05Z</time>
      </trkpt>
      <trkpt lat="44.12605" lon="7.0443">
        <ele>2113.431</ele>
        <time>2012-03-17T10:44:13Z</time>
      </trkpt>
      <trkpt lat="44.12608" lon="7.04429">
        <ele>2114.858</ele>
        <time>2012-03-17T10:44:20Z</time>
      </trkpt>
      <trkpt lat="44.12614" lon="7.04427">
        <ele>2116.741</ele>
        <time>2012-03-17T10:44:30Z</time>
      </trkpt>
      <trkpt lat="44.12617" lon="7.04425">
        <ele>2117.631</ele>
        <time>2012-03-17T10:44:35Z</time>
      </trkpt>
      <trkpt lat="44.12624" lon="7.04422">
        <ele>2119.11</ele>
        <time>2012-03-17T10:44:44Z</time>
      </trkpt>
      <trkpt lat="44.12625" lon="7.04422">
        <ele>2119.531</ele>
        <time>2012-03-17T10:44:46Z</time>
      </trkpt>
      <trkpt lat="44.12632" lon="7.04419">
        <ele>2121.091</ele>
        <time>2012-03-17T10:44:56Z</time>
      </trkpt>
      <trkpt lat="44.12637" lon="7.04415">
        <ele>2122.421</ele>
        <time>2012-03-17T10:45:04Z</time>
      </trkpt>
      <trkpt lat="44.12642" lon="7.04411">
        <ele>2124.131</ele>
        <time>2012-03-17T10:45:13Z</time>
      </trkpt>
      <trkpt lat="44.12647" lon="7.04409">
        <ele>2125.491</ele>
        <time>2012-03-17T10:45:20Z</time>
      </trkpt>
      <trkpt lat="44.12648" lon="7.04409">
        <ele>2125.62</ele>
        <time>2012-03-17T10:45:21Z</time>
      </trkpt>
      <trkpt lat="44.12654" lon="7.04404">
        <ele>2127.072</ele>
        <time>2012-03-17T10:45:30Z</time>
      </trkpt>
      <trkpt lat="44.12657" lon="7.04403">
        <ele>2127.761</ele>
        <time>2012-03-17T10:45:34Z</time>
      </trkpt>
      <trkpt lat="44.12665" lon="7.04401">
        <ele>2129.142</ele>
        <time>2012-03-17T10:45:43Z</time>
      </trkpt>
      <trkpt lat="44.12672" lon="7.04398">
        <ele>2130.011</ele>
        <time>2012-03-17T10:45:51Z</time>
      </trkpt>
      <trkpt lat="44.1268" lon="7.04396">
        <ele>2131.371</ele>
        <time>2012-03-17T10:46:00Z</time>
      </trkpt>
      <trkpt lat="44.12689" lon="7.04393">
        <ele>2132.391</ele>
        <time>2012-03-17T10:46:10Z</time>
      </trkpt>
      <trkpt lat="44.12696" lon="7.04391">
        <ele>2133.43</ele>
        <time>2012-03-17T10:46:18Z</time>
      </trkpt>
      <trkpt lat="44.12697" lon="7.0439">
        <ele>2133.661</ele>
        <time>2012-03-17T10:46:19Z</time>
      </trkpt>
      <trkpt lat="44.12702" lon="7.04388">
        <ele>2134.621</ele>
        <time>2012-03-17T10:46:25Z</time>
      </trkpt>
      <trkpt lat="44.12703" lon="7.04386">
        <ele>2134.951</ele>
        <time>2012-03-17T10:46:27Z</time>
      </trkpt>
      <trkpt lat="44.12704" lon="7.04384">
        <ele>2135.11</ele>
        <time>2012-03-17T10:46:29Z</time>
      </trkpt>
      <trkpt lat="44.12712" lon="7.04378">
        <ele>2136.721</ele>
        <time>2012-03-17T10:46:40Z</time>
      </trkpt>
      <trkpt lat="44.12717" lon="7.04373">
        <ele>2137.791</ele>
        <time>2012-03-17T10:46:48Z</time>
      </trkpt>
      <trkpt lat="44.12725" lon="7.0437">
        <ele>2139.311</ele>
        <time>2012-03-17T10:46:58Z</time>
      </trkpt>
      <trkpt lat="44.1273" lon="7.04365">
        <ele>2141.592</ele>
        <time>2012-03-17T10:47:06Z</time>
      </trkpt>
      <trkpt lat="44.1273" lon="7.04362">
        <ele>2141.781</ele>
        <time>2012-03-17T10:47:09Z</time>
      </trkpt>
      <trkpt lat="44.12737" lon="7.0436">
        <ele>2142.421</ele>
        <time>2012-03-17T10:47:19Z</time>
      </trkpt>
      <trkpt lat="44.12744" lon="7.04354">
        <ele>2143.35</ele>
        <time>2012-03-17T10:47:29Z</time>
      </trkpt>
      <trkpt lat="44.12746" lon="7.04354">
        <ele>2143.691</ele>
        <time>2012-03-17T10:47:32Z</time>
      </trkpt>
      <trkpt lat="44.12753" lon="7.04354">
        <ele>2145.221</ele>
        <time>2012-03-17T10:47:41Z</time>
      </trkpt>
      <trkpt lat="44.12759" lon="7.04354">
        <ele>2146.941</ele>
        <time>2012-03-17T10:47:51Z</time>
      </trkpt>
      <trkpt lat="44.12763" lon="7.04353">
        <ele>2147.56</ele>
        <time>2012-03-17T10:47:57Z</time>
      </trkpt>
      <trkpt lat="44.12765" lon="7.04353">
        <ele>2147.778</ele>
        <time>2012-03-17T10:48:04Z</time>
      </trkpt>
      <trkpt lat="44.12764" lon="7.04355">
        <ele>2150.301</ele>
        <time>2012-03-17T10:49:33Z</time>
      </trkpt>
      <trkpt lat="44.12773" lon="7.0435">
        <ele>2150.661</ele>
        <time>2012-03-17T10:49:42Z</time>
      </trkpt>
      <trkpt lat="44.12781" lon="7.04346">
        <ele>2151.16</ele>
        <time>2012-03-17T10:49:51Z</time>
      </trkpt>
      <trkpt lat="44.12789" lon="7.04345">
        <ele>2151.425</ele>
        <time>2012-03-17T10:49:58Z</time>
      </trkpt>
      <trkpt lat="44.12792" lon="7.04344">
        <ele>2151.24</ele>
        <time>2012-03-17T10:50:02Z</time>
      </trkpt>
      <trkpt lat="44.12794" lon="7.04341">
        <ele>2151.721</ele>
        <time>2012-03-17T10:50:07Z</time>
      </trkpt>
      <trkpt lat="44.12803" lon="7.04335">
        <ele>2153.061</ele>
        <time>2012-03-17T10:50:17Z</time>
      </trkpt>
      <trkpt lat="44.1281" lon="7.04332">
        <ele>2154.261</ele>
        <time>2012-03-17T10:50:25Z</time>
      </trkpt>
      <trkpt lat="44.12817" lon="7.04328">
        <ele>2155.441</ele>
        <time>2012-03-17T10:50:33Z</time>
      </trkpt>
      <trkpt lat="44.12825" lon="7.04325">
        <ele>2156.291</ele>
        <time>2012-03-17T10:50:42Z</time>
      </trkpt>
      <trkpt lat="44.12833" lon="7.0432">
        <ele>2158.262</ele>
        <time>2012-03-17T10:50:52Z</time>
      </trkpt>
      <trkpt lat="44.1284" lon="7.04316">
        <ele>2159.66</ele>
        <time>2012-03-17T10:51:01Z</time>
      </trkpt>
      <trkpt lat="44.12848" lon="7.04312">
        <ele>2161.061</ele>
        <time>2012-03-17T10:51:11Z</time>
      </trkpt>
      <trkpt lat="44.12849" lon="7.04312">
        <ele>2161.442</ele>
        <time>2012-03-17T10:51:13Z</time>
      </trkpt>
      <trkpt lat="44.12852" lon="7.0431">
        <ele>2162.48</ele>
        <time>2012-03-17T10:51:18Z</time>
      </trkpt>
      <trkpt lat="44.12856" lon="7.04308">
        <ele>2162.931</ele>
        <time>2012-03-17T10:51:24Z</time>
      </trkpt>
      <trkpt lat="44.12856" lon="7.04307">
        <ele>2163.152</ele>
        <time>2012-03-17T10:51:26Z</time>
      </trkpt>
      <trkpt lat="44.12862" lon="7.04305">
        <ele>2164.322</ele>
        <time>2012-03-17T10:51:35Z</time>
      </trkpt>
      <trkpt lat="44.12867" lon="7.04309">
        <ele>2165.582</ele>
        <time>2012-03-17T10:51:44Z</time>
      </trkpt>
      <trkpt lat="44.12873" lon="7.0431">
        <ele>2166.472</ele>
        <time>2012-03-17T10:51:53Z</time>
      </trkpt>
      <trkpt lat="44.12879" lon="7.04311">
        <ele>2168.143</ele>
        <time>2012-03-17T10:52:03Z</time>
      </trkpt>
      <trkpt lat="44.12883" lon="7.0431">
        <ele>2169.612</ele>
        <time>2012-03-17T10:52:11Z</time>
      </trkpt>
      <trkpt lat="44.12887" lon="7.04308">
        <ele>2171.112</ele>
        <time>2012-03-17T10:52:18Z</time>
      </trkpt>
      <trkpt lat="44.12889" lon="7.04305">
        <ele>2172.702</ele>
        <time>2012-03-17T10:52:24Z</time>
      </trkpt>
      <trkpt lat="44.12893" lon="7.04306">
        <ele>2173.641</ele>
        <time>2012-03-17T10:52:31Z</time>
      </trkpt>
      <trkpt lat="44.12896" lon="7.04307">
        <ele>2175.371</ele>
        <time>2012-03-17T10:52:39Z</time>
      </trkpt>
      <trkpt lat="44.12899" lon="7.04308">
        <ele>2177.161</ele>
        <time>2012-03-17T10:52:46Z</time>
      </trkpt>
      <trkpt lat="44.129" lon="7.04305">
        <ele>2178.522</ele>
        <time>2012-03-17T10:52:51Z</time>
      </trkpt>
      <trkpt lat="44.12901" lon="7.04301">
        <ele>2180.162</ele>
        <time>2012-03-17T10:52:58Z</time>
      </trkpt>
      <trkpt lat="44.129" lon="7.04301">
        <ele>2180.677</ele>
        <time>2012-03-17T10:53:06Z</time>
      </trkpt>
      <trkpt lat="44.12902" lon="7.04298">
        <ele>2181.822</ele>
        <time>2012-03-17T10:53:11Z</time>
      </trkpt>
      <trkpt lat="44.12904" lon="7.04299">
        <ele>2183.461</ele>
        <time>2012-03-17T10:53:17Z</time>
      </trkpt>
      <trkpt lat="44.12906" lon="7.04298">
        <ele>2185.122</ele>
        <time>2012-03-17T10:53:23Z</time>
      </trkpt>
      <trkpt lat="44.12908" lon="7.04297">
        <ele>2186.852</ele>
        <time>2012-03-17T10:53:29Z</time>
      </trkpt>
      <trkpt lat="44.12912" lon="7.04295">
        <ele>2186.853</ele>
        <time>2012-03-17T10:53:37Z</time>
      </trkpt>
      <trkpt lat="44.12914" lon="7.04294">
        <ele>2187.182</ele>
        <time>2012-03-17T10:53:43Z</time>
      </trkpt>
      <trkpt lat="44.12919" lon="7.04292">
        <ele>2188.302</ele>
        <time>2012-03-17T10:53:53Z</time>
      </trkpt>
      <trkpt lat="44.12921" lon="7.04291">
        <ele>2188.981</ele>
        <time>2012-03-17T10:53:59Z</time>
      </trkpt>
      <trkpt lat="44.12923" lon="7.0429">
        <ele>2189.71</ele>
        <time>2012-03-17T10:54:05Z</time>
      </trkpt>
      <trkpt lat="44.12926" lon="7.04289">
        <ele>2190.762</ele>
        <time>2012-03-17T10:54:11Z</time>
      </trkpt>
      <trkpt lat="44.1293" lon="7.04287">
        <ele>2191.982</ele>
        <time>2012-03-17T10:54:20Z</time>
      </trkpt>
      <trkpt lat="44.12935" lon="7.04286">
        <ele>2193.681</ele>
        <time>2012-03-17T10:54:30Z</time>
      </trkpt>
      <trkpt lat="44.12938" lon="7.04285">
        <ele>2194.592</ele>
        <time>2012-03-17T10:54:36Z</time>
      </trkpt>
      <trkpt lat="44.12941" lon="7.04284">
        <ele>2195.321</ele>
        <time>2012-03-17T10:54:42Z</time>
      </trkpt>
      <trkpt lat="44.12944" lon="7.04283">
        <ele>2196.141</ele>
        <time>2012-03-17T10:54:48Z</time>
      </trkpt>
      <trkpt lat="44.12948" lon="7.0428">
        <ele>2197.412</ele>
        <time>2012-03-17T10:54:56Z</time>
      </trkpt>
      <trkpt lat="44.12951" lon="7.04278">
        <ele>2198.671</ele>
        <time>2012-03-17T10:55:03Z</time>
      </trkpt>
      <trkpt lat="44.12955" lon="7.04276">
        <ele>2200.113</ele>
        <time>2012-03-17T10:55:11Z</time>
      </trkpt>
      <trkpt lat="44.12958" lon="7.04276">
        <ele>2201.192</ele>
        <time>2012-03-17T10:55:17Z</time>
      </trkpt>
      <trkpt lat="44.12961" lon="7.04274">
        <ele>2202.602</ele>
        <time>2012-03-17T10:55:24Z</time>
      </trkpt>
      <trkpt lat="44.12966" lon="7.04272">
        <ele>2204.664</ele>
        <time>2012-03-17T10:55:34Z</time>
      </trkpt>
      <trkpt lat="44.12968" lon="7.04271">
        <ele>2205.353</ele>
        <time>2012-03-17T10:55:37Z</time>
      </trkpt>
      <trkpt lat="44.12972" lon="7.04267">
        <ele>2206.349</ele>
        <time>2012-03-17T10:55:45Z</time>
      </trkpt>
      <trkpt lat="44.12969" lon="7.04269">
        <ele>2206.001</ele>
        <time>2012-03-17T10:56:45Z</time>
      </trkpt>
      <trkpt lat="44.12975" lon="7.04265">
        <ele>2207.371</ele>
        <time>2012-03-17T10:56:51Z</time>
      </trkpt>
      <trkpt lat="44.12983" lon="7.04264">
        <ele>2209.082</ele>
        <time>2012-03-17T10:56:57Z</time>
      </trkpt>
      <trkpt lat="44.1299" lon="7.04265">
        <ele>2210.543</ele>
        <time>2012-03-17T10:57:02Z</time>
      </trkpt>
      <trkpt lat="44.12996" lon="7.04261">
        <ele>2211.912</ele>
        <time>2012-03-17T10:57:06Z</time>
      </trkpt>
      <trkpt lat="44.13001" lon="7.0426">
        <ele>2212.471</ele>
        <time>2012-03-17T10:57:09Z</time>
      </trkpt>
      <trkpt lat="44.13007" lon="7.04266">
        <ele>2213.011</ele>
        <time>2012-03-17T10:57:14Z</time>
      </trkpt>
      <trkpt lat="44.13008" lon="7.04267">
        <ele>2212.86</ele>
        <time>2012-03-17T10:57:15Z</time>
      </trkpt>
      <trkpt lat="44.13009" lon="7.04267">
        <ele>2212.198</ele>
        <time>2012-03-17T10:57:22Z</time>
      </trkpt>
      <trkpt lat="44.13009" lon="7.04267">
        <ele>2211.688</ele>
        <time>2012-03-17T10:57:29Z</time>
      </trkpt>
      <trkpt lat="44.1301" lon="7.04265">
        <ele>2202.94</ele>
        <time>2012-03-17T11:25:54Z</time>
      </trkpt>
      <trkpt lat="44.13009" lon="7.04266">
        <ele>2203.279</ele>
        <time>2012-03-17T11:25:59Z</time>
      </trkpt>
      <trkpt lat="44.13002" lon="7.04268">
        <ele>2200.675</ele>
        <time>2012-03-17T11:26:14Z</time>
      </trkpt>
      <trkpt lat="44.1299" lon="7.04265">
        <ele>2198.261</ele>
        <time>2012-03-17T11:26:18Z</time>
      </trkpt>
      <trkpt lat="44.12986" lon="7.04264">
        <ele>2197.109</ele>
        <time>2012-03-17T11:26:19Z</time>
      </trkpt>
      <trkpt lat="44.12971" lon="7.04265">
        <ele>2194.751</ele>
        <time>2012-03-17T11:26:22Z</time>
      </trkpt>
      <trkpt lat="44.12963" lon="7.04272">
        <ele>2192.958</ele>
        <time>2012-03-17T11:26:26Z</time>
      </trkpt>
      <trkpt lat="44.12955" lon="7.04276">
        <ele>2189.675</ele>
        <time>2012-03-17T11:26:30Z</time>
      </trkpt>
      <trkpt lat="44.12954" lon="7.04279">
        <ele>2188.177</ele>
        <time>2012-03-17T11:26:31Z</time>
      </trkpt>
      <trkpt lat="44.12949" lon="7.04292">
        <ele>2184.831</ele>
        <time>2012-03-17T11:26:35Z</time>
      </trkpt>
      <trkpt lat="44.12926" lon="7.04287">
        <ele>2179.661</ele>
        <time>2012-03-17T11:26:43Z</time>
      </trkpt>
      <trkpt lat="44.12917" lon="7.04291">
        <ele>2175.883</ele>
        <time>2012-03-17T11:26:48Z</time>
      </trkpt>
      <trkpt lat="44.12903" lon="7.04291">
        <ele>2168.597</ele>
        <time>2012-03-17T11:26:54Z</time>
      </trkpt>
      <trkpt lat="44.12887" lon="7.04297">
        <ele>2162.062</ele>
        <time>2012-03-17T11:27:00Z</time>
      </trkpt>
      <trkpt lat="44.12884" lon="7.04295">
        <ele>2160.986</ele>
        <time>2012-03-17T11:27:01Z</time>
      </trkpt>
      <trkpt lat="44.12876" lon="7.04278">
        <ele>2157.915</ele>
        <time>2012-03-17T11:27:06Z</time>
      </trkpt>
      <trkpt lat="44.12872" lon="7.04276">
        <ele>2156.063</ele>
        <time>2012-03-17T11:27:08Z</time>
      </trkpt>
      <trkpt lat="44.12857" lon="7.04272">
        <ele>2151.271</ele>
        <time>2012-03-17T11:27:14Z</time>
      </trkpt>
      <trkpt lat="44.12845" lon="7.04263">
        <ele>2148.683</ele>
        <time>2012-03-17T11:27:19Z</time>
      </trkpt>
      <trkpt lat="44.12838" lon="7.04269">
        <ele>2148.746</ele>
        <time>2012-03-17T11:27:23Z</time>
      </trkpt>
      <trkpt lat="44.12839" lon="7.04271">
        <ele>2151.462</ele>
        <time>2012-03-17T11:27:32Z</time>
      </trkpt>
      <trkpt lat="44.12836" lon="7.04273">
        <ele>2152.013</ele>
        <time>2012-03-17T11:27:37Z</time>
      </trkpt>
      <trkpt lat="44.1283" lon="7.0428">
        <ele>2151.434</ele>
        <time>2012-03-17T11:27:42Z</time>
      </trkpt>
      <trkpt lat="44.12823" lon="7.04286">
        <ele>2150.911</ele>
        <time>2012-03-17T11:27:46Z</time>
      </trkpt>
      <trkpt lat="44.12816" lon="7.04287">
        <ele>2149.854</ele>
        <time>2012-03-17T11:27:48Z</time>
      </trkpt>
      <trkpt lat="44.12803" lon="7.04287">
        <ele>2147.889</ele>
        <time>2012-03-17T11:27:51Z</time>
      </trkpt>
      <trkpt lat="44.12783" lon="7.04291">
        <ele>2145.239</ele>
        <time>2012-03-17T11:27:55Z</time>
      </trkpt>
      <trkpt lat="44.12764" lon="7.04297">
        <ele>2142.19</ele>
        <time>2012-03-17T11:28:00Z</time>
      </trkpt>
      <trkpt lat="44.12743" lon="7.04296">
        <ele>2135.271</ele>
        <time>2012-03-17T11:28:06Z</time>
      </trkpt>
      <trkpt lat="44.12732" lon="7.04293">
        <ele>2132.3</ele>
        <time>2012-03-17T11:28:08Z</time>
      </trkpt>
      <trkpt lat="44.12707" lon="7.04292">
        <ele>2126.681</ele>
        <time>2012-03-17T11:28:12Z</time>
      </trkpt>
      <trkpt lat="44.12695" lon="7.04299">
        <ele>2124.275</ele>
        <time>2012-03-17T11:28:14Z</time>
      </trkpt>
      <trkpt lat="44.12674" lon="7.04305">
        <ele>2120.385</ele>
        <time>2012-03-17T11:28:19Z</time>
      </trkpt>
      <trkpt lat="44.12665" lon="7.04313">
        <ele>2119.191</ele>
        <time>2012-03-17T11:28:22Z</time>
      </trkpt>
      <trkpt lat="44.12664" lon="7.04317">
        <ele>2119.083</ele>
        <time>2012-03-17T11:28:23Z</time>
      </trkpt>
      <trkpt lat="44.12654" lon="7.04347">
        <ele>2118.709</ele>
        <time>2012-03-17T11:28:30Z</time>
      </trkpt>
      <trkpt lat="44.12647" lon="7.04357">
        <ele>2117.382</ele>
        <time>2012-03-17T11:28:33Z</time>
      </trkpt>
      <trkpt lat="44.12638" lon="7.04371">
        <ele>2116.553</ele>
        <time>2012-03-17T11:28:36Z</time>
      </trkpt>
      <trkpt lat="44.12622" lon="7.04384">
        <ele>2112.861</ele>
        <time>2012-03-17T11:28:40Z</time>
      </trkpt>
      <trkpt lat="44.12598" lon="7.0441">
        <ele>2106.333</ele>
        <time>2012-03-17T11:28:46Z</time>
      </trkpt>
      <trkpt lat="44.12591" lon="7.04423">
        <ele>2104.524</ele>
        <time>2012-03-17T11:28:48Z</time>
      </trkpt>
      <trkpt lat="44.12582" lon="7.04476">
        <ele>2098.725</ele>
        <time>2012-03-17T11:28:54Z</time>
      </trkpt>
      <trkpt lat="44.12575" lon="7.04512">
        <ele>2093.105</ele>
        <time>2012-03-17T11:28:59Z</time>
      </trkpt>
      <trkpt lat="44.12572" lon="7.04552">
        <ele>2085.481</ele>
        <time>2012-03-17T11:29:05Z</time>
      </trkpt>
      <trkpt lat="44.1257" lon="7.04559">
        <ele>2084.333</ele>
        <time>2012-03-17T11:29:06Z</time>
      </trkpt>
      <trkpt lat="44.12561" lon="7.04588">
        <ele>2078.653</ele>
        <time>2012-03-17T11:29:11Z</time>
      </trkpt>
      <trkpt lat="44.12554" lon="7.046">
        <ele>2075.988</ele>
        <time>2012-03-17T11:29:14Z</time>
      </trkpt>
      <trkpt lat="44.12545" lon="7.04609">
        <ele>2073.342</ele>
        <time>2012-03-17T11:29:17Z</time>
      </trkpt>
      <trkpt lat="44.12541" lon="7.04613">
        <ele>2071.225</ele>
        <time>2012-03-17T11:29:23Z</time>
      </trkpt>
      <trkpt lat="44.12543" lon="7.0461">
        <ele>2068.606</ele>
        <time>2012-03-17T11:29:28Z</time>
      </trkpt>
      <trkpt lat="44.12541" lon="7.04598">
        <ele>2066.609</ele>
        <time>2012-03-17T11:53:52Z</time>
      </trkpt>
      <trkpt lat="44.12539" lon="7.04601">
        <ele>2065.999</ele>
        <time>2012-03-17T11:53:58Z</time>
      </trkpt>
      <trkpt lat="44.12539" lon="7.04607">
        <ele>2066.339</ele>
        <time>2012-03-17T11:54:30Z</time>
      </trkpt>
      <trkpt lat="44.12534" lon="7.0462">
        <ele>2066.538</ele>
        <time>2012-03-17T11:54:36Z</time>
      </trkpt>
      <trkpt lat="44.12533" lon="7.04622">
        <ele>2066.217</ele>
        <time>2012-03-17T11:54:37Z</time>
      </trkpt>
      <trkpt lat="44.1253" lon="7.04637">
        <ele>2063.811</ele>
        <time>2012-03-17T11:54:42Z</time>
      </trkpt>
      <trkpt lat="44.12522" lon="7.04653">
        <ele>2058.945</ele>
        <time>2012-03-17T11:54:47Z</time>
      </trkpt>
      <trkpt lat="44.1252" lon="7.04656">
        <ele>2057.784</ele>
        <time>2012-03-17T11:54:48Z</time>
      </trkpt>
      <trkpt lat="44.12517" lon="7.04656">
        <ele>2053.611</ele>
        <time>2012-03-17T11:54:53Z</time>
      </trkpt>
      <trkpt lat="44.12517" lon="7.04656">
        <ele>2039.739</ele>
        <time>2012-03-17T11:56:40Z</time>
      </trkpt>
      <trkpt lat="44.12508" lon="7.0466">
        <ele>2040.474</ele>
        <time>2012-03-17T11:56:46Z</time>
      </trkpt>
      <trkpt lat="44.12503" lon="7.04664">
        <ele>2039.633</ele>
        <time>2012-03-17T11:56:48Z</time>
      </trkpt>
      <trkpt lat="44.1248" lon="7.04682">
        <ele>2034.316</ele>
        <time>2012-03-17T11:56:54Z</time>
      </trkpt>
      <trkpt lat="44.12473" lon="7.04686">
        <ele>2033.045</ele>
        <time>2012-03-17T11:56:55Z</time>
      </trkpt>
      <trkpt lat="44.12455" lon="7.04703">
        <ele>2029.476</ele>
        <time>2012-03-17T11:56:59Z</time>
      </trkpt>
      <trkpt lat="44.12446" lon="7.0471">
        <ele>2027.927</ele>
        <time>2012-03-17T11:57:01Z</time>
      </trkpt>
      <trkpt lat="44.12432" lon="7.04729">
        <ele>2025.847</ele>
        <time>2012-03-17T11:57:04Z</time>
      </trkpt>
      <trkpt lat="44.12411" lon="7.04755">
        <ele>2022.636</ele>
        <time>2012-03-17T11:57:08Z</time>
      </trkpt>
      <trkpt lat="44.12393" lon="7.04766">
        <ele>2020.127</ele>
        <time>2012-03-17T11:57:11Z</time>
      </trkpt>
      <trkpt lat="44.12371" lon="7.04788">
        <ele>2014.935</ele>
        <time>2012-03-17T11:57:15Z</time>
      </trkpt>
      <trkpt lat="44.12358" lon="7.04797">
        <ele>2013.446</ele>
        <time>2012-03-17T11:57:17Z</time>
      </trkpt>
      <trkpt lat="44.12327" lon="7.04807">
        <ele>2008.455</ele>
        <time>2012-03-17T11:57:22Z</time>
      </trkpt>
      <trkpt lat="44.12318" lon="7.04811">
        <ele>2006.554</ele>
        <time>2012-03-17T11:57:24Z</time>
      </trkpt>
      <trkpt lat="44.12293" lon="7.04822">
        <ele>2002.235</ele>
        <time>2012-03-17T11:57:29Z</time>
      </trkpt>
      <trkpt lat="44.12265" lon="7.04827">
        <ele>1997.182</ele>
        <time>2012-03-17T11:57:35Z</time>
      </trkpt>
      <trkpt lat="44.12266" lon="7.04827">
        <ele>2000.799</ele>
        <time>2012-03-17T11:57:38Z</time>
      </trkpt>
      <trkpt lat="44.12267" lon="7.04824">
        <ele>2003.626</ele>
        <time>2012-03-17T11:57:46Z</time>
      </trkpt>
      <trkpt lat="44.12268" lon="7.04824">
        <ele>2001.377</ele>
        <time>2012-03-17T11:57:54Z</time>
      </trkpt>
      <trkpt lat="44.12254" lon="7.0482">
        <ele>2001.744</ele>
        <time>2012-03-17T11:57:59Z</time>
      </trkpt>
      <trkpt lat="44.12234" lon="7.04812">
        <ele>1998.799</ele>
        <time>2012-03-17T11:58:04Z</time>
      </trkpt>
      <trkpt lat="44.12216" lon="7.04803">
        <ele>1995.417</ele>
        <time>2012-03-17T11:58:09Z</time>
      </trkpt>
      <trkpt lat="44.12202" lon="7.04802">
        <ele>1993.266</ele>
        <time>2012-03-17T11:58:12Z</time>
      </trkpt>
      <trkpt lat="44.12185" lon="7.04801">
        <ele>1991.956</ele>
        <time>2012-03-17T11:58:15Z</time>
      </trkpt>
      <trkpt lat="44.12169" lon="7.04801">
        <ele>1990.117</ele>
        <time>2012-03-17T11:58:18Z</time>
      </trkpt>
      <trkpt lat="44.12155" lon="7.04795">
        <ele>1986.764</ele>
        <time>2012-03-17T11:58:21Z</time>
      </trkpt>
      <trkpt lat="44.1214" lon="7.04798">
        <ele>1984.947</ele>
        <time>2012-03-17T11:58:26Z</time>
      </trkpt>
      <trkpt lat="44.12128" lon="7.04795">
        <ele>1982.196</ele>
        <time>2012-03-17T11:58:29Z</time>
      </trkpt>
      <trkpt lat="44.1212" lon="7.04781">
        <ele>1976.03</ele>
        <time>2012-03-17T11:58:32Z</time>
      </trkpt>
      <trkpt lat="44.1211" lon="7.04778">
        <ele>1971.853</ele>
        <time>2012-03-17T11:58:36Z</time>
      </trkpt>
      <trkpt lat="44.12096" lon="7.04784">
        <ele>1966.843</ele>
        <time>2012-03-17T11:58:40Z</time>
      </trkpt>
      <trkpt lat="44.12078" lon="7.04781">
        <ele>1962.191</ele>
        <time>2012-03-17T11:58:44Z</time>
      </trkpt>
      <trkpt lat="44.12067" lon="7.04783">
        <ele>1959.382</ele>
        <time>2012-03-17T11:58:46Z</time>
      </trkpt>
      <trkpt lat="44.12056" lon="7.04787">
        <ele>1955.571</ele>
        <time>2012-03-17T11:58:48Z</time>
      </trkpt>
      <trkpt lat="44.12039" lon="7.04795">
        <ele>1949.472</ele>
        <time>2012-03-17T11:58:53Z</time>
      </trkpt>
      <trkpt lat="44.12032" lon="7.04795">
        <ele>1941.521</ele>
        <time>2012-03-17T11:58:58Z</time>
      </trkpt>
      <trkpt lat="44.1202" lon="7.04801">
        <ele>1938.972</ele>
        <time>2012-03-17T11:59:02Z</time>
      </trkpt>
      <trkpt lat="44.12013" lon="7.04815">
        <ele>1941.762</ele>
        <time>2012-03-17T11:59:06Z</time>
      </trkpt>
      <trkpt lat="44.12012" lon="7.04818">
        <ele>1942.263</ele>
        <time>2012-03-17T11:59:07Z</time>
      </trkpt>
      <trkpt lat="44.1201" lon="7.04829">
        <ele>1943.786</ele>
        <time>2012-03-17T11:59:10Z</time>
      </trkpt>
      <trkpt lat="44.11998" lon="7.04851">
        <ele>1944.488</ele>
        <time>2012-03-17T11:59:15Z</time>
      </trkpt>
      <trkpt lat="44.11987" lon="7.04868">
        <ele>1948.403</ele>
        <time>2012-03-17T11:59:20Z</time>
      </trkpt>
      <trkpt lat="44.11975" lon="7.04887">
        <ele>1950.304</ele>
        <time>2012-03-17T11:59:25Z</time>
      </trkpt>
      <trkpt lat="44.11964" lon="7.04899">
        <ele>1944.018</ele>
        <time>2012-03-17T11:59:30Z</time>
      </trkpt>
      <trkpt lat="44.1195" lon="7.04918">
        <ele>1938.223</ele>
        <time>2012-03-17T11:59:35Z</time>
      </trkpt>
      <trkpt lat="44.11945" lon="7.04926">
        <ele>1936.007</ele>
        <time>2012-03-17T11:59:38Z</time>
      </trkpt>
      <trkpt lat="44.11943" lon="7.04929">
        <ele>1934.749</ele>
        <time>2012-03-17T11:59:40Z</time>
      </trkpt>
      <trkpt lat="44.11933" lon="7.0494">
        <ele>1931.111</ele>
        <time>2012-03-17T11:59:46Z</time>
      </trkpt>
      <trkpt lat="44.11924" lon="7.04956">
        <ele>1926.93</ele>
        <time>2012-03-17T11:59:51Z</time>
      </trkpt>
      <trkpt lat="44.11914" lon="7.0496">
        <ele>1926.64</ele>
        <time>2012-03-17T11:59:53Z</time>
      </trkpt>
      <trkpt lat="44.11886" lon="7.0497">
        <ele>1921.679</ele>
        <time>2012-03-17T11:59:57Z</time>
      </trkpt>
      <trkpt lat="44.11857" lon="7.04984">
        <ele>1915.867</ele>
        <time>2012-03-17T12:00:02Z</time>
      </trkpt>
      <trkpt lat="44.1183" lon="7.05006">
        <ele>1910.816</ele>
        <time>2012-03-17T12:00:07Z</time>
      </trkpt>
      <trkpt lat="44.11804" lon="7.05034">
        <ele>1905.733</ele>
        <time>2012-03-17T12:00:12Z</time>
      </trkpt>
      <trkpt lat="44.11787" lon="7.05055">
        <ele>1900.963</ele>
        <time>2012-03-17T12:00:17Z</time>
      </trkpt>
      <trkpt lat="44.11783" lon="7.0506">
        <ele>1899.122</ele>
        <time>2012-03-17T12:00:18Z</time>
      </trkpt>
      <trkpt lat="44.11768" lon="7.05073">
        <ele>1894.592</ele>
        <time>2012-03-17T12:00:22Z</time>
      </trkpt>
      <trkpt lat="44.11761" lon="7.05077">
        <ele>1892.944</ele>
        <time>2012-03-17T12:00:24Z</time>
      </trkpt>
      <trkpt lat="44.11745" lon="7.05095">
        <ele>1889.756</ele>
        <time>2012-03-17T12:00:28Z</time>
      </trkpt>
      <trkpt lat="44.11731" lon="7.05113">
        <ele>1888.079</ele>
        <time>2012-03-17T12:00:32Z</time>
      </trkpt>
      <trkpt lat="44.11719" lon="7.05147">
        <ele>1889.242</ele>
        <time>2012-03-17T12:00:38Z</time>
      </trkpt>
      <trkpt lat="44.11712" lon="7.05164">
        <ele>1888.743</ele>
        <time>2012-03-17T12:00:41Z</time>
      </trkpt>
      <trkpt lat="44.11697" lon="7.05188">
        <ele>1888.344</ele>
        <time>2012-03-17T12:00:47Z</time>
      </trkpt>
      <trkpt lat="44.11687" lon="7.05206">
        <ele>1886.161</ele>
        <time>2012-03-17T12:00:52Z</time>
      </trkpt>
      <trkpt lat="44.11683" lon="7.05212">
        <ele>1885.342</ele>
        <time>2012-03-17T12:00:54Z</time>
      </trkpt>
      <trkpt lat="44.11666" lon="7.05227">
        <ele>1884.744</ele>
        <time>2012-03-17T12:00:59Z</time>
      </trkpt>
      <trkpt lat="44.11649" lon="7.05243">
        <ele>1882.463</ele>
        <time>2012-03-17T12:01:04Z</time>
      </trkpt>
      <trkpt lat="44.11639" lon="7.05263">
        <ele>1880.832</ele>
        <time>2012-03-17T12:01:09Z</time>
      </trkpt>
      <trkpt lat="44.11631" lon="7.0527">
        <ele>1878.873</ele>
        <time>2012-03-17T12:01:11Z</time>
      </trkpt>
      <trkpt lat="44.11613" lon="7.05279">
        <ele>1876.415</ele>
        <time>2012-03-17T12:01:16Z</time>
      </trkpt>
      <trkpt lat="44.11604" lon="7.05287">
        <ele>1873.202</ele>
        <time>2012-03-17T12:01:19Z</time>
      </trkpt>
      <trkpt lat="44.11588" lon="7.05313">
        <ele>1869.99</ele>
        <time>2012-03-17T12:01:23Z</time>
      </trkpt>
      <trkpt lat="44.11585" lon="7.05317">
        <ele>1868.738</ele>
        <time>2012-03-17T12:01:24Z</time>
      </trkpt>
      <trkpt lat="44.11576" lon="7.05329">
        <ele>1865.118</ele>
        <time>2012-03-17T12:01:28Z</time>
      </trkpt>
      <trkpt lat="44.11574" lon="7.05337">
        <ele>1861.994</ele>
        <time>2012-03-17T12:01:31Z</time>
      </trkpt>
      <trkpt lat="44.11563" lon="7.05352">
        <ele>1857.095</ele>
        <time>2012-03-17T12:01:37Z</time>
      </trkpt>
      <trkpt lat="44.11549" lon="7.05361">
        <ele>1853.174</ele>
        <time>2012-03-17T12:01:42Z</time>
      </trkpt>
      <trkpt lat="44.11533" lon="7.05368">
        <ele>1847.421</ele>
        <time>2012-03-17T12:01:47Z</time>
      </trkpt>
      <trkpt lat="44.11528" lon="7.05372">
        <ele>1845.91</ele>
        <time>2012-03-17T12:01:48Z</time>
      </trkpt>
      <trkpt lat="44.11511" lon="7.05386">
        <ele>1840.949</ele>
        <time>2012-03-17T12:01:52Z</time>
      </trkpt>
      <trkpt lat="44.11502" lon="7.05382">
        <ele>1836.908</ele>
        <time>2012-03-17T12:01:55Z</time>
      </trkpt>
      <trkpt lat="44.11493" lon="7.0538">
        <ele>1831.266</ele>
        <time>2012-03-17T12:01:59Z</time>
      </trkpt>
      <trkpt lat="44.11486" lon="7.05394">
        <ele>1828.551</ele>
        <time>2012-03-17T12:02:04Z</time>
      </trkpt>
      <trkpt lat="44.1148" lon="7.05402">
        <ele>1827.135</ele>
        <time>2012-03-17T12:02:06Z</time>
      </trkpt>
      <trkpt lat="44.11471" lon="7.05412">
        <ele>1823.248</ele>
        <time>2012-03-17T12:02:12Z</time>
      </trkpt>
      <trkpt lat="44.11478" lon="7.05405">
        <ele>1826.788</ele>
        <time>2012-03-17T12:02:19Z</time>
      </trkpt>
      <trkpt lat="44.11477" lon="7.05405">
        <ele>1828.158</ele>
        <time>2012-03-17T12:02:23Z</time>
      </trkpt>
      <trkpt lat="44.11466" lon="7.05402">
        <ele>1824.048</ele>
        <time>2012-03-17T12:02:28Z</time>
      </trkpt>
      <trkpt lat="44.11455" lon="7.05414">
        <ele>1822.57</ele>
        <time>2012-03-17T12:02:33Z</time>
      </trkpt>
      <trkpt lat="44.11452" lon="7.05417">
        <ele>1821.598</ele>
        <time>2012-03-17T12:02:35Z</time>
      </trkpt>
      <trkpt lat="44.11445" lon="7.05423">
        <ele>1820.938</ele>
        <time>2012-03-17T12:02:38Z</time>
      </trkpt>
      <trkpt lat="44.11437" lon="7.05426">
        <ele>1817.348</ele>
        <time>2012-03-17T12:02:43Z</time>
      </trkpt>
      <trkpt lat="44.11436" lon="7.05427">
        <ele>1816.817</ele>
        <time>2012-03-17T12:02:44Z</time>
      </trkpt>
      <trkpt lat="44.11427" lon="7.0544">
        <ele>1812.927</ele>
        <time>2012-03-17T12:02:49Z</time>
      </trkpt>
      <trkpt lat="44.11424" lon="7.05447">
        <ele>1812.227</ele>
        <time>2012-03-17T12:02:51Z</time>
      </trkpt>
      <trkpt lat="44.11411" lon="7.05458">
        <ele>1808.825</ele>
        <time>2012-03-17T12:02:55Z</time>
      </trkpt>
      <trkpt lat="44.11408" lon="7.05463">
        <ele>1807.696</ele>
        <time>2012-03-17T12:02:56Z</time>
      </trkpt>
      <trkpt lat="44.11392" lon="7.0549">
        <ele>1803.024</ele>
        <time>2012-03-17T12:03:00Z</time>
      </trkpt>
      <trkpt lat="44.11378" lon="7.05507">
        <ele>1802.208</ele>
        <time>2012-03-17T12:03:03Z</time>
      </trkpt>
      <trkpt lat="44.11363" lon="7.0553">
        <ele>1798.787</ele>
        <time>2012-03-17T12:03:08Z</time>
      </trkpt>
      <trkpt lat="44.1135" lon="7.05544">
        <ele>1796.76</ele>
        <time>2012-03-17T12:03:12Z</time>
      </trkpt>
      <trkpt lat="44.11335" lon="7.05559">
        <ele>1793.01</ele>
        <time>2012-03-17T12:03:16Z</time>
      </trkpt>
      <trkpt lat="44.11318" lon="7.0558">
        <ele>1790.981</ele>
        <time>2012-03-17T12:03:22Z</time>
      </trkpt>
      <trkpt lat="44.11309" lon="7.05588">
        <ele>1787.208</ele>
        <time>2012-03-17T12:03:26Z</time>
      </trkpt>
      <trkpt lat="44.11304" lon="7.05595">
        <ele>1786.118</ele>
        <time>2012-03-17T12:03:28Z</time>
      </trkpt>
      <trkpt lat="44.11287" lon="7.05611">
        <ele>1782.417</ele>
        <time>2012-03-17T12:03:33Z</time>
      </trkpt>
      <trkpt lat="44.11279" lon="7.05616">
        <ele>1782.138</ele>
        <time>2012-03-17T12:03:35Z</time>
      </trkpt>
      <trkpt lat="44.11264" lon="7.05635">
        <ele>1782.212</ele>
        <time>2012-03-17T12:03:41Z</time>
      </trkpt>
      <trkpt lat="44.11259" lon="7.05639">
        <ele>1780.4</ele>
        <time>2012-03-17T12:03:44Z</time>
      </trkpt>
      <trkpt lat="44.11253" lon="7.05638">
        <ele>1781.049</ele>
        <time>2012-03-17T12:04:26Z</time>
      </trkpt>
      <trkpt lat="44.11251" lon="7.05646">
        <ele>1781.39</ele>
        <time>2012-03-17T12:04:30Z</time>
      </trkpt>
      <trkpt lat="44.11252" lon="7.05661">
        <ele>1782.798</ele>
        <time>2012-03-17T12:04:35Z</time>
      </trkpt>
      <trkpt lat="44.11254" lon="7.05671">
        <ele>1783.639</ele>
        <time>2012-03-17T12:04:39Z</time>
      </trkpt>
      <trkpt lat="44.11254" lon="7.05673">
        <ele>1783.939</ele>
        <time>2012-03-17T12:04:40Z</time>
      </trkpt>
      <trkpt lat="44.11246" lon="7.05693">
        <ele>1782.444</ele>
        <time>2012-03-17T12:04:46Z</time>
      </trkpt>
      <trkpt lat="44.11237" lon="7.05707">
        <ele>1783.827</ele>
        <time>2012-03-17T12:04:51Z</time>
      </trkpt>
      <trkpt lat="44.1123" lon="7.05722">
        <ele>1782.212</ele>
        <time>2012-03-17T12:04:56Z</time>
      </trkpt>
      <trkpt lat="44.11223" lon="7.05733">
        <ele>1779.169</ele>
        <time>2012-03-17T12:05:00Z</time>
      </trkpt>
      <trkpt lat="44.11218" lon="7.05744">
        <ele>1777.26</ele>
        <time>2012-03-17T12:05:04Z</time>
      </trkpt>
      <trkpt lat="44.11212" lon="7.05755">
        <ele>1777.134</ele>
        <time>2012-03-17T12:05:09Z</time>
      </trkpt>
      <trkpt lat="44.1121" lon="7.05758">
        <ele>1776.432</ele>
        <time>2012-03-17T12:05:11Z</time>
      </trkpt>
      <trkpt lat="44.1121" lon="7.05759">
        <ele>1770.467</ele>
        <time>2012-03-17T12:05:19Z</time>
      </trkpt>
      <trkpt lat="44.11209" lon="7.0576">
        <ele>1767.755</ele>
        <time>2012-03-17T12:05:23Z</time>
      </trkpt>
      <trkpt lat="44.11209" lon="7.05762">
        <ele>1765.216</ele>
        <time>2012-03-17T12:05:30Z</time>
      </trkpt>
      <trkpt lat="44.11207" lon="7.05766">
        <ele>1765.485</ele>
        <time>2012-03-17T12:05:41Z</time>
      </trkpt>
      <trkpt lat="44.11204" lon="7.0578">
        <ele>1765.937</ele>
        <time>2012-03-17T12:05:47Z</time>
      </trkpt>
      <trkpt lat="44.11204" lon="7.05783">
        <ele>1765.836</ele>
        <time>2012-03-17T12:05:48Z</time>
      </trkpt>
      <trkpt lat="44.11193" lon="7.05804">
        <ele>1764.042</ele>
        <time>2012-03-17T12:05:54Z</time>
      </trkpt>
      <trkpt lat="44.11176" lon="7.05824">
        <ele>1763.675</ele>
        <time>2012-03-17T12:05:58Z</time>
      </trkpt>
      <trkpt lat="44.11156" lon="7.05847">
        <ele>1759.961</ele>
        <time>2012-03-17T12:06:04Z</time>
      </trkpt>
      <trkpt lat="44.11153" lon="7.0585">
        <ele>1759.502</ele>
        <time>2012-03-17T12:06:05Z</time>
      </trkpt>
      <trkpt lat="44.11137" lon="7.05876">
        <ele>1755.759</ele>
        <time>2012-03-17T12:06:10Z</time>
      </trkpt>
      <trkpt lat="44.11134" lon="7.05883">
        <ele>1755.439</ele>
        <time>2012-03-17T12:06:11Z</time>
      </trkpt>
      <trkpt lat="44.11121" lon="7.05913">
        <ele>1752.316</ele>
        <time>2012-03-17T12:06:15Z</time>
      </trkpt>
      <trkpt lat="44.11101" lon="7.05963">
        <ele>1749.918</ele>
        <time>2012-03-17T12:06:21Z</time>
      </trkpt>
      <trkpt lat="44.1108" lon="7.06008">
        <ele>1745.668</ele>
        <time>2012-03-17T12:06:27Z</time>
      </trkpt>
      <trkpt lat="44.11064" lon="7.06039">
        <ele>1742.581</ele>
        <time>2012-03-17T12:06:31Z</time>
      </trkpt>
      <trkpt lat="44.1106" lon="7.06055">
        <ele>1742.032</ele>
        <time>2012-03-17T12:06:33Z</time>
      </trkpt>
      <trkpt lat="44.1105" lon="7.06085">
        <ele>1742.103</ele>
        <time>2012-03-17T12:06:37Z</time>
      </trkpt>
      <trkpt lat="44.11036" lon="7.06114">
        <ele>1743.446</ele>
        <time>2012-03-17T12:06:41Z</time>
      </trkpt>
      <trkpt lat="44.11023" lon="7.06132">
        <ele>1739.002</ele>
        <time>2012-03-17T12:06:44Z</time>
      </trkpt>
      <trkpt lat="44.11004" lon="7.06167">
        <ele>1733.872</ele>
        <time>2012-03-17T12:06:50Z</time>
      </trkpt>
      <trkpt lat="44.10987" lon="7.062">
        <ele>1730.763</ele>
        <time>2012-03-17T12:06:57Z</time>
      </trkpt>
      <trkpt lat="44.1097" lon="7.06224">
        <ele>1725.82</ele>
        <time>2012-03-17T12:07:02Z</time>
      </trkpt>
      <trkpt lat="44.10955" lon="7.06254">
        <ele>1721.119</ele>
        <time>2012-03-17T12:07:07Z</time>
      </trkpt>
      <trkpt lat="44.10935" lon="7.06291">
        <ele>1715.336</ele>
        <time>2012-03-17T12:07:12Z</time>
      </trkpt>
      <trkpt lat="44.10914" lon="7.0632">
        <ele>1711.175</ele>
        <time>2012-03-17T12:07:16Z</time>
      </trkpt>
      <trkpt lat="44.10888" lon="7.06365">
        <ele>1709.161</ele>
        <time>2012-03-17T12:07:21Z</time>
      </trkpt>
      <trkpt lat="44.10862" lon="7.06405">
        <ele>1704.096</ele>
        <time>2012-03-17T12:07:25Z</time>
      </trkpt>
      <trkpt lat="44.10846" lon="7.06448">
        <ele>1701.448</ele>
        <time>2012-03-17T12:07:29Z</time>
      </trkpt>
      <trkpt lat="44.10844" lon="7.06459">
        <ele>1700.968</ele>
        <time>2012-03-17T12:07:30Z</time>
      </trkpt>
      <trkpt lat="44.10842" lon="7.06476">
        <ele>1701.653</ele>
        <time>2012-03-17T12:07:33Z</time>
      </trkpt>
      <trkpt lat="44.10843" lon="7.0647">
        <ele>1698.312</ele>
        <time>2012-03-17T12:07:36Z</time>
      </trkpt>
      <trkpt lat="44.10839" lon="7.06457">
        <ele>1655.074</ele>
        <time>2012-03-17T12:12:17Z</time>
      </trkpt>
      <trkpt lat="44.10841" lon="7.06465">
        <ele>1684.216</ele>
        <time>2012-03-17T12:15:03Z</time>
      </trkpt>
      <trkpt lat="44.10848" lon="7.06463">
        <ele>1687.136</ele>
        <time>2012-03-17T12:15:22Z</time>
      </trkpt>
      <trkpt lat="44.10853" lon="7.06465">
        <ele>1682.101</ele>
        <time>2012-03-17T12:15:51Z</time>
      </trkpt>
      <trkpt lat="44.10855" lon="7.06481">
        <ele>1685.734</ele>
        <time>2012-03-17T12:15:57Z</time>
      </trkpt>
      <trkpt lat="44.10857" lon="7.06484">
        <ele>1686.174</ele>
        <time>2012-03-17T12:15:58Z</time>
      </trkpt>
      <trkpt lat="44.10869" lon="7.065">
        <ele>1686.864</ele>
        <time>2012-03-17T12:16:03Z</time>
      </trkpt>
      <trkpt lat="44.10876" lon="7.06508">
        <ele>1686.502</ele>
        <time>2012-03-17T12:16:05Z</time>
      </trkpt>
      <trkpt lat="44.10905" lon="7.0653">
        <ele>1681.135</ele>
        <time>2012-03-17T12:16:11Z</time>
      </trkpt>
      <trkpt lat="44.10932" lon="7.06553">
        <ele>1677.654</ele>
        <time>2012-03-17T12:16:17Z</time>
      </trkpt>
      <trkpt lat="44.10938" lon="7.06561">
        <ele>1677.665</ele>
        <time>2012-03-17T12:16:19Z</time>
      </trkpt>
      <trkpt lat="44.10945" lon="7.06584">
        <ele>1677.286</ele>
        <time>2012-03-17T12:16:23Z</time>
      </trkpt>
      <trkpt lat="44.10947" lon="7.06604">
        <ele>1675.556</ele>
        <time>2012-03-17T12:16:26Z</time>
      </trkpt>
      <trkpt lat="44.10949" lon="7.06642">
        <ele>1672.045</ele>
        <time>2012-03-17T12:16:31Z</time>
      </trkpt>
      <trkpt lat="44.1095" lon="7.06648">
        <ele>1670.673</ele>
        <time>2012-03-17T12:16:32Z</time>
      </trkpt>
      <trkpt lat="44.10946" lon="7.06673">
        <ele>1665.29</ele>
        <time>2012-03-17T12:16:37Z</time>
      </trkpt>
      <trkpt lat="44.10946" lon="7.06682">
        <ele>1663.64</ele>
        <time>2012-03-17T12:16:39Z</time>
      </trkpt>
      <trkpt lat="44.10946" lon="7.06697">
        <ele>1660.74</ele>
        <time>2012-03-17T12:16:42Z</time>
      </trkpt>
      <trkpt lat="44.10938" lon="7.06725">
        <ele>1654.576</ele>
        <time>2012-03-17T12:16:47Z</time>
      </trkpt>
      <trkpt lat="44.10938" lon="7.06746">
        <ele>1652.129</ele>
        <time>2012-03-17T12:16:51Z</time>
      </trkpt>
      <trkpt lat="44.1094" lon="7.06771">
        <ele>1647.428</ele>
        <time>2012-03-17T12:16:55Z</time>
      </trkpt>
      <trkpt lat="44.10945" lon="7.06804">
        <ele>1641.525</ele>
        <time>2012-03-17T12:17:00Z</time>
      </trkpt>
      <trkpt lat="44.10949" lon="7.06826">
        <ele>1638.466</ele>
        <time>2012-03-17T12:17:03Z</time>
      </trkpt>
      <trkpt lat="44.10953" lon="7.06853">
        <ele>1632.654</ele>
        <time>2012-03-17T12:17:07Z</time>
      </trkpt>
      <trkpt lat="44.10963" lon="7.06885">
        <ele>1625.895</ele>
        <time>2012-03-17T12:17:12Z</time>
      </trkpt>
      <trkpt lat="44.10974" lon="7.06924">
        <ele>1619.043</ele>
        <time>2012-03-17T12:17:17Z</time>
      </trkpt>
      <trkpt lat="44.10981" lon="7.06954">
        <ele>1612.022</ele>
        <time>2012-03-17T12:17:22Z</time>
      </trkpt>
      <trkpt lat="44.10982" lon="7.06961">
        <ele>1610.888</ele>
        <time>2012-03-17T12:17:25Z</time>
      </trkpt>
      <trkpt lat="44.10981" lon="7.06961">
        <ele>1609.519</ele>
        <time>2012-03-17T12:17:38Z</time>
      </trkpt>
      <trkpt lat="44.10989" lon="7.0698">
        <ele>1608.867</ele>
        <time>2012-03-17T12:17:43Z</time>
      </trkpt>
      <trkpt lat="44.10989" lon="7.06987">
        <ele>1607.325</ele>
        <time>2012-03-17T12:17:44Z</time>
      </trkpt>
      <trkpt lat="44.1099" lon="7.07019">
        <ele>1604.104</ele>
        <time>2012-03-17T12:17:49Z</time>
      </trkpt>
      <trkpt lat="44.10989" lon="7.07035">
        <ele>1601.843</ele>
        <time>2012-03-17T12:17:52Z</time>
      </trkpt>
      <trkpt lat="44.10996" lon="7.07065">
        <ele>1594.208</ele>
        <time>2012-03-17T12:17:58Z</time>
      </trkpt>
      <trkpt lat="44.10996" lon="7.0707">
        <ele>1593.739</ele>
        <time>2012-03-17T12:17:59Z</time>
      </trkpt>
      <trkpt lat="44.11" lon="7.07076">
        <ele>1591.47</ele>
        <time>2012-03-17T12:18:02Z</time>
      </trkpt>
      <trkpt lat="44.10999" lon="7.07087">
        <ele>1588.319</ele>
        <time>2012-03-17T12:18:06Z</time>
      </trkpt>
      <trkpt lat="44.10991" lon="7.07095">
        <ele>1585.1</ele>
        <time>2012-03-17T12:18:09Z</time>
      </trkpt>
      <trkpt lat="44.10984" lon="7.071">
        <ele>1581.767</ele>
        <time>2012-03-17T12:18:11Z</time>
      </trkpt>
      <trkpt lat="44.10962" lon="7.07116">
        <ele>1571.804</ele>
        <time>2012-03-17T12:18:17Z</time>
      </trkpt>
      <trkpt lat="44.10946" lon="7.0713">
        <ele>1568.118</ele>
        <time>2012-03-17T12:18:21Z</time>
      </trkpt>
      <trkpt lat="44.10929" lon="7.07148">
        <ele>1563.027</ele>
        <time>2012-03-17T12:18:25Z</time>
      </trkpt>
      <trkpt lat="44.10907" lon="7.07166">
        <ele>1560.33</ele>
        <time>2012-03-17T12:18:29Z</time>
      </trkpt>
      <trkpt lat="44.10878" lon="7.07189">
        <ele>1552.965</ele>
        <time>2012-03-17T12:18:34Z</time>
      </trkpt>
      <trkpt lat="44.1086" lon="7.0722">
        <ele>1546.655</ele>
        <time>2012-03-17T12:18:39Z</time>
      </trkpt>
      <trkpt lat="44.10849" lon="7.0727">
        <ele>1541.707</ele>
        <time>2012-03-17T12:18:45Z</time>
      </trkpt>
      <trkpt lat="44.10846" lon="7.07278">
        <ele>1541.088</ele>
        <time>2012-03-17T12:18:46Z</time>
      </trkpt>
      <trkpt lat="44.1084" lon="7.07292">
        <ele>1538.749</ele>
        <time>2012-03-17T12:18:48Z</time>
      </trkpt>
      <trkpt lat="44.10832" lon="7.07318">
        <ele>1533.372</ele>
        <time>2012-03-17T12:18:53Z</time>
      </trkpt>
      <trkpt lat="44.10828" lon="7.07338">
        <ele>1530.43</ele>
        <time>2012-03-17T12:18:57Z</time>
      </trkpt>
      <trkpt lat="44.10824" lon="7.07355">
        <ele>1526.869</ele>
        <time>2012-03-17T12:19:00Z</time>
      </trkpt>
      <trkpt lat="44.10817" lon="7.07377">
        <ele>1521.087</ele>
        <time>2012-03-17T12:19:04Z</time>
      </trkpt>
      <trkpt lat="44.10805" lon="7.0741">
        <ele>1511.685</ele>
        <time>2012-03-17T12:19:11Z</time>
      </trkpt>
      <trkpt lat="44.108" lon="7.0742">
        <ele>1509.174</ele>
        <time>2012-03-17T12:19:13Z</time>
      </trkpt>
      <trkpt lat="44.10787" lon="7.07459">
        <ele>1504.404</ele>
        <time>2012-03-17T12:19:19Z</time>
      </trkpt>
      <trkpt lat="44.10785" lon="7.07464">
        <ele>1503.637</ele>
        <time>2012-03-17T12:19:20Z</time>
      </trkpt>
      <trkpt lat="44.10778" lon="7.07483">
        <ele>1502.109</ele>
        <time>2012-03-17T12:19:24Z</time>
      </trkpt>
      <trkpt lat="44.10777" lon="7.07486">
        <ele>1505.516</ele>
        <time>2012-03-17T12:19:28Z</time>
      </trkpt>
      <trkpt lat="44.10778" lon="7.07483">
        <ele>1502.021</ele>
        <time>2012-03-17T12:19:42Z</time>
      </trkpt>
      <trkpt lat="44.10773" lon="7.07495">
        <ele>1495.172</ele>
        <time>2012-03-17T12:21:12Z</time>
      </trkpt>
      <trkpt lat="44.10765" lon="7.07517">
        <ele>1493.379</ele>
        <time>2012-03-17T12:21:16Z</time>
      </trkpt>
      <trkpt lat="44.10758" lon="7.0754">
        <ele>1492.779</ele>
        <time>2012-03-17T12:21:19Z</time>
      </trkpt>
      <trkpt lat="44.10747" lon="7.07568">
        <ele>1492.811</ele>
        <time>2012-03-17T12:21:23Z</time>
      </trkpt>
      <trkpt lat="44.10741" lon="7.07594">
        <ele>1488.665</ele>
        <time>2012-03-17T12:21:27Z</time>
      </trkpt>
      <trkpt lat="44.10739" lon="7.07602">
        <ele>1487.845</ele>
        <time>2012-03-17T12:21:28Z</time>
      </trkpt>
      <trkpt lat="44.10726" lon="7.07646">
        <ele>1483.343</ele>
        <time>2012-03-17T12:21:34Z</time>
      </trkpt>
      <trkpt lat="44.1072" lon="7.0766">
        <ele>1480.481</ele>
        <time>2012-03-17T12:21:36Z</time>
      </trkpt>
      <trkpt lat="44.10713" lon="7.07674">
        <ele>1477.797</ele>
        <time>2012-03-17T12:21:38Z</time>
      </trkpt>
      <trkpt lat="44.10704" lon="7.07702">
        <ele>1478.563</ele>
        <time>2012-03-17T12:21:42Z</time>
      </trkpt>
      <trkpt lat="44.10699" lon="7.07741">
        <ele>1472.668</ele>
        <time>2012-03-17T12:21:47Z</time>
      </trkpt>
      <trkpt lat="44.10703" lon="7.07758">
        <ele>1470.689</ele>
        <time>2012-03-17T12:21:49Z</time>
      </trkpt>
      <trkpt lat="44.10699" lon="7.07797">
        <ele>1464.015</ele>
        <time>2012-03-17T12:21:54Z</time>
      </trkpt>
      <trkpt lat="44.10691" lon="7.07828">
        <ele>1461.368</ele>
        <time>2012-03-17T12:21:58Z</time>
      </trkpt>
      <trkpt lat="44.10688" lon="7.07843">
        <ele>1461.82</ele>
        <time>2012-03-17T12:22:00Z</time>
      </trkpt>
      <trkpt lat="44.10676" lon="7.07884">
        <ele>1457.751</ele>
        <time>2012-03-17T12:22:05Z</time>
      </trkpt>
      <trkpt lat="44.10657" lon="7.07938">
        <ele>1457.787</ele>
        <time>2012-03-17T12:22:11Z</time>
      </trkpt>
      <trkpt lat="44.1065" lon="7.07956">
        <ele>1456.827</ele>
        <time>2012-03-17T12:22:13Z</time>
      </trkpt>
      <trkpt lat="44.1064" lon="7.07989">
        <ele>1454.486</ele>
        <time>2012-03-17T12:22:17Z</time>
      </trkpt>
      <trkpt lat="44.1064" lon="7.07988">
        <ele>1452.635</ele>
        <time>2012-03-17T12:22:19Z</time>
      </trkpt>
      <trkpt lat="44.10638" lon="7.07987">
        <ele>1452.72</ele>
        <time>2012-03-17T12:22:22Z</time>
      </trkpt>
      <trkpt lat="44.10639" lon="7.07994">
        <ele>1450.507</ele>
        <time>2012-03-17T12:22:26Z</time>
      </trkpt>
      <trkpt lat="44.10633" lon="7.08014">
        <ele>1448.528</ele>
        <time>2012-03-17T12:22:32Z</time>
      </trkpt>
      <trkpt lat="44.10629" lon="7.08031">
        <ele>1448.64</ele>
        <time>2012-03-17T12:22:35Z</time>
      </trkpt>
      <trkpt lat="44.10616" lon="7.08061">
        <ele>1448.182</ele>
        <time>2012-03-17T12:22:39Z</time>
      </trkpt>
      <trkpt lat="44.10612" lon="7.08082">
        <ele>1449.404</ele>
        <time>2012-03-17T12:22:41Z</time>
      </trkpt>
      <trkpt lat="44.10604" lon="7.08103">
        <ele>1445.78</ele>
        <time>2012-03-17T12:22:44Z</time>
      </trkpt>
      <trkpt lat="44.10593" lon="7.08141">
        <ele>1442.807</ele>
        <time>2012-03-17T12:22:49Z</time>
      </trkpt>
      <trkpt lat="44.10579" lon="7.08169">
        <ele>1437.704</ele>
        <time>2012-03-17T12:22:53Z</time>
      </trkpt>
      <trkpt lat="44.10573" lon="7.08185">
        <ele>1436.954</ele>
        <time>2012-03-17T12:22:55Z</time>
      </trkpt>
      <trkpt lat="44.1056" lon="7.08226">
        <ele>1430.561</ele>
        <time>2012-03-17T12:23:01Z</time>
      </trkpt>
      <trkpt lat="44.10556" lon="7.08235">
        <ele>1426.949</ele>
        <time>2012-03-17T12:23:03Z</time>
      </trkpt>
      <trkpt lat="44.10542" lon="7.08264">
        <ele>1422.468</ele>
        <time>2012-03-17T12:23:07Z</time>
      </trkpt>
      <trkpt lat="44.10541" lon="7.08278">
        <ele>1418.934</ele>
        <time>2012-03-17T12:23:11Z</time>
      </trkpt>
      <trkpt lat="44.10542" lon="7.08275">
        <ele>1420.356</ele>
        <time>2012-03-17T12:23:14Z</time>
      </trkpt>
      <trkpt lat="44.10542" lon="7.08269">
        <ele>1420.048</ele>
        <time>2012-03-17T12:23:18Z</time>
      </trkpt>
      <trkpt lat="44.10547" lon="7.08262">
        <ele>1421.233</ele>
        <time>2012-03-17T12:23:26Z</time>
      </trkpt>
      <trkpt lat="44.10549" lon="7.0826">
        <ele>1421.173</ele>
        <time>2012-03-17T12:23:29Z</time>
      </trkpt>
      <trkpt lat="44.1055" lon="7.08254">
        <ele>1420.191</ele>
        <time>2012-03-17T12:23:37Z</time>
      </trkpt>
      <trkpt lat="44.10552" lon="7.08247">
        <ele>1422.693</ele>
        <time>2012-03-17T12:25:50Z</time>
      </trkpt>
      <trkpt lat="44.10555" lon="7.08241">
        <ele>1422.061</ele>
        <time>2012-03-17T12:25:54Z</time>
      </trkpt>
      <trkpt lat="44.10561" lon="7.08227">
        <ele>1420.354</ele>
        <time>2012-03-17T12:26:02Z</time>
      </trkpt>
      <trkpt lat="44.10565" lon="7.08217">
        <ele>1423.498</ele>
        <time>2012-03-17T12:26:08Z</time>
      </trkpt>
      <trkpt lat="44.1057" lon="7.08202">
        <ele>1423.623</ele>
        <time>2012-03-17T12:26:15Z</time>
      </trkpt>
      <trkpt lat="44.10576" lon="7.08188">
        <ele>1424.423</ele>
        <time>2012-03-17T12:26:23Z</time>
      </trkpt>
      <trkpt lat="44.10581" lon="7.08175">
        <ele>1424.542</ele>
        <time>2012-03-17T12:26:30Z</time>
      </trkpt>
      <trkpt lat="44.10587" lon="7.08161">
        <ele>1426.535</ele>
        <time>2012-03-17T12:26:37Z</time>
      </trkpt>
      <trkpt lat="44.10594" lon="7.08143">
        <ele>1430.167</ele>
        <time>2012-03-17T12:26:44Z</time>
      </trkpt>
      <trkpt lat="44.106" lon="7.08129">
        <ele>1432.036</ele>
        <time>2012-03-17T12:26:50Z</time>
      </trkpt>
      <trkpt lat="44.10606" lon="7.08115">
        <ele>1433.726</ele>
        <time>2012-03-17T12:26:56Z</time>
      </trkpt>
      <trkpt lat="44.10616" lon="7.081">
        <ele>1436.399</ele>
        <time>2012-03-17T12:27:03Z</time>
      </trkpt>
      <trkpt lat="44.10626" lon="7.0808">
        <ele>1437.445</ele>
        <time>2012-03-17T12:27:11Z</time>
      </trkpt>
      <trkpt lat="44.10633" lon="7.08063">
        <ele>1436.352</ele>
        <time>2012-03-17T12:27:17Z</time>
      </trkpt>
      <trkpt lat="44.1064" lon="7.08043">
        <ele>1435.162</ele>
        <time>2012-03-17T12:27:24Z</time>
      </trkpt>
      <trkpt lat="44.10646" lon="7.08031">
        <ele>1435.755</ele>
        <time>2012-03-17T12:27:29Z</time>
      </trkpt>
      <trkpt lat="44.10656" lon="7.08009">
        <ele>1436.864</ele>
        <time>2012-03-17T12:27:37Z</time>
      </trkpt>
      <trkpt lat="44.10666" lon="7.07983">
        <ele>1437.023</ele>
        <time>2012-03-17T12:27:46Z</time>
      </trkpt>
      <trkpt lat="44.10673" lon="7.07967">
        <ele>1438.084</ele>
        <time>2012-03-17T12:27:52Z</time>
      </trkpt>
      <trkpt lat="44.10685" lon="7.0794">
        <ele>1438.914</ele>
        <time>2012-03-17T12:28:00Z</time>
      </trkpt>
      <trkpt lat="44.10698" lon="7.07911">
        <ele>1439.202</ele>
        <time>2012-03-17T12:28:07Z</time>
      </trkpt>
      <trkpt lat="44.10713" lon="7.07878">
        <ele>1437.04</ele>
        <time>2012-03-17T12:28:15Z</time>
      </trkpt>
      <trkpt lat="44.10727" lon="7.07845">
        <ele>1435.099</ele>
        <time>2012-03-17T12:28:22Z</time>
      </trkpt>
      <trkpt lat="44.10738" lon="7.07811">
        <ele>1433.64</ele>
        <time>2012-03-17T12:28:28Z</time>
      </trkpt>
      <trkpt lat="44.10743" lon="7.07766">
        <ele>1433.702</ele>
        <time>2012-03-17T12:28:36Z</time>
      </trkpt>
      <trkpt lat="44.10745" lon="7.07745">
        <ele>1433.031</ele>
        <time>2012-03-17T12:28:40Z</time>
      </trkpt>
      <trkpt lat="44.10762" lon="7.07722">
        <ele>1434.102</ele>
        <time>2012-03-17T12:28:45Z</time>
      </trkpt>
      <trkpt lat="44.10784" lon="7.07697">
        <ele>1434.455</ele>
        <time>2012-03-17T12:28:52Z</time>
      </trkpt>
      <trkpt lat="44.10805" lon="7.0767">
        <ele>1433.393</ele>
        <time>2012-03-17T12:29:00Z</time>
      </trkpt>
      <trkpt lat="44.1082" lon="7.07644">
        <ele>1432.732</ele>
        <time>2012-03-17T12:29:07Z</time>
      </trkpt>
      <trkpt lat="44.10834" lon="7.07631">
        <ele>1433.032</ele>
        <time>2012-03-17T12:29:13Z</time>
      </trkpt>
      <trkpt lat="44.1085" lon="7.07614">
        <ele>1435.102</ele>
        <time>2012-03-17T12:29:19Z</time>
      </trkpt>
      <trkpt lat="44.10864" lon="7.07597">
        <ele>1436.852</ele>
        <time>2012-03-17T12:29:25Z</time>
      </trkpt>
      <trkpt lat="44.10876" lon="7.07579">
        <ele>1438.653</ele>
        <time>2012-03-17T12:29:30Z</time>
      </trkpt>
      <trkpt lat="44.1089" lon="7.07556">
        <ele>1436.663</ele>
        <time>2012-03-17T12:29:36Z</time>
      </trkpt>
      <trkpt lat="44.10904" lon="7.07539">
        <ele>1439.747</ele>
        <time>2012-03-17T12:29:42Z</time>
      </trkpt>
      <trkpt lat="44.10917" lon="7.07522">
        <ele>1444.469</ele>
        <time>2012-03-17T12:29:48Z</time>
      </trkpt>
      <trkpt lat="44.10931" lon="7.07503">
        <ele>1448.29</ele>
        <time>2012-03-17T12:29:55Z</time>
      </trkpt>
      <trkpt lat="44.10945" lon="7.07479">
        <ele>1447.507</ele>
        <time>2012-03-17T12:30:02Z</time>
      </trkpt>
      <trkpt lat="44.10953" lon="7.0746">
        <ele>1448.136</ele>
        <time>2012-03-17T12:30:08Z</time>
      </trkpt>
      <trkpt lat="44.10965" lon="7.07438">
        <ele>1445.685</ele>
        <time>2012-03-17T12:30:15Z</time>
      </trkpt>
      <trkpt lat="44.10975" lon="7.07423">
        <ele>1446.975</ele>
        <time>2012-03-17T12:30:23Z</time>
      </trkpt>
      <trkpt lat="44.10984" lon="7.07415">
        <ele>1448.057</ele>
        <time>2012-03-17T12:30:29Z</time>
      </trkpt>
      <trkpt lat="44.11002" lon="7.07406">
        <ele>1449.454</ele>
        <time>2012-03-17T12:30:37Z</time>
      </trkpt>
      <trkpt lat="44.11018" lon="7.07403">
        <ele>1450.274</ele>
        <time>2012-03-17T12:30:44Z</time>
      </trkpt>
      <trkpt lat="44.11034" lon="7.074">
        <ele>1451.313</ele>
        <time>2012-03-17T12:30:51Z</time>
      </trkpt>
      <trkpt lat="44.1105" lon="7.07397">
        <ele>1452.676</ele>
        <time>2012-03-17T12:30:58Z</time>
      </trkpt>
      <trkpt lat="44.11066" lon="7.07397">
        <ele>1452.733</ele>
        <time>2012-03-17T12:31:06Z</time>
      </trkpt>
      <trkpt lat="44.11081" lon="7.07398">
        <ele>1455.217</ele>
        <time>2012-03-17T12:31:14Z</time>
      </trkpt>
      <trkpt lat="44.11096" lon="7.07402">
        <ele>1459.869</ele>
        <time>2012-03-17T12:31:22Z</time>
      </trkpt>
      <trkpt lat="44.11108" lon="7.07404">
        <ele>1460.655</ele>
        <time>2012-03-17T12:31:28Z</time>
      </trkpt>
      <trkpt lat="44.11117" lon="7.07404">
        <ele>1458.903</ele>
        <time>2012-03-17T12:31:33Z</time>
      </trkpt>
      <trkpt lat="44.11133" lon="7.07409">
        <ele>1460.144</ele>
        <time>2012-03-17T12:31:41Z</time>
      </trkpt>
      <trkpt lat="44.11151" lon="7.07412">
        <ele>1457.801</ele>
        <time>2012-03-17T12:31:49Z</time>
      </trkpt>
      <trkpt lat="44.11166" lon="7.07411">
        <ele>1458.953</ele>
        <time>2012-03-17T12:31:56Z</time>
      </trkpt>
      <trkpt lat="44.11177" lon="7.07405">
        <ele>1459.723</ele>
        <time>2012-03-17T12:32:02Z</time>
      </trkpt>
      <trkpt lat="44.11191" lon="7.07396">
        <ele>1459.111</ele>
        <time>2012-03-17T12:32:10Z</time>
      </trkpt>
      <trkpt lat="44.11209" lon="7.07382">
        <ele>1459.151</ele>
        <time>2012-03-17T12:32:17Z</time>
      </trkpt>
      <trkpt lat="44.11223" lon="7.07364">
        <ele>1458.501</ele>
        <time>2012-03-17T12:32:23Z</time>
      </trkpt>
      <trkpt lat="44.11241" lon="7.07341">
        <ele>1459.882</ele>
        <time>2012-03-17T12:32:30Z</time>
      </trkpt>
      <trkpt lat="44.11264" lon="7.07302">
        <ele>1456.78</ele>
        <time>2012-03-17T12:32:39Z</time>
      </trkpt>
      <trkpt lat="44.1127" lon="7.07284">
        <ele>1457.053</ele>
        <time>2012-03-17T12:32:43Z</time>
      </trkpt>
      <trkpt lat="44.11283" lon="7.07272">
        <ele>1455.751</ele>
        <time>2012-03-17T12:32:47Z</time>
      </trkpt>
      <trkpt lat="44.11293" lon="7.07257">
        <ele>1454.569</ele>
        <time>2012-03-17T12:32:50Z</time>
      </trkpt>
      <trkpt lat="44.113" lon="7.07237">
        <ele>1454.611</ele>
        <time>2012-03-17T12:32:54Z</time>
      </trkpt>
      <trkpt lat="44.11317" lon="7.07229">
        <ele>1455.491</ele>
        <time>2012-03-17T12:32:58Z</time>
      </trkpt>
      <trkpt lat="44.11322" lon="7.07231">
        <ele>1455.482</ele>
        <time>2012-03-17T12:32:59Z</time>
      </trkpt>
      <trkpt lat="44.11352" lon="7.07239">
        <ele>1454.59</ele>
        <time>2012-03-17T12:33:06Z</time>
      </trkpt>
      <trkpt lat="44.1137" lon="7.07247">
        <ele>1454.821</ele>
        <time>2012-03-17T12:33:11Z</time>
      </trkpt>
      <trkpt lat="44.11393" lon="7.07255">
        <ele>1453.169</ele>
        <time>2012-03-17T12:33:17Z</time>
      </trkpt>
      <trkpt lat="44.11402" lon="7.07242">
        <ele>1452.292</ele>
        <time>2012-03-17T12:33:21Z</time>
      </trkpt>
      <trkpt lat="44.11413" lon="7.07217">
        <ele>1451.16</ele>
        <time>2012-03-17T12:33:27Z</time>
      </trkpt>
      <trkpt lat="44.11426" lon="7.07182">
        <ele>1451.192</ele>
        <time>2012-03-17T12:33:34Z</time>
      </trkpt>
      <trkpt lat="44.11426" lon="7.07162">
        <ele>1452.196</ele>
        <time>2012-03-17T12:33:38Z</time>
      </trkpt>
      <trkpt lat="44.11417" lon="7.07138">
        <ele>1451.622</ele>
        <time>2012-03-17T12:33:43Z</time>
      </trkpt>
      <trkpt lat="44.11414" lon="7.07118">
        <ele>1452.814</ele>
        <time>2012-03-17T12:33:47Z</time>
      </trkpt>
      <trkpt lat="44.11418" lon="7.07092">
        <ele>1453.694</ele>
        <time>2012-03-17T12:33:52Z</time>
      </trkpt>
      <trkpt lat="44.11427" lon="7.07077">
        <ele>1454.404</ele>
        <time>2012-03-17T12:33:56Z</time>
      </trkpt>
      <trkpt lat="44.11447" lon="7.07068">
        <ele>1457.054</ele>
        <time>2012-03-17T12:34:02Z</time>
      </trkpt>
      <trkpt lat="44.11467" lon="7.07056">
        <ele>1456.781</ele>
        <time>2012-03-17T12:34:07Z</time>
      </trkpt>
      <trkpt lat="44.11489" lon="7.07034">
        <ele>1453.31</ele>
        <time>2012-03-17T12:34:14Z</time>
      </trkpt>
      <trkpt lat="44.11505" lon="7.07014">
        <ele>1455.084</ele>
        <time>2012-03-17T12:34:20Z</time>
      </trkpt>
      <trkpt lat="44.11522" lon="7.06985">
        <ele>1455.553</ele>
        <time>2012-03-17T12:34:27Z</time>
      </trkpt>
      <trkpt lat="44.1153" lon="7.0696">
        <ele>1457.197</ele>
        <time>2012-03-17T12:34:33Z</time>
      </trkpt>
      <trkpt lat="44.11544" lon="7.06933">
        <ele>1455.442</ele>
        <time>2012-03-17T12:34:39Z</time>
      </trkpt>
      <trkpt lat="44.11547" lon="7.06907">
        <ele>1454.353</ele>
        <time>2012-03-17T12:34:44Z</time>
      </trkpt>
      <trkpt lat="44.11544" lon="7.0688">
        <ele>1454.495</ele>
        <time>2012-03-17T12:34:50Z</time>
      </trkpt>
      <trkpt lat="44.11536" lon="7.06857">
        <ele>1453.004</ele>
        <time>2012-03-17T12:34:55Z</time>
      </trkpt>
      <trkpt lat="44.11528" lon="7.0683">
        <ele>1453.404</ele>
        <time>2012-03-17T12:35:01Z</time>
      </trkpt>
      <trkpt lat="44.11519" lon="7.06802">
        <ele>1453.022</ele>
        <time>2012-03-17T12:35:07Z</time>
      </trkpt>
      <trkpt lat="44.11522" lon="7.06789">
        <ele>1453.774</ele>
        <time>2012-03-17T12:35:10Z</time>
      </trkpt>
      <trkpt lat="44.11533" lon="7.06774">
        <ele>1455.243</ele>
        <time>2012-03-17T12:35:15Z</time>
      </trkpt>
      <trkpt lat="44.11546" lon="7.06751">
        <ele>1454.611</ele>
        <time>2012-03-17T12:35:21Z</time>
      </trkpt>
      <trkpt lat="44.11554" lon="7.06731">
        <ele>1454.402</ele>
        <time>2012-03-17T12:35:26Z</time>
      </trkpt>
      <trkpt lat="44.11562" lon="7.06705">
        <ele>1454.754</ele>
        <time>2012-03-17T12:35:32Z</time>
      </trkpt>
      <trkpt lat="44.11566" lon="7.06674">
        <ele>1455.845</ele>
        <time>2012-03-17T12:35:39Z</time>
      </trkpt>
      <trkpt lat="44.11568" lon="7.06651">
        <ele>1457.014</ele>
        <time>2012-03-17T12:35:44Z</time>
      </trkpt>
      <trkpt lat="44.11573" lon="7.06622">
        <ele>1457.594</ele>
        <time>2012-03-17T12:35:51Z</time>
      </trkpt>
      <trkpt lat="44.11579" lon="7.06591">
        <ele>1457.334</ele>
        <time>2012-03-17T12:35:59Z</time>
      </trkpt>
      <trkpt lat="44.11584" lon="7.06569">
        <ele>1456.511</ele>
        <time>2012-03-17T12:36:05Z</time>
      </trkpt>
      <trkpt lat="44.11593" lon="7.06543">
        <ele>1456.704</ele>
        <time>2012-03-17T12:36:12Z</time>
      </trkpt>
      <trkpt lat="44.11602" lon="7.06519">
        <ele>1455.731</ele>
        <time>2012-03-17T12:36:18Z</time>
      </trkpt>
      <trkpt lat="44.11614" lon="7.06497">
        <ele>1454.151</ele>
        <time>2012-03-17T12:36:24Z</time>
      </trkpt>
      <trkpt lat="44.1163" lon="7.06464">
        <ele>1455.153</ele>
        <time>2012-03-17T12:36:33Z</time>
      </trkpt>
      <trkpt lat="44.11639" lon="7.06448">
        <ele>1457.248</ele>
        <time>2012-03-17T12:36:38Z</time>
      </trkpt>
      <trkpt lat="44.11649" lon="7.06425">
        <ele>1458.054</ele>
        <time>2012-03-17T12:36:45Z</time>
      </trkpt>
      <trkpt lat="44.11664" lon="7.0641">
        <ele>1461.245</ele>
        <time>2012-03-17T12:36:51Z</time>
      </trkpt>
      <trkpt lat="44.1168" lon="7.06387">
        <ele>1463.374</ele>
        <time>2012-03-17T12:36:59Z</time>
      </trkpt>
      <trkpt lat="44.11689" lon="7.06365">
        <ele>1465.155</ele>
        <time>2012-03-17T12:37:06Z</time>
      </trkpt>
      <trkpt lat="44.11697" lon="7.06345">
        <ele>1466.396</ele>
        <time>2012-03-17T12:37:12Z</time>
      </trkpt>
      <trkpt lat="44.11703" lon="7.06324">
        <ele>1465.513</ele>
        <time>2012-03-17T12:37:18Z</time>
      </trkpt>
      <trkpt lat="44.11705" lon="7.06303">
        <ele>1465.475</ele>
        <time>2012-03-17T12:37:24Z</time>
      </trkpt>
      <trkpt lat="44.11704" lon="7.06294">
        <ele>1462.418</ele>
        <time>2012-03-17T12:37:29Z</time>
      </trkpt>
      <trkpt lat="44.11706" lon="7.06297">
        <ele>1464.421</ele>
        <time>2012-03-17T12:40:03Z</time>
      </trkpt>
      <trkpt lat="44.11712" lon="7.06288">
        <ele>1462.004</ele>
        <time>2012-03-17T12:40:08Z</time>
      </trkpt>
      <trkpt lat="44.11717" lon="7.0629">
        <ele>1460.643</ele>
        <time>2012-03-17T12:40:10Z</time>
      </trkpt>
      <trkpt lat="44.11731" lon="7.06308">
        <ele>1457.873</ele>
        <time>2012-03-17T12:40:15Z</time>
      </trkpt>
      <trkpt lat="44.11737" lon="7.06327">
        <ele>1456.105</ele>
        <time>2012-03-17T12:40:20Z</time>
      </trkpt>
      <trkpt lat="44.11737" lon="7.06348">
        <ele>1454.596</ele>
        <time>2012-03-17T12:40:24Z</time>
      </trkpt>
      <trkpt lat="44.1174" lon="7.06369">
        <ele>1450.342</ele>
        <time>2012-03-17T12:40:28Z</time>
      </trkpt>
      <trkpt lat="44.11743" lon="7.064">
        <ele>1447.011</ele>
        <time>2012-03-17T12:40:33Z</time>
      </trkpt>
      <trkpt lat="44.11745" lon="7.06416">
        <ele>1444.86</ele>
        <time>2012-03-17T12:40:36Z</time>
      </trkpt>
      <trkpt lat="44.11746" lon="7.06441">
        <ele>1444.032</ele>
        <time>2012-03-17T12:40:40Z</time>
      </trkpt>
      <trkpt lat="44.11738" lon="7.06452">
        <ele>1441.74</ele>
        <time>2012-03-17T12:40:42Z</time>
      </trkpt>
      <trkpt lat="44.11717" lon="7.06478">
        <ele>1435.662</ele>
        <time>2012-03-17T12:40:46Z</time>
      </trkpt>
      <trkpt lat="44.11705" lon="7.065">
        <ele>1430.614</ele>
        <time>2012-03-17T12:40:50Z</time>
      </trkpt>
      <trkpt lat="44.11707" lon="7.06512">
        <ele>1425.585</ele>
        <time>2012-03-17T12:40:54Z</time>
      </trkpt>
      <trkpt lat="44.11715" lon="7.06523">
        <ele>1422.375</ele>
        <time>2012-03-17T12:40:58Z</time>
      </trkpt>
      <trkpt lat="44.11716" lon="7.0653">
        <ele>1417.887</ele>
        <time>2012-03-17T12:41:02Z</time>
      </trkpt>
      <trkpt lat="44.11716" lon="7.06539">
        <ele>1415.908</ele>
        <time>2012-03-17T12:41:05Z</time>
      </trkpt>
      <trkpt lat="44.11717" lon="7.06542">
        <ele>1414.968</ele>
        <time>2012-03-17T12:41:06Z</time>
      </trkpt>
      <trkpt lat="44.11717" lon="7.06559">
        <ele>1410.198</ele>
        <time>2012-03-17T12:41:11Z</time>
      </trkpt>
      <trkpt lat="44.11723" lon="7.06573">
        <ele>1407.57</ele>
        <time>2012-03-17T12:41:15Z</time>
      </trkpt>
      <trkpt lat="44.11722" lon="7.0658">
        <ele>1404.939</ele>
        <time>2012-03-17T12:41:18Z</time>
      </trkpt>
      <trkpt lat="44.11716" lon="7.06578">
        <ele>1404.664</ele>
        <time>2012-03-17T12:41:23Z</time>
      </trkpt>
      <trkpt lat="44.11716" lon="7.06579">
        <ele>1405.269</ele>
        <time>2012-03-17T12:41:26Z</time>
      </trkpt>
      <trkpt lat="44.11719" lon="7.06577">
        <ele>1404.557</ele>
        <time>2012-03-17T12:41:29Z</time>
      </trkpt>
      <trkpt lat="44.11725" lon="7.06576">
        <ele>1403.979</ele>
        <time>2012-03-17T12:41:35Z</time>
      </trkpt>
      <trkpt lat="44.11727" lon="7.06577">
        <ele>1403.441</ele>
        <time>2012-03-17T12:41:41Z</time>
      </trkpt>
      <trkpt lat="44.11726" lon="7.06576">
        <ele>1408.341</ele>
        <time>2012-03-17T12:42:03Z</time>
      </trkpt>
      <trkpt lat="44.11733" lon="7.06582">
        <ele>1406.918</ele>
        <time>2012-03-17T12:42:09Z</time>
      </trkpt>
      <trkpt lat="44.11733" lon="7.06582">
        <ele>1406.59</ele>
        <time>2012-03-17T12:42:10Z</time>
      </trkpt>
      <trkpt lat="44.11737" lon="7.06586">
        <ele>1405.78</ele>
        <time>2012-03-17T12:42:15Z</time>
      </trkpt>
      <trkpt lat="44.11732" lon="7.06587">
        <ele>1404.589</ele>
        <time>2012-03-17T12:42:19Z</time>
      </trkpt>
      <trkpt lat="44.11732" lon="7.06587">
        <ele>1404.088</ele>
        <time>2012-03-17T12:42:22Z</time>
      </trkpt>
      <trkpt lat="44.11731" lon="7.06582">
        <ele>1405.131</ele>
        <time>2012-03-17T12:42:29Z</time>
      </trkpt>
      <trkpt lat="44.11724" lon="7.06596">
        <ele>1402.554</ele>
        <time>2012-03-17T12:42:34Z</time>
      </trkpt>
      <trkpt lat="44.11723" lon="7.066">
        <ele>1402.195</ele>
        <time>2012-03-17T12:42:35Z</time>
      </trkpt>
      <trkpt lat="44.1172" lon="7.06622">
        <ele>1398.962</ele>
        <time>2012-03-17T12:42:40Z</time>
      </trkpt>
      <trkpt lat="44.1172" lon="7.06643">
        <ele>1396.343</ele>
        <time>2012-03-17T12:42:46Z</time>
      </trkpt>
      <trkpt lat="44.11716" lon="7.06658">
        <ele>1392.069</ele>
        <time>2012-03-17T12:42:50Z</time>
      </trkpt>
      <trkpt lat="44.11712" lon="7.06682">
        <ele>1390.011</ele>
        <time>2012-03-17T12:42:55Z</time>
      </trkpt>
      <trkpt lat="44.11706" lon="7.06698">
        <ele>1388.456</ele>
        <time>2012-03-17T12:43:00Z</time>
      </trkpt>
      <trkpt lat="44.11705" lon="7.067">
        <ele>1388.487</ele>
        <time>2012-03-17T12:43:01Z</time>
      </trkpt>
      <trkpt lat="44.11694" lon="7.06708">
        <ele>1390.271</ele>
        <time>2012-03-17T12:43:07Z</time>
      </trkpt>
      <trkpt lat="44.11694" lon="7.06721">
        <ele>1387.313</ele>
        <time>2012-03-17T12:43:12Z</time>
      </trkpt>
      <trkpt lat="44.11693" lon="7.06725">
        <ele>1386.984</ele>
        <time>2012-03-17T12:43:13Z</time>
      </trkpt>
      <trkpt lat="44.11685" lon="7.06736">
        <ele>1387.368</ele>
        <time>2012-03-17T12:43:18Z</time>
      </trkpt>
      <trkpt lat="44.11681" lon="7.0675">
        <ele>1384.374</ele>
        <time>2012-03-17T12:43:23Z</time>
      </trkpt>
      <trkpt lat="44.1168" lon="7.06752">
        <ele>1383.923</ele>
        <time>2012-03-17T12:43:24Z</time>
      </trkpt>
      <trkpt lat="44.11676" lon="7.06766">
        <ele>1379</ele>
        <time>2012-03-17T12:43:28Z</time>
      </trkpt>
      <trkpt lat="44.11671" lon="7.06773">
        <ele>1378.153</ele>
        <time>2012-03-17T12:43:30Z</time>
      </trkpt>
      <trkpt lat="44.11661" lon="7.06786">
        <ele>1378.267</ele>
        <time>2012-03-17T12:43:36Z</time>
      </trkpt>
      <trkpt lat="44.11661" lon="7.06798">
        <ele>1374.463</ele>
        <time>2012-03-17T12:43:41Z</time>
      </trkpt>
      <trkpt lat="44.11663" lon="7.06805">
        <ele>1373.157</ele>
        <time>2012-03-17T12:43:46Z</time>
      </trkpt>
      <trkpt lat="44.11662" lon="7.06804">
        <ele>1370.961</ele>
        <time>2012-03-17T12:44:01Z</time>
      </trkpt>
      <trkpt lat="44.11673" lon="7.06793">
        <ele>1371.281</ele>
        <time>2012-03-17T12:44:08Z</time>
      </trkpt>
      <trkpt lat="44.11687" lon="7.06785">
        <ele>1369.809</ele>
        <time>2012-03-17T12:44:14Z</time>
      </trkpt>
      <trkpt lat="44.11693" lon="7.06782">
        <ele>1369.209</ele>
        <time>2012-03-17T12:44:17Z</time>
      </trkpt>
      <trkpt lat="44.11694" lon="7.06786">
        <ele>1368.967</ele>
        <time>2012-03-17T12:44:22Z</time>
      </trkpt>
      <trkpt lat="44.11684" lon="7.06795">
        <ele>1367.855</ele>
        <time>2012-03-17T12:44:26Z</time>
      </trkpt>
      <trkpt lat="44.1168" lon="7.06799">
        <ele>1367.714</ele>
        <time>2012-03-17T12:44:27Z</time>
      </trkpt>
      <trkpt lat="44.11665" lon="7.06827">
        <ele>1368.559</ele>
        <time>2012-03-17T12:44:34Z</time>
      </trkpt>
      <trkpt lat="44.11665" lon="7.06829">
        <ele>1367.57</ele>
        <time>2012-03-17T12:44:43Z</time>
      </trkpt>
      <trkpt lat="44.11664" lon="7.06829">
        <ele>1372.623</ele>
        <time>2012-03-17T12:45:25Z</time>
      </trkpt>
      <trkpt lat="44.11664" lon="7.06832">
        <ele>1371.351</ele>
        <time>2012-03-17T12:46:03Z</time>
      </trkpt>
      <trkpt lat="44.1166" lon="7.06845">
        <ele>1371.551</ele>
        <time>2012-03-17T12:46:10Z</time>
      </trkpt>
      <trkpt lat="44.11655" lon="7.06857">
        <ele>1370.958</ele>
        <time>2012-03-17T12:46:15Z</time>
      </trkpt>
      <trkpt lat="44.1165" lon="7.06874">
        <ele>1369.376</ele>
        <time>2012-03-17T12:46:20Z</time>
      </trkpt>
      <trkpt lat="44.1165" lon="7.06877">
        <ele>1369.858</ele>
        <time>2012-03-17T12:46:21Z</time>
      </trkpt>
      <trkpt lat="44.1166" lon="7.06891">
        <ele>1369.509</ele>
        <time>2012-03-17T12:46:26Z</time>
      </trkpt>
      <trkpt lat="44.11662" lon="7.06897">
        <ele>1369.569</ele>
        <time>2012-03-17T12:46:27Z</time>
      </trkpt>
      <trkpt lat="44.11665" lon="7.06918">
        <ele>1368.738</ele>
        <time>2012-03-17T12:46:30Z</time>
      </trkpt>
      <trkpt lat="44.11667" lon="7.06931">
        <ele>1367.096</ele>
        <time>2012-03-17T12:46:32Z</time>
      </trkpt>
      <trkpt lat="44.11669" lon="7.06964">
        <ele>1366.646</ele>
        <time>2012-03-17T12:46:36Z</time>
      </trkpt>
      <trkpt lat="44.11659" lon="7.07012">
        <ele>1361.304</ele>
        <time>2012-03-17T12:46:42Z</time>
      </trkpt>
      <trkpt lat="44.11654" lon="7.07043">
        <ele>1357.153</ele>
        <time>2012-03-17T12:46:46Z</time>
      </trkpt>
      <trkpt lat="44.11637" lon="7.07072">
        <ele>1347.796</ele>
        <time>2012-03-17T12:46:51Z</time>
      </trkpt>
      <trkpt lat="44.11632" lon="7.07082">
        <ele>1345.09</ele>
        <time>2012-03-17T12:46:55Z</time>
      </trkpt>
      <trkpt lat="44.11626" lon="7.07101">
        <ele>1339.248</ele>
        <time>2012-03-17T12:47:00Z</time>
      </trkpt>
      <trkpt lat="44.11623" lon="7.07111">
        <ele>1336.099</ele>
        <time>2012-03-17T12:47:04Z</time>
      </trkpt>
      <trkpt lat="44.11624" lon="7.0711">
        <ele>1336.186</ele>
        <time>2012-03-17T12:47:08Z</time>
      </trkpt>
      <trkpt lat="44.11621" lon="7.07122">
        <ele>1335.025</ele>
        <time>2012-03-17T12:47:13Z</time>
      </trkpt>
      <trkpt lat="44.11613" lon="7.07143">
        <ele>1332.091</ele>
        <time>2012-03-17T12:47:17Z</time>
      </trkpt>
      <trkpt lat="44.11613" lon="7.07191">
        <ele>1324.481</ele>
        <time>2012-03-17T12:47:22Z</time>
      </trkpt>
      <trkpt lat="44.11615" lon="7.07202">
        <ele>1323.623</ele>
        <time>2012-03-17T12:47:23Z</time>
      </trkpt>
      <trkpt lat="44.11616" lon="7.07234">
        <ele>1319.832</ele>
        <time>2012-03-17T12:47:27Z</time>
      </trkpt>
      <trkpt lat="44.11605" lon="7.07239">
        <ele>1318.728</ele>
        <time>2012-03-17T12:47:31Z</time>
      </trkpt>
      <trkpt lat="44.11593" lon="7.07249">
        <ele>1313.546</ele>
        <time>2012-03-17T12:47:35Z</time>
      </trkpt>
      <trkpt lat="44.11593" lon="7.07258">
        <ele>1312.728</ele>
        <time>2012-03-17T12:47:37Z</time>
      </trkpt>
      <trkpt lat="44.11593" lon="7.07277">
        <ele>1309.194</ele>
        <time>2012-03-17T12:47:40Z</time>
      </trkpt>
      <trkpt lat="44.11587" lon="7.07316">
        <ele>1303.894</ele>
        <time>2012-03-17T12:47:45Z</time>
      </trkpt>
      <trkpt lat="44.11581" lon="7.07333">
        <ele>1301.926</ele>
        <time>2012-03-17T12:47:48Z</time>
      </trkpt>
      <trkpt lat="44.11581" lon="7.07342">
        <ele>1301.696</ele>
        <time>2012-03-17T12:47:50Z</time>
      </trkpt>
      <trkpt lat="44.11584" lon="7.07362">
        <ele>1303.302</ele>
        <time>2012-03-17T12:47:53Z</time>
      </trkpt>
      <trkpt lat="44.11585" lon="7.07376">
        <ele>1303.023</ele>
        <time>2012-03-17T12:47:55Z</time>
      </trkpt>
      <trkpt lat="44.11592" lon="7.0742">
        <ele>1298.893</ele>
        <time>2012-03-17T12:48:00Z</time>
      </trkpt>
      <trkpt lat="44.11599" lon="7.07449">
        <ele>1298.844</ele>
        <time>2012-03-17T12:48:03Z</time>
      </trkpt>
      <trkpt lat="44.116" lon="7.07471">
        <ele>1292.519</ele>
        <time>2012-03-17T12:48:06Z</time>
      </trkpt>
      <trkpt lat="44.11601" lon="7.07493">
        <ele>1287.146</ele>
        <time>2012-03-17T12:48:09Z</time>
      </trkpt>
      <trkpt lat="44.11606" lon="7.07532">
        <ele>1281.105</ele>
        <time>2012-03-17T12:48:14Z</time>
      </trkpt>
      <trkpt lat="44.11605" lon="7.0754">
        <ele>1279.333</ele>
        <time>2012-03-17T12:48:15Z</time>
      </trkpt>
      <trkpt lat="44.11604" lon="7.07557">
        <ele>1275.823</ele>
        <time>2012-03-17T12:48:17Z</time>
      </trkpt>
      <trkpt lat="44.11603" lon="7.07574">
        <ele>1272.252</ele>
        <time>2012-03-17T12:48:19Z</time>
      </trkpt>
      <trkpt lat="44.11603" lon="7.07603">
        <ele>1264.51</ele>
        <time>2012-03-17T12:48:24Z</time>
      </trkpt>
      <trkpt lat="44.11604" lon="7.07608">
        <ele>1263.512</ele>
        <time>2012-03-17T12:48:25Z</time>
      </trkpt>
      <trkpt lat="44.11608" lon="7.07624">
        <ele>1260.56</ele>
        <time>2012-03-17T12:48:27Z</time>
      </trkpt>
      <trkpt lat="44.11619" lon="7.07661">
        <ele>1257.854</ele>
        <time>2012-03-17T12:48:31Z</time>
      </trkpt>
      <trkpt lat="44.11627" lon="7.0771">
        <ele>1253.405</ele>
        <time>2012-03-17T12:48:36Z</time>
      </trkpt>
      <trkpt lat="44.11637" lon="7.07747">
        <ele>1243.561</ele>
        <time>2012-03-17T12:48:42Z</time>
      </trkpt>
      <trkpt lat="44.11642" lon="7.07754">
        <ele>1239.48</ele>
        <time>2012-03-17T12:48:44Z</time>
      </trkpt>
      <trkpt lat="44.11645" lon="7.07748">
        <ele>1230.196</ele>
        <time>2012-03-17T12:48:48Z</time>
      </trkpt>
      <trkpt lat="44.11645" lon="7.07747">
        <ele>1229.088</ele>
        <time>2012-03-17T12:48:49Z</time>
      </trkpt>
      <trkpt lat="44.11651" lon="7.07762">
        <ele>1227.296</ele>
        <time>2012-03-17T12:48:53Z</time>
      </trkpt>
      <trkpt lat="44.11652" lon="7.07765">
        <ele>1227.438</ele>
        <time>2012-03-17T12:48:54Z</time>
      </trkpt>
      <trkpt lat="44.11659" lon="7.07766">
        <ele>1223.375</ele>
        <time>2012-03-17T12:48:58Z</time>
      </trkpt>
      <trkpt lat="44.1166" lon="7.07771">
        <ele>1223.329</ele>
        <time>2012-03-17T12:49:01Z</time>
      </trkpt>
      <trkpt lat="44.11662" lon="7.07772">
        <ele>1231.304</ele>
        <time>2012-03-17T12:49:20Z</time>
      </trkpt>
      <trkpt lat="44.11666" lon="7.07778">
        <ele>1231.821</ele>
        <time>2012-03-17T12:50:09Z</time>
      </trkpt>
      <trkpt lat="44.11663" lon="7.07787">
        <ele>1226.664</ele>
        <time>2012-03-17T12:50:14Z</time>
      </trkpt>
      <trkpt lat="44.1167" lon="7.07788">
        <ele>1223.533</ele>
        <time>2012-03-17T12:50:17Z</time>
      </trkpt>
      <trkpt lat="44.11679" lon="7.0778">
        <ele>1218.117</ele>
        <time>2012-03-17T12:50:22Z</time>
      </trkpt>
      <trkpt lat="44.11682" lon="7.07784">
        <ele>1212.458</ele>
        <time>2012-03-17T12:50:27Z</time>
      </trkpt>
      <trkpt lat="44.11684" lon="7.07801">
        <ele>1210.821</ele>
        <time>2012-03-17T12:50:31Z</time>
      </trkpt>
      <trkpt lat="44.11686" lon="7.07808">
        <ele>1208.101</ele>
        <time>2012-03-17T12:50:34Z</time>
      </trkpt>
      <trkpt lat="44.11693" lon="7.07799">
        <ele>1202.626</ele>
        <time>2012-03-17T12:50:38Z</time>
      </trkpt>
      <trkpt lat="44.11694" lon="7.07797">
        <ele>1201.658</ele>
        <time>2012-03-17T12:50:39Z</time>
      </trkpt>
      <trkpt lat="44.11695" lon="7.07815">
        <ele>1200.511</ele>
        <time>2012-03-17T12:50:44Z</time>
      </trkpt>
      <trkpt lat="44.11701" lon="7.07824">
        <ele>1198.169</ele>
        <time>2012-03-17T12:50:47Z</time>
      </trkpt>
      <trkpt lat="44.11708" lon="7.07821">
        <ele>1194.548</ele>
        <time>2012-03-17T12:50:50Z</time>
      </trkpt>
      <trkpt lat="44.11713" lon="7.07817">
        <ele>1190.639</ele>
        <time>2012-03-17T12:50:54Z</time>
      </trkpt>
      <trkpt lat="44.11718" lon="7.07827">
        <ele>1188.089</ele>
        <time>2012-03-17T12:50:58Z</time>
      </trkpt>
      <trkpt lat="44.11723" lon="7.07823">
        <ele>1185.557</ele>
        <time>2012-03-17T12:51:01Z</time>
      </trkpt>
      <trkpt lat="44.11724" lon="7.07824">
        <ele>1184.418</ele>
        <time>2012-03-17T12:51:02Z</time>
      </trkpt>
      <trkpt lat="44.11728" lon="7.07843">
        <ele>1178.946</ele>
        <time>2012-03-17T12:51:07Z</time>
      </trkpt>
      <trkpt lat="44.11729" lon="7.07847">
        <ele>1176.224</ele>
        <time>2012-03-17T12:51:09Z</time>
      </trkpt>
      <trkpt lat="44.11736" lon="7.07842">
        <ele>1171.718</ele>
        <time>2012-03-17T12:51:14Z</time>
      </trkpt>
      <trkpt lat="44.11742" lon="7.07847">
        <ele>1167.94</ele>
        <time>2012-03-17T12:51:19Z</time>
      </trkpt>
      <trkpt lat="44.11742" lon="7.07848">
        <ele>1167.349</ele>
        <time>2012-03-17T12:51:20Z</time>
      </trkpt>
      <trkpt lat="44.11745" lon="7.07853">
        <ele>1166.591</ele>
        <time>2012-03-17T12:51:24Z</time>
      </trkpt>
      <trkpt lat="44.11746" lon="7.0786">
        <ele>1164.482</ele>
        <time>2012-03-17T12:51:28Z</time>
      </trkpt>
      <trkpt lat="44.11749" lon="7.07865">
        <ele>1162.832</ele>
        <time>2012-03-17T12:51:32Z</time>
      </trkpt>
      <trkpt lat="44.11757" lon="7.07859">
        <ele>1159.201</ele>
        <time>2012-03-17T12:51:36Z</time>
      </trkpt>
      <trkpt lat="44.11757" lon="7.07866">
        <ele>1156.069</ele>
        <time>2012-03-17T12:51:39Z</time>
      </trkpt>
      <trkpt lat="44.1176" lon="7.07877">
        <ele>1151.746</ele>
        <time>2012-03-17T12:51:42Z</time>
      </trkpt>
      <trkpt lat="44.1177" lon="7.07892">
        <ele>1146.416</ele>
        <time>2012-03-17T12:51:46Z</time>
      </trkpt>
      <trkpt lat="44.1178" lon="7.07901">
        <ele>1143.168</ele>
        <time>2012-03-17T12:51:50Z</time>
      </trkpt>
      <trkpt lat="44.11776" lon="7.07914">
        <ele>1138.948</ele>
        <time>2012-03-17T12:51:54Z</time>
      </trkpt>
      <trkpt lat="44.11756" lon="7.07931">
        <ele>1133.449</ele>
        <time>2012-03-17T12:52:00Z</time>
      </trkpt>
      <trkpt lat="44.11751" lon="7.07935">
        <ele>1132.689</ele>
        <time>2012-03-17T12:52:01Z</time>
      </trkpt>
      <trkpt lat="44.11732" lon="7.07961">
        <ele>1127.68</ele>
        <time>2012-03-17T12:52:06Z</time>
      </trkpt>
      <trkpt lat="44.11718" lon="7.07988">
        <ele>1126.642</ele>
        <time>2012-03-17T12:52:11Z</time>
      </trkpt>
      <trkpt lat="44.11703" lon="7.07998">
        <ele>1124.243</ele>
        <time>2012-03-17T12:52:15Z</time>
      </trkpt>
      <trkpt lat="44.11702" lon="7.08005">
        <ele>1120.22</ele>
        <time>2012-03-17T12:52:18Z</time>
      </trkpt>
      <trkpt lat="44.11697" lon="7.08012">
        <ele>1116.269</ele>
        <time>2012-03-17T12:52:21Z</time>
      </trkpt>
      <trkpt lat="44.11688" lon="7.08018">
        <ele>1111.028</ele>
        <time>2012-03-17T12:52:24Z</time>
      </trkpt>
      <trkpt lat="44.11687" lon="7.08028">
        <ele>1105.975</ele>
        <time>2012-03-17T12:52:28Z</time>
      </trkpt>
      <trkpt lat="44.11696" lon="7.08031">
        <ele>1100.335</ele>
        <time>2012-03-17T12:52:32Z</time>
      </trkpt>
      <trkpt lat="44.11704" lon="7.08032">
        <ele>1097.099</ele>
        <time>2012-03-17T12:52:36Z</time>
      </trkpt>
      <trkpt lat="44.11705" lon="7.08034">
        <ele>1097.647</ele>
        <time>2012-03-17T12:52:41Z</time>
      </trkpt>
      <trkpt lat="44.11695" lon="7.08045">
        <ele>1095.214</ele>
        <time>2012-03-17T12:52:46Z</time>
      </trkpt>
      <trkpt lat="44.11688" lon="7.08054">
        <ele>1092.323</ele>
        <time>2012-03-17T12:52:50Z</time>
      </trkpt>
      <trkpt lat="44.11692" lon="7.0806">
        <ele>1088.332</ele>
        <time>2012-03-17T12:52:54Z</time>
      </trkpt>
      <trkpt lat="44.11708" lon="7.08065">
        <ele>1082.208</ele>
        <time>2012-03-17T12:52:59Z</time>
      </trkpt>
      <trkpt lat="44.11712" lon="7.08066">
        <ele>1080.57</ele>
        <time>2012-03-17T12:53:01Z</time>
      </trkpt>
      <trkpt lat="44.11715" lon="7.08068">
        <ele>1078.409</ele>
        <time>2012-03-17T12:53:03Z</time>
      </trkpt>
      <trkpt lat="44.11712" lon="7.08075">
        <ele>1074.869</ele>
        <time>2012-03-17T12:53:07Z</time>
      </trkpt>
      <trkpt lat="44.11719" lon="7.08081">
        <ele>1070.126</ele>
        <time>2012-03-17T12:53:12Z</time>
      </trkpt>
      <trkpt lat="44.11723" lon="7.08084">
        <ele>1068.943</ele>
        <time>2012-03-17T12:53:16Z</time>
      </trkpt>
      <trkpt lat="44.11724" lon="7.08094">
        <ele>1064.249</ele>
        <time>2012-03-17T12:53:21Z</time>
      </trkpt>
      <trkpt lat="44.1173" lon="7.08098">
        <ele>1058.507</ele>
        <time>2012-03-17T12:53:26Z</time>
      </trkpt>
      <trkpt lat="44.11729" lon="7.08106">
        <ele>1054.897</ele>
        <time>2012-03-17T12:53:31Z</time>
      </trkpt>
      <trkpt lat="44.11743" lon="7.0811">
        <ele>1047.854</ele>
        <time>2012-03-17T12:53:36Z</time>
      </trkpt>
      <trkpt lat="44.11745" lon="7.08111">
        <ele>1046.414</ele>
        <time>2012-03-17T12:53:37Z</time>
      </trkpt>
      <trkpt lat="44.11749" lon="7.08112">
        <ele>1042.082</ele>
        <time>2012-03-17T12:53:40Z</time>
      </trkpt>
      <trkpt lat="44.11742" lon="7.08127">
        <ele>1039.74</ele>
        <time>2012-03-17T12:53:46Z</time>
      </trkpt>
      <trkpt lat="44.11744" lon="7.08137">
        <ele>1036.42</ele>
        <time>2012-03-17T12:53:51Z</time>
      </trkpt>
      <trkpt lat="44.11754" lon="7.08139">
        <ele>1030.957</ele>
        <time>2012-03-17T12:53:56Z</time>
      </trkpt>
      <trkpt lat="44.11768" lon="7.08141">
        <ele>1025.443</ele>
        <time>2012-03-17T12:54:00Z</time>
      </trkpt>
      <trkpt lat="44.11775" lon="7.0814">
        <ele>1020.313</ele>
        <time>2012-03-17T12:54:04Z</time>
      </trkpt>
      <trkpt lat="44.11775" lon="7.08148">
        <ele>1020.417</ele>
        <time>2012-03-17T12:54:06Z</time>
      </trkpt>
      <trkpt lat="44.11767" lon="7.08167">
        <ele>1016.036</ele>
        <time>2012-03-17T12:54:11Z</time>
      </trkpt>
      <trkpt lat="44.1176" lon="7.08182">
        <ele>1013.978</ele>
        <time>2012-03-17T12:54:15Z</time>
      </trkpt>
      <trkpt lat="44.11749" lon="7.08195">
        <ele>1009.719</ele>
        <time>2012-03-17T12:54:20Z</time>
      </trkpt>
      <trkpt lat="44.1174" lon="7.08215">
        <ele>1006.31</ele>
        <time>2012-03-17T12:54:25Z</time>
      </trkpt>
      <trkpt lat="44.11729" lon="7.08237">
        <ele>997.407</ele>
        <time>2012-03-17T12:54:31Z</time>
      </trkpt>
      <trkpt lat="44.11726" lon="7.08247">
        <ele>994.798</ele>
        <time>2012-03-17T12:54:34Z</time>
      </trkpt>
      <trkpt lat="44.1172" lon="7.08256">
        <ele>990.112</ele>
        <time>2012-03-17T12:54:38Z</time>
      </trkpt>
      <trkpt lat="44.11717" lon="7.08263">
        <ele>987.03</ele>
        <time>2012-03-17T12:54:42Z</time>
      </trkpt>
      <trkpt lat="44.11715" lon="7.08265">
        <ele>987.139</ele>
        <time>2012-03-17T12:54:48Z</time>
      </trkpt>
      <trkpt lat="44.11706" lon="7.08268">
        <ele>1000.864</ele>
        <time>2012-03-17T12:58:51Z</time>
      </trkpt>
      <trkpt lat="44.11706" lon="7.08265">
        <ele>999.834</ele>
        <time>2012-03-17T12:59:13Z</time>
      </trkpt>
      <trkpt lat="44.11705" lon="7.08261">
        <ele>997.542</ele>
        <time>2012-03-17T12:59:47Z</time>
      </trkpt>
      <trkpt lat="44.11705" lon="7.08264">
        <ele>994.113</ele>
        <time>2012-03-17T13:00:03Z</time>
      </trkpt>
      <trkpt lat="44.11701" lon="7.08262">
        <ele>993.266</ele>
        <time>2012-03-17T13:00:09Z</time>
      </trkpt>
      <trkpt lat="44.11701" lon="7.08278">
        <ele>993.614</ele>
        <time>2012-03-17T13:00:14Z</time>
      </trkpt>
      <trkpt lat="44.11699" lon="7.0829">
        <ele>993.472</ele>
        <time>2012-03-17T13:00:19Z</time>
      </trkpt>
      <trkpt lat="44.11702" lon="7.08301">
        <ele>991.339</ele>
        <time>2012-03-17T13:00:22Z</time>
      </trkpt>
      <trkpt lat="44.11693" lon="7.08315">
        <ele>989.031</ele>
        <time>2012-03-17T13:00:27Z</time>
      </trkpt>
      <trkpt lat="44.11692" lon="7.08326">
        <ele>987.309</ele>
        <time>2012-03-17T13:00:30Z</time>
      </trkpt>
      <trkpt lat="44.11689" lon="7.08334">
        <ele>985.698</ele>
        <time>2012-03-17T13:00:33Z</time>
      </trkpt>
      <trkpt lat="44.11679" lon="7.08336">
        <ele>981.905</ele>
        <time>2012-03-17T13:00:36Z</time>
      </trkpt>
      <trkpt lat="44.11667" lon="7.08335">
        <ele>980.666</ele>
        <time>2012-03-17T13:00:39Z</time>
      </trkpt>
      <trkpt lat="44.11643" lon="7.08327">
        <ele>978.137</ele>
        <time>2012-03-17T13:00:45Z</time>
      </trkpt>
      <trkpt lat="44.1163" lon="7.08321">
        <ele>976.575</ele>
        <time>2012-03-17T13:00:50Z</time>
      </trkpt>
      <trkpt lat="44.1163" lon="7.08328">
        <ele>973.595</ele>
        <time>2012-03-17T13:00:54Z</time>
      </trkpt>
      <trkpt lat="44.1163" lon="7.08347">
        <ele>972.198</ele>
        <time>2012-03-17T13:00:59Z</time>
      </trkpt>
      <trkpt lat="44.11627" lon="7.08366">
        <ele>971.168</ele>
        <time>2012-03-17T13:01:03Z</time>
      </trkpt>
      <trkpt lat="44.11618" lon="7.08386">
        <ele>970.921</ele>
        <time>2012-03-17T13:01:07Z</time>
      </trkpt>
      <trkpt lat="44.11615" lon="7.08409">
        <ele>970.392</ele>
        <time>2012-03-17T13:01:12Z</time>
      </trkpt>
      <trkpt lat="44.11608" lon="7.08434">
        <ele>965.928</ele>
        <time>2012-03-17T13:01:16Z</time>
      </trkpt>
      <trkpt lat="44.11588" lon="7.08471">
        <ele>959.565</ele>
        <time>2012-03-17T13:01:22Z</time>
      </trkpt>
      <trkpt lat="44.11579" lon="7.08489">
        <ele>954.333</ele>
        <time>2012-03-17T13:01:26Z</time>
      </trkpt>
      <trkpt lat="44.11575" lon="7.08506">
        <ele>947.719</ele>
        <time>2012-03-17T13:01:31Z</time>
      </trkpt>
      <trkpt lat="44.11573" lon="7.0851">
        <ele>946.379</ele>
        <time>2012-03-17T13:01:32Z</time>
      </trkpt>
      <trkpt lat="44.11571" lon="7.0852">
        <ele>940.057</ele>
        <time>2012-03-17T13:01:38Z</time>
      </trkpt>
      <trkpt lat="44.1157" lon="7.08525">
        <ele>936.082</ele>
        <time>2012-03-17T13:02:15Z</time>
      </trkpt>
      <trkpt lat="44.1157" lon="7.08525">
        <ele>934.442</ele>
        <time>2012-03-17T13:02:20Z</time>
      </trkpt>
      <trkpt lat="44.11567" lon="7.08533">
        <ele>931.788</ele>
        <time>2012-03-17T13:02:26Z</time>
      </trkpt>
      <trkpt lat="44.11567" lon="7.08534">
        <ele>931.138</ele>
        <time>2012-03-17T13:02:27Z</time>
      </trkpt>
      <trkpt lat="44.11564" lon="7.08541">
        <ele>929.637</ele>
        <time>2012-03-17T13:02:31Z</time>
      </trkpt>
      <trkpt lat="44.11567" lon="7.08558">
        <ele>927.575</ele>
        <time>2012-03-17T13:02:36Z</time>
      </trkpt>
      <trkpt lat="44.1157" lon="7.08558">
        <ele>927.417</ele>
        <time>2012-03-17T13:02:37Z</time>
      </trkpt>
      <trkpt lat="44.11575" lon="7.0856">
        <ele>926.696</ele>
        <time>2012-03-17T13:02:39Z</time>
      </trkpt>
      <trkpt lat="44.11576" lon="7.08571">
        <ele>925.046</ele>
        <time>2012-03-17T13:02:43Z</time>
      </trkpt>
      <trkpt lat="44.11566" lon="7.08574">
        <ele>925.882</ele>
        <time>2012-03-17T13:02:47Z</time>
      </trkpt>
      <trkpt lat="44.11562" lon="7.08573">
        <ele>925.582</ele>
        <time>2012-03-17T13:02:51Z</time>
      </trkpt>
      <trkpt lat="44.11559" lon="7.08572">
        <ele>928.396</ele>
        <time>2012-03-17T13:03:01Z</time>
      </trkpt>
      <trkpt lat="44.11556" lon="7.08574">
        <ele>929.095</ele>
        <time>2012-03-17T13:03:13Z</time>
      </trkpt>
      <trkpt lat="44.11555" lon="7.08574">
        <ele>926.612</ele>
        <time>2012-03-17T13:03:16Z</time>
      </trkpt>
      <trkpt lat="44.11552" lon="7.08576">
        <ele>927.125</ele>
        <time>2012-03-17T13:03:22Z</time>
      </trkpt>
      <trkpt lat="44.1155" lon="7.08578">
        <ele>929.007</ele>
        <time>2012-03-17T13:03:27Z</time>
      </trkpt>
      <trkpt lat="44.11542" lon="7.08576">
        <ele>931.479</ele>
        <time>2012-03-17T13:03:33Z</time>
      </trkpt>
      <trkpt lat="44.11525" lon="7.08571">
        <ele>934.749</ele>
        <time>2012-03-17T13:03:41Z</time>
      </trkpt>
      <trkpt lat="44.11509" lon="7.08568">
        <ele>936.599</ele>
        <time>2012-03-17T13:03:48Z</time>
      </trkpt>
      <trkpt lat="44.11498" lon="7.08567">
        <ele>936.108</ele>
        <time>2012-03-17T13:03:53Z</time>
      </trkpt>
      <trkpt lat="44.11496" lon="7.08565">
        <ele>935.726</ele>
        <time>2012-03-17T13:03:54Z</time>
      </trkpt>
      <trkpt lat="44.11485" lon="7.08542">
        <ele>933.112</ele>
        <time>2012-03-17T13:04:00Z</time>
      </trkpt>
      <trkpt lat="44.1147" lon="7.0853">
        <ele>929.6</ele>
        <time>2012-03-17T13:04:05Z</time>
      </trkpt>
      <trkpt lat="44.11453" lon="7.08521">
        <ele>930.382</ele>
        <time>2012-03-17T13:04:11Z</time>
      </trkpt>
      <trkpt lat="44.11444" lon="7.08509">
        <ele>927.32</ele>
        <time>2012-03-17T13:04:15Z</time>
      </trkpt>
      <trkpt lat="44.11435" lon="7.08486">
        <ele>924.56</ele>
        <time>2012-03-17T13:04:21Z</time>
      </trkpt>
      <trkpt lat="44.11433" lon="7.08467">
        <ele>926.222</ele>
        <time>2012-03-17T13:04:26Z</time>
      </trkpt>
      <trkpt lat="44.11427" lon="7.08448">
        <ele>925.691</ele>
        <time>2012-03-17T13:04:31Z</time>
      </trkpt>
      <trkpt lat="44.11416" lon="7.08427">
        <ele>924.372</ele>
        <time>2012-03-17T13:04:37Z</time>
      </trkpt>
      <trkpt lat="44.11408" lon="7.08425">
        <ele>923.883</ele>
        <time>2012-03-17T13:04:40Z</time>
      </trkpt>
      <trkpt lat="44.11399" lon="7.08439">
        <ele>924.757</ele>
        <time>2012-03-17T13:04:45Z</time>
      </trkpt>
      <trkpt lat="44.1139" lon="7.08454">
        <ele>926.659</ele>
        <time>2012-03-17T13:04:50Z</time>
      </trkpt>
      <trkpt lat="44.1138" lon="7.08469">
        <ele>929.54</ele>
        <time>2012-03-17T13:04:56Z</time>
      </trkpt>
      <trkpt lat="44.11368" lon="7.0848">
        <ele>931.27</ele>
        <time>2012-03-17T13:05:02Z</time>
      </trkpt>
      <trkpt lat="44.11354" lon="7.08483">
        <ele>934.89</ele>
        <time>2012-03-17T13:05:08Z</time>
      </trkpt>
      <trkpt lat="44.11348" lon="7.08489">
        <ele>937.214</ele>
        <time>2012-03-17T13:05:12Z</time>
      </trkpt>
      <trkpt lat="44.11343" lon="7.08506">
        <ele>941.254</ele>
        <time>2012-03-17T13:05:18Z</time>
      </trkpt>
      <trkpt lat="44.11342" lon="7.08522">
        <ele>948.078</ele>
        <time>2012-03-17T13:05:24Z</time>
      </trkpt>
      <trkpt lat="44.11341" lon="7.08539">
        <ele>951.805</ele>
        <time>2012-03-17T13:05:30Z</time>
      </trkpt>
      <trkpt lat="44.11336" lon="7.08555">
        <ele>952.032</ele>
        <time>2012-03-17T13:05:36Z</time>
      </trkpt>
      <trkpt lat="44.11333" lon="7.08564">
        <ele>952.171</ele>
        <time>2012-03-17T13:05:39Z</time>
      </trkpt>
      <trkpt lat="44.11325" lon="7.0858">
        <ele>948.245</ele>
        <time>2012-03-17T13:05:45Z</time>
      </trkpt>
      <trkpt lat="44.11324" lon="7.08583">
        <ele>948.395</ele>
        <time>2012-03-17T13:05:46Z</time>
      </trkpt>
      <trkpt lat="44.11315" lon="7.08601">
        <ele>950.358</ele>
        <time>2012-03-17T13:05:53Z</time>
      </trkpt>
      <trkpt lat="44.11305" lon="7.08613">
        <ele>953.368</ele>
        <time>2012-03-17T13:05:59Z</time>
      </trkpt>
      <trkpt lat="44.11294" lon="7.08624">
        <ele>954.658</ele>
        <time>2012-03-17T13:06:06Z</time>
      </trkpt>
      <trkpt lat="44.1128" lon="7.08636">
        <ele>955.338</ele>
        <time>2012-03-17T13:06:13Z</time>
      </trkpt>
      <trkpt lat="44.11266" lon="7.08654">
        <ele>950.774</ele>
        <time>2012-03-17T13:06:21Z</time>
      </trkpt>
      <trkpt lat="44.11253" lon="7.08673">
        <ele>946.473</ele>
        <time>2012-03-17T13:06:29Z</time>
      </trkpt>
      <trkpt lat="44.11242" lon="7.08683">
        <ele>946.725</ele>
        <time>2012-03-17T13:06:35Z</time>
      </trkpt>
      <trkpt lat="44.11226" lon="7.08689">
        <ele>948.146</ele>
        <time>2012-03-17T13:06:42Z</time>
      </trkpt>
      <trkpt lat="44.11208" lon="7.08694">
        <ele>948.206</ele>
        <time>2012-03-17T13:06:50Z</time>
      </trkpt>
      <trkpt lat="44.11189" lon="7.08691">
        <ele>949.066</ele>
        <time>2012-03-17T13:06:58Z</time>
      </trkpt>
      <trkpt lat="44.1118" lon="7.08693">
        <ele>950.668</ele>
        <time>2012-03-17T13:07:02Z</time>
      </trkpt>
      <trkpt lat="44.11169" lon="7.08707">
        <ele>948.555</ele>
        <time>2012-03-17T13:07:07Z</time>
      </trkpt>
      <trkpt lat="44.11169" lon="7.08709">
        <ele>949.187</ele>
        <time>2012-03-17T13:07:08Z</time>
      </trkpt>
      <trkpt lat="44.11166" lon="7.08731">
        <ele>949.596</ele>
        <time>2012-03-17T13:07:15Z</time>
      </trkpt>
      <trkpt lat="44.11165" lon="7.08754">
        <ele>951.036</ele>
        <time>2012-03-17T13:07:22Z</time>
      </trkpt>
      <trkpt lat="44.11163" lon="7.08773">
        <ele>955.128</ele>
        <time>2012-03-17T13:07:28Z</time>
      </trkpt>
      <trkpt lat="44.11162" lon="7.08776">
        <ele>955.679</ele>
        <time>2012-03-17T13:07:29Z</time>
      </trkpt>
      <trkpt lat="44.11154" lon="7.08796">
        <ele>953.065</ele>
        <time>2012-03-17T13:07:35Z</time>
      </trkpt>
      <trkpt lat="44.11149" lon="7.08809">
        <ele>953.436</ele>
        <time>2012-03-17T13:07:40Z</time>
      </trkpt>
      <trkpt lat="44.11139" lon="7.08826">
        <ele>956.559</ele>
        <time>2012-03-17T13:07:47Z</time>
      </trkpt>
      <trkpt lat="44.11132" lon="7.0884">
        <ele>956.056</ele>
        <time>2012-03-17T13:07:52Z</time>
      </trkpt>
      <trkpt lat="44.11124" lon="7.08857">
        <ele>955.676</ele>
        <time>2012-03-17T13:07:58Z</time>
      </trkpt>
      <trkpt lat="44.11113" lon="7.08871">
        <ele>956.918</ele>
        <time>2012-03-17T13:08:04Z</time>
      </trkpt>
      <trkpt lat="44.11104" lon="7.08881">
        <ele>959.339</ele>
        <time>2012-03-17T13:08:10Z</time>
      </trkpt>
      <trkpt lat="44.11093" lon="7.08892">
        <ele>962.461</ele>
        <time>2012-03-17T13:08:17Z</time>
      </trkpt>
      <trkpt lat="44.11089" lon="7.089">
        <ele>963.211</ele>
        <time>2012-03-17T13:08:20Z</time>
      </trkpt>
      <trkpt lat="44.11089" lon="7.08909">
        <ele>965.232</ele>
        <time>2012-03-17T13:08:24Z</time>
      </trkpt>
      <trkpt lat="44.11089" lon="7.08921">
        <ele>968.384</ele>
        <time>2012-03-17T13:08:30Z</time>
      </trkpt>
      <trkpt lat="44.11088" lon="7.08926">
        <ele>969.254</ele>
        <time>2012-03-17T13:08:32Z</time>
      </trkpt>
      <trkpt lat="44.11083" lon="7.08948">
        <ele>967.358</ele>
        <time>2012-03-17T13:08:40Z</time>
      </trkpt>
      <trkpt lat="44.11073" lon="7.08964">
        <ele>964.634</ele>
        <time>2012-03-17T13:08:46Z</time>
      </trkpt>
      <trkpt lat="44.11069" lon="7.08977">
        <ele>966.816</ele>
        <time>2012-03-17T13:08:51Z</time>
      </trkpt>
      <trkpt lat="44.11062" lon="7.08989">
        <ele>969.94</ele>
        <time>2012-03-17T13:08:57Z</time>
      </trkpt>
      <trkpt lat="44.11061" lon="7.0899">
        <ele>970.55</ele>
        <time>2012-03-17T13:08:58Z</time>
      </trkpt>
      <trkpt lat="44.11057" lon="7.08993">
        <ele>971.68</ele>
        <time>2012-03-17T13:09:01Z</time>
      </trkpt>
      <trkpt lat="44.11047" lon="7.09004">
        <ele>970.146</ele>
        <time>2012-03-17T13:09:07Z</time>
      </trkpt>
      <trkpt lat="44.11043" lon="7.09013">
        <ele>972.097</ele>
        <time>2012-03-17T13:09:12Z</time>
      </trkpt>
      <trkpt lat="44.11041" lon="7.09018">
        <ele>972.256</ele>
        <time>2012-03-17T13:09:14Z</time>
      </trkpt>
      <trkpt lat="44.11035" lon="7.09029">
        <ele>969.534</ele>
        <time>2012-03-17T13:09:19Z</time>
      </trkpt>
      <trkpt lat="44.11028" lon="7.0904">
        <ele>967.473</ele>
        <time>2012-03-17T13:09:24Z</time>
      </trkpt>
      <trkpt lat="44.1102" lon="7.09052">
        <ele>967.864</ele>
        <time>2012-03-17T13:09:30Z</time>
      </trkpt>
      <trkpt lat="44.11008" lon="7.09062">
        <ele>970.358</ele>
        <time>2012-03-17T13:09:38Z</time>
      </trkpt>
      <trkpt lat="44.10999" lon="7.09066">
        <ele>971.568</ele>
        <time>2012-03-17T13:09:43Z</time>
      </trkpt>
      <trkpt lat="44.10988" lon="7.09075">
        <ele>971.537</ele>
        <time>2012-03-17T13:09:49Z</time>
      </trkpt>
      <trkpt lat="44.10983" lon="7.09087">
        <ele>970.425</ele>
        <time>2012-03-17T13:09:54Z</time>
      </trkpt>
      <trkpt lat="44.10983" lon="7.09101">
        <ele>976.281</ele>
        <time>2012-03-17T13:10:00Z</time>
      </trkpt>
      <trkpt lat="44.10986" lon="7.09117">
        <ele>977.199</ele>
        <time>2012-03-17T13:10:06Z</time>
      </trkpt>
      <trkpt lat="44.10984" lon="7.09133">
        <ele>975.307</ele>
        <time>2012-03-17T13:10:12Z</time>
      </trkpt>
      <trkpt lat="44.10977" lon="7.09146">
        <ele>973.926</ele>
        <time>2012-03-17T13:10:18Z</time>
      </trkpt>
      <trkpt lat="44.1096" lon="7.09156">
        <ele>973.166</ele>
        <time>2012-03-17T13:10:26Z</time>
      </trkpt>
      <trkpt lat="44.1095" lon="7.09167">
        <ele>975.897</ele>
        <time>2012-03-17T13:10:32Z</time>
      </trkpt>
      <trkpt lat="44.10941" lon="7.09174">
        <ele>978.878</ele>
        <time>2012-03-17T13:10:37Z</time>
      </trkpt>
      <trkpt lat="44.10928" lon="7.09182">
        <ele>979.886</ele>
        <time>2012-03-17T13:10:44Z</time>
      </trkpt>
      <trkpt lat="44.10917" lon="7.09191">
        <ele>979.505</ele>
        <time>2012-03-17T13:10:50Z</time>
      </trkpt>
      <trkpt lat="44.10912" lon="7.09206">
        <ele>981.758</ele>
        <time>2012-03-17T13:10:55Z</time>
      </trkpt>
      <trkpt lat="44.1091" lon="7.09223">
        <ele>987.593</ele>
        <time>2012-03-17T13:11:00Z</time>
      </trkpt>
      <trkpt lat="44.10905" lon="7.09242">
        <ele>989.9</ele>
        <time>2012-03-17T13:11:07Z</time>
      </trkpt>
      <trkpt lat="44.10902" lon="7.09256">
        <ele>994.003</ele>
        <time>2012-03-17T13:11:12Z</time>
      </trkpt>
      <trkpt lat="44.10889" lon="7.09275">
        <ele>992.588</ele>
        <time>2012-03-17T13:11:20Z</time>
      </trkpt>
      <trkpt lat="44.10874" lon="7.09291">
        <ele>989.724</ele>
        <time>2012-03-17T13:11:28Z</time>
      </trkpt>
      <trkpt lat="44.10861" lon="7.09303">
        <ele>988.465</ele>
        <time>2012-03-17T13:11:35Z</time>
      </trkpt>
      <trkpt lat="44.10846" lon="7.09319">
        <ele>989.196</ele>
        <time>2012-03-17T13:11:43Z</time>
      </trkpt>
      <trkpt lat="44.10832" lon="7.09321">
        <ele>986.647</ele>
        <time>2012-03-17T13:11:49Z</time>
      </trkpt>
      <trkpt lat="44.10817" lon="7.09311">
        <ele>987.827</ele>
        <time>2012-03-17T13:11:56Z</time>
      </trkpt>
      <trkpt lat="44.10798" lon="7.09288">
        <ele>989.638</ele>
        <time>2012-03-17T13:12:05Z</time>
      </trkpt>
      <trkpt lat="44.10782" lon="7.09271">
        <ele>993.982</ele>
        <time>2012-03-17T13:12:13Z</time>
      </trkpt>
      <trkpt lat="44.10769" lon="7.09266">
        <ele>996.45</ele>
        <time>2012-03-17T13:12:20Z</time>
      </trkpt>
      <trkpt lat="44.10758" lon="7.09274">
        <ele>996.638</ele>
        <time>2012-03-17T13:12:26Z</time>
      </trkpt>
      <trkpt lat="44.10749" lon="7.09288">
        <ele>992.455</ele>
        <time>2012-03-17T13:12:32Z</time>
      </trkpt>
      <trkpt lat="44.10744" lon="7.093">
        <ele>990.774</ele>
        <time>2012-03-17T13:12:37Z</time>
      </trkpt>
      <trkpt lat="44.10739" lon="7.09315">
        <ele>990.985</ele>
        <time>2012-03-17T13:12:43Z</time>
      </trkpt>
      <trkpt lat="44.10733" lon="7.09332">
        <ele>992.257</ele>
        <time>2012-03-17T13:12:49Z</time>
      </trkpt>
      <trkpt lat="44.10727" lon="7.0935">
        <ele>994.098</ele>
        <time>2012-03-17T13:12:56Z</time>
      </trkpt>
      <trkpt lat="44.10722" lon="7.09363">
        <ele>995.288</ele>
        <time>2012-03-17T13:13:01Z</time>
      </trkpt>
      <trkpt lat="44.10707" lon="7.0938">
        <ele>997.548</ele>
        <time>2012-03-17T13:13:09Z</time>
      </trkpt>
      <trkpt lat="44.10687" lon="7.09391">
        <ele>1000.24</ele>
        <time>2012-03-17T13:13:19Z</time>
      </trkpt>
      <trkpt lat="44.1067" lon="7.09389">
        <ele>999.659</ele>
        <time>2012-03-17T13:13:27Z</time>
      </trkpt>
      <trkpt lat="44.10655" lon="7.09376">
        <ele>998.208</ele>
        <time>2012-03-17T13:13:34Z</time>
      </trkpt>
      <trkpt lat="44.10648" lon="7.0936">
        <ele>998.346</ele>
        <time>2012-03-17T13:13:40Z</time>
      </trkpt>
      <trkpt lat="44.10642" lon="7.0934">
        <ele>997.101</ele>
        <time>2012-03-17T13:13:48Z</time>
      </trkpt>
      <trkpt lat="44.10634" lon="7.09322">
        <ele>996.753</ele>
        <time>2012-03-17T13:13:55Z</time>
      </trkpt>
      <trkpt lat="44.10624" lon="7.0931">
        <ele>1002.009</ele>
        <time>2012-03-17T13:14:01Z</time>
      </trkpt>
      <trkpt lat="44.10612" lon="7.09313">
        <ele>1001.377</ele>
        <time>2012-03-17T13:14:07Z</time>
      </trkpt>
      <trkpt lat="44.10602" lon="7.09328">
        <ele>1002.277</ele>
        <time>2012-03-17T13:14:14Z</time>
      </trkpt>
      <trkpt lat="44.10591" lon="7.0934">
        <ele>1002.707</ele>
        <time>2012-03-17T13:14:20Z</time>
      </trkpt>
      <trkpt lat="44.10581" lon="7.09353">
        <ele>1001.156</ele>
        <time>2012-03-17T13:14:27Z</time>
      </trkpt>
      <trkpt lat="44.10571" lon="7.09366">
        <ele>999.734</ele>
        <time>2012-03-17T13:14:33Z</time>
      </trkpt>
      <trkpt lat="44.1056" lon="7.09382">
        <ele>1001.196</ele>
        <time>2012-03-17T13:14:40Z</time>
      </trkpt>
      <trkpt lat="44.1055" lon="7.09394">
        <ele>1003.547</ele>
        <time>2012-03-17T13:14:47Z</time>
      </trkpt>
      <trkpt lat="44.10542" lon="7.09402">
        <ele>1006.639</ele>
        <time>2012-03-17T13:14:53Z</time>
      </trkpt>
      <trkpt lat="44.10533" lon="7.09416">
        <ele>1009.899</ele>
        <time>2012-03-17T13:15:00Z</time>
      </trkpt>
      <trkpt lat="44.1052" lon="7.0943">
        <ele>1010.488</ele>
        <time>2012-03-17T13:15:09Z</time>
      </trkpt>
      <trkpt lat="44.10506" lon="7.09436">
        <ele>1011.408</ele>
        <time>2012-03-17T13:15:16Z</time>
      </trkpt>
      <trkpt lat="44.10491" lon="7.09444">
        <ele>1015.06</ele>
        <time>2012-03-17T13:15:25Z</time>
      </trkpt>
      <trkpt lat="44.10475" lon="7.09448">
        <ele>1013.168</ele>
        <time>2012-03-17T13:15:33Z</time>
      </trkpt>
      <trkpt lat="44.1046" lon="7.09453">
        <ele>1014.353</ele>
        <time>2012-03-17T13:15:41Z</time>
      </trkpt>
      <trkpt lat="44.10445" lon="7.09461">
        <ele>1018.542</ele>
        <time>2012-03-17T13:15:50Z</time>
      </trkpt>
      <trkpt lat="44.10433" lon="7.09462">
        <ele>1017.219</ele>
        <time>2012-03-17T13:15:57Z</time>
      </trkpt>
      <trkpt lat="44.10419" lon="7.09467">
        <ele>1016.678</ele>
        <time>2012-03-17T13:16:05Z</time>
      </trkpt>
      <trkpt lat="44.10403" lon="7.0947">
        <ele>1017.949</ele>
        <time>2012-03-17T13:16:14Z</time>
      </trkpt>
      <trkpt lat="44.10387" lon="7.09469">
        <ele>1018.557</ele>
        <time>2012-03-17T13:16:22Z</time>
      </trkpt>
      <trkpt lat="44.10369" lon="7.09466">
        <ele>1018.626</ele>
        <time>2012-03-17T13:16:31Z</time>
      </trkpt>
      <trkpt lat="44.10347" lon="7.09465">
        <ele>1018.596</ele>
        <time>2012-03-17T13:16:41Z</time>
      </trkpt>
      <trkpt lat="44.10332" lon="7.09462">
        <ele>1019.668</ele>
        <time>2012-03-17T13:16:49Z</time>
      </trkpt>
      <trkpt lat="44.10316" lon="7.09459">
        <ele>1020.367</ele>
        <time>2012-03-17T13:16:57Z</time>
      </trkpt>
      <trkpt lat="44.10299" lon="7.09455">
        <ele>1021.408</ele>
        <time>2012-03-17T13:17:06Z</time>
      </trkpt>
      <trkpt lat="44.10282" lon="7.09452">
        <ele>1023.019</ele>
        <time>2012-03-17T13:17:15Z</time>
      </trkpt>
      <trkpt lat="44.10271" lon="7.09451">
        <ele>1024.599</ele>
        <time>2012-03-17T13:17:21Z</time>
      </trkpt>
      <trkpt lat="44.10259" lon="7.09456">
        <ele>1027.981</ele>
        <time>2012-03-17T13:17:28Z</time>
      </trkpt>
      <trkpt lat="44.10247" lon="7.09463">
        <ele>1030.669</ele>
        <time>2012-03-17T13:17:35Z</time>
      </trkpt>
      <trkpt lat="44.10235" lon="7.09472">
        <ele>1031.865</ele>
        <time>2012-03-17T13:17:41Z</time>
      </trkpt>
      <trkpt lat="44.10222" lon="7.0948">
        <ele>1033.156</ele>
        <time>2012-03-17T13:17:48Z</time>
      </trkpt>
      <trkpt lat="44.10207" lon="7.0949">
        <ele>1035.447</ele>
        <time>2012-03-17T13:17:56Z</time>
      </trkpt>
      <trkpt lat="44.10188" lon="7.09504">
        <ele>1038.239</ele>
        <time>2012-03-17T13:18:07Z</time>
      </trkpt>
      <trkpt lat="44.10174" lon="7.09511">
        <ele>1037.746</ele>
        <time>2012-03-17T13:18:14Z</time>
      </trkpt>
      <trkpt lat="44.10161" lon="7.09517">
        <ele>1037.366</ele>
        <time>2012-03-17T13:18:21Z</time>
      </trkpt>
      <trkpt lat="44.10147" lon="7.0952">
        <ele>1036.725</ele>
        <time>2012-03-17T13:18:28Z</time>
      </trkpt>
      <trkpt lat="44.10134" lon="7.09522">
        <ele>1036.947</ele>
        <time>2012-03-17T13:18:35Z</time>
      </trkpt>
      <trkpt lat="44.10121" lon="7.09524">
        <ele>1036.747</ele>
        <time>2012-03-17T13:18:42Z</time>
      </trkpt>
      <trkpt lat="44.10107" lon="7.09524">
        <ele>1036.869</ele>
        <time>2012-03-17T13:18:49Z</time>
      </trkpt>
      <trkpt lat="44.10105" lon="7.09524">
        <ele>1037.029</ele>
        <time>2012-03-17T13:18:50Z</time>
      </trkpt>
      <trkpt lat="44.10091" lon="7.09521">
        <ele>1038.36</ele>
        <time>2012-03-17T13:18:57Z</time>
      </trkpt>
      <trkpt lat="44.10074" lon="7.09518">
        <ele>1040.29</ele>
        <time>2012-03-17T13:19:05Z</time>
      </trkpt>
      <trkpt lat="44.10054" lon="7.09519">
        <ele>1042.851</ele>
        <time>2012-03-17T13:19:15Z</time>
      </trkpt>
      <trkpt lat="44.10032" lon="7.0952">
        <ele>1043.878</ele>
        <time>2012-03-17T13:19:25Z</time>
      </trkpt>
      <trkpt lat="44.10019" lon="7.09521">
        <ele>1044.658</ele>
        <time>2012-03-17T13:19:32Z</time>
      </trkpt>
      <trkpt lat="44.10006" lon="7.09522">
        <ele>1044.146</ele>
        <time>2012-03-17T13:19:39Z</time>
      </trkpt>
      <trkpt lat="44.09988" lon="7.09519">
        <ele>1043.927</ele>
        <time>2012-03-17T13:19:48Z</time>
      </trkpt>
      <trkpt lat="44.09971" lon="7.09515">
        <ele>1044.828</ele>
        <time>2012-03-17T13:19:57Z</time>
      </trkpt>
      <trkpt lat="44.09954" lon="7.09507">
        <ele>1046.388</ele>
        <time>2012-03-17T13:20:06Z</time>
      </trkpt>
      <trkpt lat="44.09936" lon="7.09497">
        <ele>1047.428</ele>
        <time>2012-03-17T13:20:16Z</time>
      </trkpt>
      <trkpt lat="44.0992" lon="7.09486">
        <ele>1053.913</ele>
        <time>2012-03-17T13:20:25Z</time>
      </trkpt>
      <trkpt lat="44.09905" lon="7.09475">
        <ele>1058.51</ele>
        <time>2012-03-17T13:20:33Z</time>
      </trkpt>
      <trkpt lat="44.0989" lon="7.09464">
        <ele>1059.158</ele>
        <time>2012-03-17T13:20:42Z</time>
      </trkpt>
      <trkpt lat="44.09877" lon="7.09464">
        <ele>1059.719</ele>
        <time>2012-03-17T13:20:49Z</time>
      </trkpt>
      <trkpt lat="44.09862" lon="7.09475">
        <ele>1057.896</ele>
        <time>2012-03-17T13:20:57Z</time>
      </trkpt>
      <trkpt lat="44.09845" lon="7.09488">
        <ele>1054.157</ele>
        <time>2012-03-17T13:21:06Z</time>
      </trkpt>
      <trkpt lat="44.09829" lon="7.09494">
        <ele>1046.504</ele>
        <time>2012-03-17T13:21:14Z</time>
      </trkpt>
      <trkpt lat="44.09825" lon="7.09494">
        <ele>1045.444</ele>
        <time>2012-03-17T13:21:20Z</time>
      </trkpt>
      <trkpt lat="44.09826" lon="7.0949">
        <ele>1048.946</ele>
        <time>2012-03-17T13:21:32Z</time>
      </trkpt>
      <trkpt lat="44.09827" lon="7.09487">
        <ele>1040.817</ele>
        <time>2012-03-17T13:27:42Z</time>
      </trkpt>
      <trkpt lat="44.09832" lon="7.09486">
        <ele>1059.464</ele>
        <time>2012-03-17T13:27:59Z</time>
      </trkpt>
      <trkpt lat="44.09827" lon="7.09481">
        <ele>1058.789</ele>
        <time>2012-03-17T13:28:29Z</time>
      </trkpt>
      <trkpt lat="44.09822" lon="7.09481">
        <ele>1058.86</ele>
        <time>2012-03-17T13:28:33Z</time>
      </trkpt>
      <trkpt lat="44.0982" lon="7.09482">
        <ele>1058.269</ele>
        <time>2012-03-17T13:28:35Z</time>
      </trkpt>
      <trkpt lat="44.09813" lon="7.09481">
        <ele>1056.616</ele>
        <time>2012-03-17T13:28:40Z</time>
      </trkpt>
      <trkpt lat="44.09808" lon="7.09492">
        <ele>1055.256</ele>
        <time>2012-03-17T13:28:45Z</time>
      </trkpt>
      <trkpt lat="44.09807" lon="7.09493">
        <ele>1055.316</ele>
        <time>2012-03-17T13:28:46Z</time>
      </trkpt>
      <trkpt lat="44.098" lon="7.09501">
        <ele>1053.297</ele>
        <time>2012-03-17T13:28:51Z</time>
      </trkpt>
      <trkpt lat="44.0979" lon="7.09504">
        <ele>1053.336</ele>
        <time>2012-03-17T13:28:57Z</time>
      </trkpt>
      <trkpt lat="44.09776" lon="7.09505">
        <ele>1054.598</ele>
        <time>2012-03-17T13:29:05Z</time>
      </trkpt>
      <trkpt lat="44.09763" lon="7.09496">
        <ele>1055.417</ele>
        <time>2012-03-17T13:29:13Z</time>
      </trkpt>
      <trkpt lat="44.09749" lon="7.09488">
        <ele>1057.548</ele>
        <time>2012-03-17T13:29:22Z</time>
      </trkpt>
      <trkpt lat="44.09734" lon="7.09488">
        <ele>1059.598</ele>
        <time>2012-03-17T13:29:30Z</time>
      </trkpt>
      <trkpt lat="44.0972" lon="7.0949">
        <ele>1062.153</ele>
        <time>2012-03-17T13:29:38Z</time>
      </trkpt>
      <trkpt lat="44.09709" lon="7.09487">
        <ele>1065.513</ele>
        <time>2012-03-17T13:29:45Z</time>
      </trkpt>
      <trkpt lat="44.09695" lon="7.09485">
        <ele>1067.871</ele>
        <time>2012-03-17T13:29:53Z</time>
      </trkpt>
      <trkpt lat="44.0968" lon="7.09491">
        <ele>1070.382</ele>
        <time>2012-03-17T13:30:02Z</time>
      </trkpt>
      <trkpt lat="44.09672" lon="7.09495">
        <ele>1073.293</ele>
        <time>2012-03-17T13:30:07Z</time>
      </trkpt>
      <trkpt lat="44.09659" lon="7.09503">
        <ele>1075.451</ele>
        <time>2012-03-17T13:30:14Z</time>
      </trkpt>
      <trkpt lat="44.09646" lon="7.09514">
        <ele>1073.559</ele>
        <time>2012-03-17T13:30:22Z</time>
      </trkpt>
      <trkpt lat="44.0963" lon="7.09528">
        <ele>1069.937</ele>
        <time>2012-03-17T13:30:31Z</time>
      </trkpt>
      <trkpt lat="44.09615" lon="7.0953">
        <ele>1069.987</ele>
        <time>2012-03-17T13:30:39Z</time>
      </trkpt>
      <trkpt lat="44.096" lon="7.09526">
        <ele>1070.868</ele>
        <time>2012-03-17T13:30:47Z</time>
      </trkpt>
      <trkpt lat="44.09584" lon="7.09524">
        <ele>1072.599</ele>
        <time>2012-03-17T13:30:55Z</time>
      </trkpt>
      <trkpt lat="44.09565" lon="7.09526">
        <ele>1077.243</ele>
        <time>2012-03-17T13:31:05Z</time>
      </trkpt>
      <trkpt lat="44.09545" lon="7.09529">
        <ele>1080.361</ele>
        <time>2012-03-17T13:31:14Z</time>
      </trkpt>
      <trkpt lat="44.09534" lon="7.09537">
        <ele>1081.118</ele>
        <time>2012-03-17T13:31:20Z</time>
      </trkpt>
      <trkpt lat="44.09518" lon="7.09547">
        <ele>1081.878</ele>
        <time>2012-03-17T13:31:28Z</time>
      </trkpt>
      <trkpt lat="44.09506" lon="7.09551">
        <ele>1081.758</ele>
        <time>2012-03-17T13:31:34Z</time>
      </trkpt>
      <trkpt lat="44.09487" lon="7.09555">
        <ele>1080.657</ele>
        <time>2012-03-17T13:31:43Z</time>
      </trkpt>
      <trkpt lat="44.09472" lon="7.0956">
        <ele>1081.779</ele>
        <time>2012-03-17T13:31:50Z</time>
      </trkpt>
      <trkpt lat="44.09451" lon="7.0956">
        <ele>1078.985</ele>
        <time>2012-03-17T13:31:59Z</time>
      </trkpt>
      <trkpt lat="44.09433" lon="7.09552">
        <ele>1074.976</ele>
        <time>2012-03-17T13:32:07Z</time>
      </trkpt>
      <trkpt lat="44.09416" lon="7.09537">
        <ele>1072.547</ele>
        <time>2012-03-17T13:32:15Z</time>
      </trkpt>
      <trkpt lat="44.09401" lon="7.09518">
        <ele>1073.667</ele>
        <time>2012-03-17T13:32:25Z</time>
      </trkpt>
      <trkpt lat="44.09396" lon="7.09501">
        <ele>1072.986</ele>
        <time>2012-03-17T13:32:31Z</time>
      </trkpt>
      <trkpt lat="44.09392" lon="7.09479">
        <ele>1074.566</ele>
        <time>2012-03-17T13:32:39Z</time>
      </trkpt>
      <trkpt lat="44.09388" lon="7.09453">
        <ele>1074.604</ele>
        <time>2012-03-17T13:32:48Z</time>
      </trkpt>
      <trkpt lat="44.09387" lon="7.09432">
        <ele>1074.116</ele>
        <time>2012-03-17T13:32:55Z</time>
      </trkpt>
      <trkpt lat="44.09389" lon="7.09417">
        <ele>1075.758</ele>
        <time>2012-03-17T13:33:01Z</time>
      </trkpt>
      <trkpt lat="44.0939" lon="7.09396">
        <ele>1077.014</ele>
        <time>2012-03-17T13:33:09Z</time>
      </trkpt>
      <trkpt lat="44.09389" lon="7.09378">
        <ele>1077.224</ele>
        <time>2012-03-17T13:33:16Z</time>
      </trkpt>
      <trkpt lat="44.09384" lon="7.09352">
        <ele>1079.275</ele>
        <time>2012-03-17T13:33:25Z</time>
      </trkpt>
      <trkpt lat="44.09377" lon="7.09338">
        <ele>1081.929</ele>
        <time>2012-03-17T13:33:31Z</time>
      </trkpt>
      <trkpt lat="44.09367" lon="7.09333">
        <ele>1084.441</ele>
        <time>2012-03-17T13:33:37Z</time>
      </trkpt>
      <trkpt lat="44.09349" lon="7.09333">
        <ele>1086.347</ele>
        <time>2012-03-17T13:33:46Z</time>
      </trkpt>
      <trkpt lat="44.09335" lon="7.09332">
        <ele>1087.898</ele>
        <time>2012-03-17T13:33:53Z</time>
      </trkpt>
      <trkpt lat="44.09319" lon="7.09322">
        <ele>1090.619</ele>
        <time>2012-03-17T13:34:00Z</time>
      </trkpt>
      <trkpt lat="44.09304" lon="7.09308">
        <ele>1095.402</ele>
        <time>2012-03-17T13:34:08Z</time>
      </trkpt>
      <trkpt lat="44.09292" lon="7.09295">
        <ele>1097.469</ele>
        <time>2012-03-17T13:34:14Z</time>
      </trkpt>
      <trkpt lat="44.09272" lon="7.09272">
        <ele>1099.559</ele>
        <time>2012-03-17T13:34:23Z</time>
      </trkpt>
      <trkpt lat="44.09261" lon="7.09253">
        <ele>1100.387</ele>
        <time>2012-03-17T13:34:29Z</time>
      </trkpt>
      <trkpt lat="44.09247" lon="7.09237">
        <ele>1100.668</ele>
        <time>2012-03-17T13:34:35Z</time>
      </trkpt>
      <trkpt lat="44.09224" lon="7.09228">
        <ele>1105.211</ele>
        <time>2012-03-17T13:34:43Z</time>
      </trkpt>
      <trkpt lat="44.09203" lon="7.09219">
        <ele>1108.54</ele>
        <time>2012-03-17T13:34:50Z</time>
      </trkpt>
      <trkpt lat="44.09179" lon="7.0921">
        <ele>1111.677</ele>
        <time>2012-03-17T13:34:58Z</time>
      </trkpt>
      <trkpt lat="44.09166" lon="7.09202">
        <ele>1113.757</ele>
        <time>2012-03-17T13:35:04Z</time>
      </trkpt>
      <trkpt lat="44.09154" lon="7.09187">
        <ele>1105.625</ele>
        <time>2012-03-17T13:35:10Z</time>
      </trkpt>
      <trkpt lat="44.09134" lon="7.0916">
        <ele>1100.414</ele>
        <time>2012-03-17T13:35:19Z</time>
      </trkpt>
      <trkpt lat="44.09128" lon="7.09142">
        <ele>1095.132</ele>
        <time>2012-03-17T13:35:23Z</time>
      </trkpt>
      <trkpt lat="44.09123" lon="7.09122">
        <ele>1091.143</ele>
        <time>2012-03-17T13:35:28Z</time>
      </trkpt>
      <trkpt lat="44.09117" lon="7.09094">
        <ele>1089.644</ele>
        <time>2012-03-17T13:35:34Z</time>
      </trkpt>
      <trkpt lat="44.09114" lon="7.09073">
        <ele>1090.566</ele>
        <time>2012-03-17T13:35:39Z</time>
      </trkpt>
      <trkpt lat="44.09114" lon="7.09031">
        <ele>1089.642</ele>
        <time>2012-03-17T13:35:49Z</time>
      </trkpt>
      <trkpt lat="44.09113" lon="7.09007">
        <ele>1087.831</ele>
        <time>2012-03-17T13:35:55Z</time>
      </trkpt>
      <trkpt lat="44.0911" lon="7.08988">
        <ele>1088.654</ele>
        <time>2012-03-17T13:35:59Z</time>
      </trkpt>
      <trkpt lat="44.09098" lon="7.08966">
        <ele>1088.404</ele>
        <time>2012-03-17T13:36:05Z</time>
      </trkpt>
      <trkpt lat="44.09086" lon="7.0895">
        <ele>1090.269</ele>
        <time>2012-03-17T13:36:11Z</time>
      </trkpt>
      <trkpt lat="44.09082" lon="7.08934">
        <ele>1091.537</ele>
        <time>2012-03-17T13:36:17Z</time>
      </trkpt>
      <trkpt lat="44.09078" lon="7.08921">
        <ele>1091.905</ele>
        <time>2012-03-17T13:36:22Z</time>
      </trkpt>
      <trkpt lat="44.0907" lon="7.08898">
        <ele>1091.005</ele>
        <time>2012-03-17T13:36:29Z</time>
      </trkpt>
      <trkpt lat="44.09064" lon="7.08878">
        <ele>1089.783</ele>
        <time>2012-03-17T13:36:35Z</time>
      </trkpt>
      <trkpt lat="44.09061" lon="7.08853">
        <ele>1088.08</ele>
        <time>2012-03-17T13:36:42Z</time>
      </trkpt>
      <trkpt lat="44.09055" lon="7.0883">
        <ele>1090.464</ele>
        <time>2012-03-17T13:36:49Z</time>
      </trkpt>
      <trkpt lat="44.09049" lon="7.08815">
        <ele>1090.502</ele>
        <time>2012-03-17T13:36:54Z</time>
      </trkpt>
      <trkpt lat="44.09041" lon="7.08798">
        <ele>1091.755</ele>
        <time>2012-03-17T13:37:01Z</time>
      </trkpt>
      <trkpt lat="44.09037" lon="7.08785">
        <ele>1092.063</ele>
        <time>2012-03-17T13:37:06Z</time>
      </trkpt>
      <trkpt lat="44.09033" lon="7.08767">
        <ele>1091.571</ele>
        <time>2012-03-17T13:37:12Z</time>
      </trkpt>
      <trkpt lat="44.09024" lon="7.08748">
        <ele>1093.564</ele>
        <time>2012-03-17T13:37:18Z</time>
      </trkpt>
      <trkpt lat="44.09008" lon="7.08742">
        <ele>1096.648</ele>
        <time>2012-03-17T13:37:24Z</time>
      </trkpt>
      <trkpt lat="44.08994" lon="7.0875">
        <ele>1099.128</ele>
        <time>2012-03-17T13:37:29Z</time>
      </trkpt>
      <trkpt lat="44.08979" lon="7.0876">
        <ele>1104.202</ele>
        <time>2012-03-17T13:37:35Z</time>
      </trkpt>
      <trkpt lat="44.08971" lon="7.0876">
        <ele>1102.696</ele>
        <time>2012-03-17T13:37:37Z</time>
      </trkpt>
      <trkpt lat="44.08961" lon="7.08782">
        <ele>1098.477</ele>
        <time>2012-03-17T13:37:41Z</time>
      </trkpt>
      <trkpt lat="44.08951" lon="7.08797">
        <ele>1096.085</ele>
        <time>2012-03-17T13:37:44Z</time>
      </trkpt>
      <trkpt lat="44.08954" lon="7.08805">
        <ele>1090.951</ele>
        <time>2012-03-17T13:37:47Z</time>
      </trkpt>
      <trkpt lat="44.08954" lon="7.08803">
        <ele>1084.381</ele>
        <time>2012-03-17T13:37:51Z</time>
      </trkpt>
      <trkpt lat="44.08952" lon="7.08798">
        <ele>1072.448</ele>
        <time>2012-03-17T13:41:13Z</time>
      </trkpt>
      <trkpt lat="44.0896" lon="7.08789">
        <ele>1071.812</ele>
        <time>2012-03-17T13:41:46Z</time>
      </trkpt>
      <trkpt lat="44.08962" lon="7.08791">
        <ele>1073.061</ele>
        <time>2012-03-17T13:41:54Z</time>
      </trkpt>
      <trkpt lat="44.08958" lon="7.08796">
        <ele>1073.791</ele>
        <time>2012-03-17T13:42:01Z</time>
      </trkpt>
      <trkpt lat="44.0896" lon="7.08788">
        <ele>1074.568</ele>
        <time>2012-03-17T13:43:08Z</time>
      </trkpt>
      <trkpt lat="44.08964" lon="7.0878">
        <ele>1076.951</ele>
        <time>2012-03-17T13:43:11Z</time>
      </trkpt>
      <trkpt lat="44.08974" lon="7.08785">
        <ele>1079.455</ele>
        <time>2012-03-17T13:43:16Z</time>
      </trkpt>
      <trkpt lat="44.08984" lon="7.08787">
        <ele>1081.186</ele>
        <time>2012-03-17T13:43:19Z</time>
      </trkpt>
      <trkpt lat="44.08994" lon="7.08778">
        <ele>1085.19</ele>
        <time>2012-03-17T13:43:22Z</time>
      </trkpt>
      <trkpt lat="44.09007" lon="7.08775">
        <ele>1092.746</ele>
        <time>2012-03-17T13:43:28Z</time>
      </trkpt>
      <trkpt lat="44.09008" lon="7.08776">
        <ele>1096.084</ele>
        <time>2012-03-17T13:43:31Z</time>
      </trkpt>
      <trkpt lat="44.09005" lon="7.08783">
        <ele>1096.13</ele>
        <time>2012-03-17T13:43:38Z</time>
      </trkpt>
      <trkpt lat="44.09001" lon="7.08786">
        <ele>1086.718</ele>
        <time>2012-03-17T13:43:53Z</time>
      </trkpt>
      <trkpt lat="44.08997" lon="7.08793">
        <ele>1088.51</ele>
        <time>2012-03-17T13:43:57Z</time>
      </trkpt>
      <trkpt lat="44.09003" lon="7.08796">
        <ele>1088.338</ele>
        <time>2012-03-17T13:44:02Z</time>
      </trkpt>
      <trkpt lat="44.09015" lon="7.08808">
        <ele>1088.849</ele>
        <time>2012-03-17T13:44:06Z</time>
      </trkpt>
      <trkpt lat="44.09018" lon="7.08817">
        <ele>1074.837</ele>
        <time>2012-03-17T13:44:10Z</time>
      </trkpt>
      <trkpt lat="44.09024" lon="7.08832">
        <ele>1067.163</ele>
        <time>2012-03-17T13:44:13Z</time>
      </trkpt>
      <trkpt lat="44.0903" lon="7.08864">
        <ele>1056.609</ele>
        <time>2012-03-17T13:44:18Z</time>
      </trkpt>
      <trkpt lat="44.09029" lon="7.08873">
        <ele>1054.208</ele>
        <time>2012-03-17T13:44:19Z</time>
      </trkpt>
      <trkpt lat="44.09028" lon="7.08894">
        <ele>1049.826</ele>
        <time>2012-03-17T13:44:21Z</time>
      </trkpt>
      <trkpt lat="44.09023" lon="7.08931">
        <ele>1042.759</ele>
        <time>2012-03-17T13:44:25Z</time>
      </trkpt>
      <trkpt lat="44.09021" lon="7.08963">
        <ele>1036.602</ele>
        <time>2012-03-17T13:44:29Z</time>
      </trkpt>
      <trkpt lat="44.09015" lon="7.08973">
        <ele>1035.084</ele>
        <time>2012-03-17T13:44:31Z</time>
      </trkpt>
      <trkpt lat="44.09011" lon="7.08981">
        <ele>1033.945</ele>
        <time>2012-03-17T13:44:33Z</time>
      </trkpt>
      <trkpt lat="44.09015" lon="7.09001">
        <ele>1029.676</ele>
        <time>2012-03-17T13:44:37Z</time>
      </trkpt>
      <trkpt lat="44.09014" lon="7.09031">
        <ele>1023.579</ele>
        <time>2012-03-17T13:44:44Z</time>
      </trkpt>
      <trkpt lat="44.09012" lon="7.09034">
        <ele>1023.23</ele>
        <time>2012-03-17T13:44:45Z</time>
      </trkpt>
      <trkpt lat="44.09017" lon="7.0905">
        <ele>1020.651</ele>
        <time>2012-03-17T13:44:49Z</time>
      </trkpt>
      <trkpt lat="44.0902" lon="7.09052">
        <ele>1021.483</ele>
        <time>2012-03-17T13:44:50Z</time>
      </trkpt>
      <trkpt lat="44.09034" lon="7.09071">
        <ele>1019.812</ele>
        <time>2012-03-17T13:44:55Z</time>
      </trkpt>
      <trkpt lat="44.09037" lon="7.09077">
        <ele>1019.263</ele>
        <time>2012-03-17T13:44:56Z</time>
      </trkpt>
      <trkpt lat="44.09046" lon="7.09121">
        <ele>1015.441</ele>
        <time>2012-03-17T13:45:01Z</time>
      </trkpt>
      <trkpt lat="44.09045" lon="7.09158">
        <ele>1011.669</ele>
        <time>2012-03-17T13:45:05Z</time>
      </trkpt>
      <trkpt lat="44.09054" lon="7.0919">
        <ele>1007.99</ele>
        <time>2012-03-17T13:45:09Z</time>
      </trkpt>
      <trkpt lat="44.09072" lon="7.09234">
        <ele>1003.606</ele>
        <time>2012-03-17T13:45:14Z</time>
      </trkpt>
      <trkpt lat="44.09075" lon="7.09258">
        <ele>1001.025</ele>
        <time>2012-03-17T13:45:16Z</time>
      </trkpt>
      <trkpt lat="44.09076" lon="7.09285">
        <ele>997.983</ele>
        <time>2012-03-17T13:45:18Z</time>
      </trkpt>
      <trkpt lat="44.09069" lon="7.09332">
        <ele>992.15</ele>
        <time>2012-03-17T13:45:22Z</time>
      </trkpt>
      <trkpt lat="44.09062" lon="7.09351">
        <ele>989.801</ele>
        <time>2012-03-17T13:45:24Z</time>
      </trkpt>
      <trkpt lat="44.0905" lon="7.09391">
        <ele>985.54</ele>
        <time>2012-03-17T13:45:28Z</time>
      </trkpt>
      <trkpt lat="44.0905" lon="7.09422">
        <ele>981.964</ele>
        <time>2012-03-17T13:45:32Z</time>
      </trkpt>
      <trkpt lat="44.09057" lon="7.09453">
        <ele>977.506</ele>
        <time>2012-03-17T13:45:36Z</time>
      </trkpt>
      <trkpt lat="44.09064" lon="7.09494">
        <ele>972.997</ele>
        <time>2012-03-17T13:45:41Z</time>
      </trkpt>
      <trkpt lat="44.09069" lon="7.09512">
        <ele>970.907</ele>
        <time>2012-03-17T13:45:43Z</time>
      </trkpt>
      <trkpt lat="44.09081" lon="7.09536">
        <ele>967.611</ele>
        <time>2012-03-17T13:45:48Z</time>
      </trkpt>
      <trkpt lat="44.09103" lon="7.09562">
        <ele>962.781</ele>
        <time>2012-03-17T13:45:54Z</time>
      </trkpt>
      <trkpt lat="44.0911" lon="7.09564">
        <ele>964.074</ele>
        <time>2012-03-17T13:45:59Z</time>
      </trkpt>
      <trkpt lat="44.09107" lon="7.09568">
        <ele>963.757</ele>
        <time>2012-03-17T13:46:02Z</time>
      </trkpt>
      <trkpt lat="44.0909" lon="7.09565">
        <ele>965.8</ele>
        <time>2012-03-17T13:46:08Z</time>
      </trkpt>
      <trkpt lat="44.09074" lon="7.09558">
        <ele>970.684</ele>
        <time>2012-03-17T13:46:13Z</time>
      </trkpt>
      <trkpt lat="44.09062" lon="7.09561">
        <ele>972.945</ele>
        <time>2012-03-17T13:46:18Z</time>
      </trkpt>
      <trkpt lat="44.09061" lon="7.09561">
        <ele>973.184</ele>
        <time>2012-03-17T13:46:22Z</time>
      </trkpt>
      <trkpt lat="44.0906" lon="7.09561">
        <ele>973.253</ele>
        <time>2012-03-17T13:46:29Z</time>
      </trkpt>
      <trkpt lat="44.09054" lon="7.09553">
        <ele>973.421</ele>
        <time>2012-03-17T13:46:33Z</time>
      </trkpt>
      <trkpt lat="44.09046" lon="7.09549">
        <ele>973.882</ele>
        <time>2012-03-17T13:46:35Z</time>
      </trkpt>
      <trkpt lat="44.09033" lon="7.09532">
        <ele>974.671</ele>
        <time>2012-03-17T13:46:39Z</time>
      </trkpt>
      <trkpt lat="44.09011" lon="7.09491">
        <ele>973.388</ele>
        <time>2012-03-17T13:46:45Z</time>
      </trkpt>
      <trkpt lat="44.09004" lon="7.09462">
        <ele>972.417</ele>
        <time>2012-03-17T13:46:48Z</time>
      </trkpt>
      <trkpt lat="44.08993" lon="7.09444">
        <ele>970.737</ele>
        <time>2012-03-17T13:46:51Z</time>
      </trkpt>
      <trkpt lat="44.08988" lon="7.09437">
        <ele>968.434</ele>
        <time>2012-03-17T13:46:53Z</time>
      </trkpt>
      <trkpt lat="44.08985" lon="7.09443">
        <ele>965.023</ele>
        <time>2012-03-17T13:46:57Z</time>
      </trkpt>
      <trkpt lat="44.08984" lon="7.09449">
        <ele>961.401</ele>
        <time>2012-03-17T13:47:00Z</time>
      </trkpt>
      <trkpt lat="44.08981" lon="7.09445">
        <ele>958.73</ele>
        <time>2012-03-17T13:47:03Z</time>
      </trkpt>
      <trkpt lat="44.08983" lon="7.09461">
        <ele>955.105</ele>
        <time>2012-03-17T13:47:08Z</time>
      </trkpt>
      <trkpt lat="44.0898" lon="7.0949">
        <ele>951.423</ele>
        <time>2012-03-17T13:47:12Z</time>
      </trkpt>
      <trkpt lat="44.08984" lon="7.09519">
        <ele>945.257</ele>
        <time>2012-03-17T13:47:16Z</time>
      </trkpt>
      <trkpt lat="44.08986" lon="7.09527">
        <ele>943.566</ele>
        <time>2012-03-17T13:47:17Z</time>
      </trkpt>
      <trkpt lat="44.0899" lon="7.09544">
        <ele>939.905</ele>
        <time>2012-03-17T13:47:19Z</time>
      </trkpt>
      <trkpt lat="44.09" lon="7.09569">
        <ele>935.745</ele>
        <time>2012-03-17T13:47:22Z</time>
      </trkpt>
      <trkpt lat="44.09007" lon="7.09581">
        <ele>933.368</ele>
        <time>2012-03-17T13:47:24Z</time>
      </trkpt>
      <trkpt lat="44.09022" lon="7.09594">
        <ele>930.809</ele>
        <time>2012-03-17T13:47:27Z</time>
      </trkpt>
      <trkpt lat="44.09036" lon="7.0961">
        <ele>928.038</ele>
        <time>2012-03-17T13:47:30Z</time>
      </trkpt>
      <trkpt lat="44.09045" lon="7.09618">
        <ele>926.779</ele>
        <time>2012-03-17T13:47:32Z</time>
      </trkpt>
      <trkpt lat="44.09054" lon="7.09629">
        <ele>924.399</ele>
        <time>2012-03-17T13:47:35Z</time>
      </trkpt>
      <trkpt lat="44.09055" lon="7.09632">
        <ele>924.013</ele>
        <time>2012-03-17T13:47:37Z</time>
      </trkpt>
      <trkpt lat="44.09041" lon="7.09627">
        <ele>924.307</ele>
        <time>2012-03-17T13:47:42Z</time>
      </trkpt>
      <trkpt lat="44.0902" lon="7.09622">
        <ele>924.258</ele>
        <time>2012-03-17T13:47:46Z</time>
      </trkpt>
      <trkpt lat="44.09" lon="7.09619">
        <ele>923.658</ele>
        <time>2012-03-17T13:47:50Z</time>
      </trkpt>
      <trkpt lat="44.08968" lon="7.0962">
        <ele>923.93</ele>
        <time>2012-03-17T13:47:55Z</time>
      </trkpt>
      <trkpt lat="44.08948" lon="7.09612">
        <ele>922.316</ele>
        <time>2012-03-17T13:47:59Z</time>
      </trkpt>
      <trkpt lat="44.0893" lon="7.09595">
        <ele>920.086</ele>
        <time>2012-03-17T13:48:03Z</time>
      </trkpt>
      <trkpt lat="44.08925" lon="7.09579">
        <ele>916.302</ele>
        <time>2012-03-17T13:48:05Z</time>
      </trkpt>
      <trkpt lat="44.08922" lon="7.09551">
        <ele>911.28</ele>
        <time>2012-03-17T13:48:08Z</time>
      </trkpt>
      <trkpt lat="44.08915" lon="7.09526">
        <ele>906.204</ele>
        <time>2012-03-17T13:48:11Z</time>
      </trkpt>
      <trkpt lat="44.0891" lon="7.09508">
        <ele>903.586</ele>
        <time>2012-03-17T13:48:13Z</time>
      </trkpt>
      <trkpt lat="44.08907" lon="7.0948">
        <ele>899.985</ele>
        <time>2012-03-17T13:48:16Z</time>
      </trkpt>
      <trkpt lat="44.08911" lon="7.09452">
        <ele>895.026</ele>
        <time>2012-03-17T13:48:20Z</time>
      </trkpt>
      <trkpt lat="44.0892" lon="7.09432">
        <ele>892.287</ele>
        <time>2012-03-17T13:48:23Z</time>
      </trkpt>
      <trkpt lat="44.0892" lon="7.09403">
        <ele>886.495</ele>
        <time>2012-03-17T13:48:27Z</time>
      </trkpt>
      <trkpt lat="44.08918" lon="7.09397">
        <ele>885.816</ele>
        <time>2012-03-17T13:48:28Z</time>
      </trkpt>
      <trkpt lat="44.08915" lon="7.09401">
        <ele>882.997</ele>
        <time>2012-03-17T13:48:31Z</time>
      </trkpt>
      <trkpt lat="44.08912" lon="7.09422">
        <ele>880.167</ele>
        <time>2012-03-17T13:48:34Z</time>
      </trkpt>
      <trkpt lat="44.08898" lon="7.09452">
        <ele>876.238</ele>
        <time>2012-03-17T13:48:38Z</time>
      </trkpt>
      <trkpt lat="44.08881" lon="7.09487">
        <ele>869.447</ele>
        <time>2012-03-17T13:48:43Z</time>
      </trkpt>
      <trkpt lat="44.08868" lon="7.09496">
        <ele>865.906</ele>
        <time>2012-03-17T13:48:46Z</time>
      </trkpt>
      <trkpt lat="44.08866" lon="7.09503">
        <ele>864.13</ele>
        <time>2012-03-17T13:48:49Z</time>
      </trkpt>
      <trkpt lat="44.08862" lon="7.09516">
        <ele>864.865</ele>
        <time>2012-03-17T13:48:53Z</time>
      </trkpt>
      <trkpt lat="44.08854" lon="7.09538">
        <ele>861.6</ele>
        <time>2012-03-17T13:48:56Z</time>
      </trkpt>
      <trkpt lat="44.08848" lon="7.09547">
        <ele>860.37</ele>
        <time>2012-03-17T13:48:57Z</time>
      </trkpt>
      <trkpt lat="44.08841" lon="7.09588">
        <ele>856.098</ele>
        <time>2012-03-17T13:49:02Z</time>
      </trkpt>
      <trkpt lat="44.08844" lon="7.09592">
        <ele>855.34</ele>
        <time>2012-03-17T13:49:03Z</time>
      </trkpt>
      <trkpt lat="44.0885" lon="7.0961">
        <ele>853.225</ele>
        <time>2012-03-17T13:49:09Z</time>
      </trkpt>
      <trkpt lat="44.08851" lon="7.09609">
        <ele>854.701</ele>
        <time>2012-03-17T13:49:16Z</time>
      </trkpt>
      <trkpt lat="44.08848" lon="7.09608">
        <ele>857.622</ele>
        <time>2012-03-17T13:50:26Z</time>
      </trkpt>
      <trkpt lat="44.08856" lon="7.09619">
        <ele>856.417</ele>
        <time>2012-03-17T13:50:30Z</time>
      </trkpt>
      <trkpt lat="44.08875" lon="7.09652">
        <ele>853.144</ele>
        <time>2012-03-17T13:50:35Z</time>
      </trkpt>
      <trkpt lat="44.08882" lon="7.09672">
        <ele>850.39</ele>
        <time>2012-03-17T13:50:38Z</time>
      </trkpt>
      <trkpt lat="44.08881" lon="7.09674">
        <ele>849.264</ele>
        <time>2012-03-17T13:50:40Z</time>
      </trkpt>
      <trkpt lat="44.08873" lon="7.09659">
        <ele>847.955</ele>
        <time>2012-03-17T13:50:44Z</time>
      </trkpt>
      <trkpt lat="44.08856" lon="7.09648">
        <ele>847.786</ele>
        <time>2012-03-17T13:50:47Z</time>
      </trkpt>
      <trkpt lat="44.0884" lon="7.09646">
        <ele>848.209</ele>
        <time>2012-03-17T13:50:49Z</time>
      </trkpt>
      <trkpt lat="44.08807" lon="7.09639">
        <ele>846.546</ele>
        <time>2012-03-17T13:50:53Z</time>
      </trkpt>
      <trkpt lat="44.08788" lon="7.09617">
        <ele>844.194</ele>
        <time>2012-03-17T13:50:57Z</time>
      </trkpt>
      <trkpt lat="44.08783" lon="7.09588">
        <ele>840.371</ele>
        <time>2012-03-17T13:51:00Z</time>
      </trkpt>
      <trkpt lat="44.08788" lon="7.09566">
        <ele>837.048</ele>
        <time>2012-03-17T13:51:02Z</time>
      </trkpt>
      <trkpt lat="44.08794" lon="7.09529">
        <ele>830.073</ele>
        <time>2012-03-17T13:51:05Z</time>
      </trkpt>
      <trkpt lat="44.08808" lon="7.09491">
        <ele>824.473</ele>
        <time>2012-03-17T13:51:09Z</time>
      </trkpt>
      <trkpt lat="44.08824" lon="7.09461">
        <ele>820.154</ele>
        <time>2012-03-17T13:51:12Z</time>
      </trkpt>
      <trkpt lat="44.08833" lon="7.09418">
        <ele>811.689</ele>
        <time>2012-03-17T13:51:16Z</time>
      </trkpt>
      <trkpt lat="44.08834" lon="7.09394">
        <ele>807.909</ele>
        <time>2012-03-17T13:51:18Z</time>
      </trkpt>
      <trkpt lat="44.08835" lon="7.09363">
        <ele>802.582</ele>
        <time>2012-03-17T13:51:22Z</time>
      </trkpt>
      <trkpt lat="44.08835" lon="7.09364">
        <ele>801.503</ele>
        <time>2012-03-17T13:51:23Z</time>
      </trkpt>
      <trkpt lat="44.08829" lon="7.09396">
        <ele>795.964</ele>
        <time>2012-03-17T13:51:27Z</time>
      </trkpt>
      <trkpt lat="44.08811" lon="7.09444">
        <ele>790.373</ele>
        <time>2012-03-17T13:51:31Z</time>
      </trkpt>
      <trkpt lat="44.0878" lon="7.09494">
        <ele>783.743</ele>
        <time>2012-03-17T13:51:36Z</time>
      </trkpt>
      <trkpt lat="44.0876" lon="7.09517">
        <ele>780.78</ele>
        <time>2012-03-17T13:51:39Z</time>
      </trkpt>
      <trkpt lat="44.08737" lon="7.09538">
        <ele>775.784</ele>
        <time>2012-03-17T13:51:43Z</time>
      </trkpt>
      <trkpt lat="44.08734" lon="7.09546">
        <ele>774.403</ele>
        <time>2012-03-17T13:51:44Z</time>
      </trkpt>
      <trkpt lat="44.0872" lon="7.09576">
        <ele>770.433</ele>
        <time>2012-03-17T13:51:47Z</time>
      </trkpt>
      <trkpt lat="44.08686" lon="7.09614">
        <ele>766.215</ele>
        <time>2012-03-17T13:51:52Z</time>
      </trkpt>
      <trkpt lat="44.0868" lon="7.09619">
        <ele>765.474</ele>
        <time>2012-03-17T13:51:53Z</time>
      </trkpt>
      <trkpt lat="44.08665" lon="7.09652">
        <ele>759.332</ele>
        <time>2012-03-17T13:51:57Z</time>
      </trkpt>
      <trkpt lat="44.08641" lon="7.09693">
        <ele>752.401</ele>
        <time>2012-03-17T13:52:02Z</time>
      </trkpt>
      <trkpt lat="44.08625" lon="7.09715">
        <ele>746.651</ele>
        <time>2012-03-17T13:52:06Z</time>
      </trkpt>
      <trkpt lat="44.08626" lon="7.09735">
        <ele>744.233</ele>
        <time>2012-03-17T13:52:09Z</time>
      </trkpt>
      <trkpt lat="44.0863" lon="7.09749">
        <ele>742.555</ele>
        <time>2012-03-17T13:52:11Z</time>
      </trkpt>
      <trkpt lat="44.08641" lon="7.09767">
        <ele>739.747</ele>
        <time>2012-03-17T13:52:14Z</time>
      </trkpt>
      <trkpt lat="44.08659" lon="7.09781">
        <ele>735.507</ele>
        <time>2012-03-17T13:52:17Z</time>
      </trkpt>
      <trkpt lat="44.08673" lon="7.0981">
        <ele>732.966</ele>
        <time>2012-03-17T13:52:21Z</time>
      </trkpt>
      <trkpt lat="44.08673" lon="7.09819">
        <ele>731.037</ele>
        <time>2012-03-17T13:52:24Z</time>
      </trkpt>
      <trkpt lat="44.0866" lon="7.09803">
        <ele>737.028</ele>
        <time>2012-03-17T13:52:27Z</time>
      </trkpt>
      <trkpt lat="44.08654" lon="7.09796">
        <ele>737.579</ele>
        <time>2012-03-17T13:52:30Z</time>
      </trkpt>
      <trkpt lat="44.08656" lon="7.09799">
        <ele>739.172</ele>
        <time>2012-03-17T13:52:36Z</time>
      </trkpt>
      <trkpt lat="44.08658" lon="7.09795">
        <ele>737.065</ele>
        <time>2012-03-17T13:53:48Z</time>
      </trkpt>
      <trkpt lat="44.0866" lon="7.0981">
        <ele>737.241</ele>
        <time>2012-03-17T13:53:52Z</time>
      </trkpt>
      <trkpt lat="44.08662" lon="7.09824">
        <ele>736.729</ele>
        <time>2012-03-17T13:53:54Z</time>
      </trkpt>
      <trkpt lat="44.08663" lon="7.09844">
        <ele>734.655</ele>
        <time>2012-03-17T13:53:57Z</time>
      </trkpt>
      <trkpt lat="44.08669" lon="7.09872">
        <ele>727.74</ele>
        <time>2012-03-17T13:54:02Z</time>
      </trkpt>
      <trkpt lat="44.0867" lon="7.09878">
        <ele>726.769</ele>
        <time>2012-03-17T13:54:03Z</time>
      </trkpt>
      <trkpt lat="44.08679" lon="7.0989">
        <ele>722.45</ele>
        <time>2012-03-17T13:54:08Z</time>
      </trkpt>
      <trkpt lat="44.08675" lon="7.09895">
        <ele>721.523</ele>
        <time>2012-03-17T13:54:11Z</time>
      </trkpt>
      <trkpt lat="44.08675" lon="7.09901">
        <ele>719.224</ele>
        <time>2012-03-17T13:54:16Z</time>
      </trkpt>
      <trkpt lat="44.08679" lon="7.09903">
        <ele>717.684</ele>
        <time>2012-03-17T13:54:19Z</time>
      </trkpt>
      <trkpt lat="44.08673" lon="7.09907">
        <ele>715.784</ele>
        <time>2012-03-17T13:54:22Z</time>
      </trkpt>
      <trkpt lat="44.0867" lon="7.09909">
        <ele>714.173</ele>
        <time>2012-03-17T13:54:24Z</time>
      </trkpt>
      <trkpt lat="44.08678" lon="7.09909">
        <ele>711.213</ele>
        <time>2012-03-17T13:54:28Z</time>
      </trkpt>
      <trkpt lat="44.08685" lon="7.09908">
        <ele>709.571</ele>
        <time>2012-03-17T13:54:30Z</time>
      </trkpt>
      <trkpt lat="44.08699" lon="7.09926">
        <ele>704.737</ele>
        <time>2012-03-17T13:54:35Z</time>
      </trkpt>
      <trkpt lat="44.08711" lon="7.09955">
        <ele>697.515</ele>
        <time>2012-03-17T13:54:41Z</time>
      </trkpt>
      <trkpt lat="44.08715" lon="7.09974">
        <ele>692.117</ele>
        <time>2012-03-17T13:54:45Z</time>
      </trkpt>
      <trkpt lat="44.08713" lon="7.1">
        <ele>685.117</ele>
        <time>2012-03-17T13:54:50Z</time>
      </trkpt>
      <trkpt lat="44.08711" lon="7.10004">
        <ele>683.795</ele>
        <time>2012-03-17T13:54:51Z</time>
      </trkpt>
      <trkpt lat="44.08706" lon="7.10011">
        <ele>681.256</ele>
        <time>2012-03-17T13:54:53Z</time>
      </trkpt>
      <trkpt lat="44.08703" lon="7.10013">
        <ele>679.107</ele>
        <time>2012-03-17T13:54:55Z</time>
      </trkpt>
      <trkpt lat="44.087" lon="7.10016">
        <ele>674.528</ele>
        <time>2012-03-17T13:54:59Z</time>
      </trkpt>
      <trkpt lat="44.08695" lon="7.10031">
        <ele>671.178</ele>
        <time>2012-03-17T13:55:02Z</time>
      </trkpt>
      <trkpt lat="44.08698" lon="7.10053">
        <ele>666.008</ele>
        <time>2012-03-17T13:55:06Z</time>
      </trkpt>
      <trkpt lat="44.08703" lon="7.10074">
        <ele>662.48</ele>
        <time>2012-03-17T13:55:10Z</time>
      </trkpt>
      <trkpt lat="44.087" lon="7.10093">
        <ele>658.64</ele>
        <time>2012-03-17T13:55:15Z</time>
      </trkpt>
      <trkpt lat="44.08697" lon="7.10094">
        <ele>657.701</ele>
        <time>2012-03-17T13:55:16Z</time>
      </trkpt>
      <trkpt lat="44.08702" lon="7.10106">
        <ele>652.987</ele>
        <time>2012-03-17T13:55:20Z</time>
      </trkpt>
      <trkpt lat="44.08706" lon="7.1011">
        <ele>651.787</ele>
        <time>2012-03-17T13:55:21Z</time>
      </trkpt>
      <trkpt lat="44.08719" lon="7.10115">
        <ele>650.245</ele>
        <time>2012-03-17T13:55:26Z</time>
      </trkpt>
      <trkpt lat="44.08716" lon="7.10114">
        <ele>651.041</ele>
        <time>2012-03-17T13:55:31Z</time>
      </trkpt>
      <trkpt lat="44.08716" lon="7.10113">
        <ele>650.651</ele>
        <time>2012-03-17T13:55:37Z</time>
      </trkpt>
      <trkpt lat="44.08715" lon="7.10115">
        <ele>653.235</ele>
        <time>2012-03-17T13:55:44Z</time>
      </trkpt>
      <trkpt lat="44.08717" lon="7.10115">
        <ele>658.285</ele>
        <time>2012-03-17T13:56:47Z</time>
      </trkpt>
      <trkpt lat="44.08718" lon="7.10115">
        <ele>658.904</ele>
        <time>2012-03-17T13:56:55Z</time>
      </trkpt>
      <trkpt lat="44.08723" lon="7.10113">
        <ele>657.283</ele>
        <time>2012-03-17T13:57:03Z</time>
      </trkpt>
      <trkpt lat="44.08735" lon="7.10109">
        <ele>656.913</ele>
        <time>2012-03-17T13:57:09Z</time>
      </trkpt>
      <trkpt lat="44.0875" lon="7.10098">
        <ele>656.933</ele>
        <time>2012-03-17T13:57:15Z</time>
      </trkpt>
      <trkpt lat="44.08775" lon="7.1008">
        <ele>655.75</ele>
        <time>2012-03-17T13:57:23Z</time>
      </trkpt>
      <trkpt lat="44.08792" lon="7.10077">
        <ele>652.778</ele>
        <time>2012-03-17T13:57:28Z</time>
      </trkpt>
      <trkpt lat="44.08805" lon="7.10083">
        <ele>651.971</ele>
        <time>2012-03-17T13:57:32Z</time>
      </trkpt>
      <trkpt lat="44.08827" lon="7.10103">
        <ele>650.869</ele>
        <time>2012-03-17T13:57:39Z</time>
      </trkpt>
      <trkpt lat="44.08841" lon="7.10124">
        <ele>650.56</ele>
        <time>2012-03-17T13:57:44Z</time>
      </trkpt>
      <trkpt lat="44.08856" lon="7.10154">
        <ele>649.952</ele>
        <time>2012-03-17T13:57:50Z</time>
      </trkpt>
      <trkpt lat="44.08873" lon="7.10168">
        <ele>648.784</ele>
        <time>2012-03-17T13:57:55Z</time>
      </trkpt>
      <trkpt lat="44.08893" lon="7.10171">
        <ele>647.713</ele>
        <time>2012-03-17T13:58:00Z</time>
      </trkpt>
      <trkpt lat="44.08901" lon="7.10182">
        <ele>647.674</ele>
        <time>2012-03-17T13:58:04Z</time>
      </trkpt>
      <trkpt lat="44.08904" lon="7.10186">
        <ele>647.544</ele>
        <time>2012-03-17T13:58:05Z</time>
      </trkpt>
      <trkpt lat="44.08917" lon="7.10207">
        <ele>646.873</ele>
        <time>2012-03-17T13:58:10Z</time>
      </trkpt>
      <trkpt lat="44.08924" lon="7.10224">
        <ele>647.454</ele>
        <time>2012-03-17T13:58:13Z</time>
      </trkpt>
      <trkpt lat="44.08939" lon="7.10284">
        <ele>646.863</ele>
        <time>2012-03-17T13:58:22Z</time>
      </trkpt>
      <trkpt lat="44.08941" lon="7.1032">
        <ele>645.872</ele>
        <time>2012-03-17T13:58:27Z</time>
      </trkpt>
      <trkpt lat="44.08945" lon="7.1034">
        <ele>646.114</ele>
        <time>2012-03-17T13:58:31Z</time>
      </trkpt>
      <trkpt lat="44.08956" lon="7.10374">
        <ele>648.155</ele>
        <time>2012-03-17T13:58:38Z</time>
      </trkpt>
      <trkpt lat="44.08958" lon="7.10379">
        <ele>648.645</ele>
        <time>2012-03-17T13:58:40Z</time>
      </trkpt>
      <trkpt lat="44.08959" lon="7.10382">
        <ele>648.925</ele>
        <time>2012-03-17T13:58:44Z</time>
      </trkpt>
      <trkpt lat="44.08961" lon="7.10381">
        <ele>647.593</ele>
        <time>2012-03-17T13:58:49Z</time>
      </trkpt>
      <trkpt lat="44.08965" lon="7.10387">
        <ele>649.707</ele>
        <time>2012-03-17T13:58:57Z</time>
      </trkpt>
      <trkpt lat="44.0897" lon="7.10394">
        <ele>649.755</ele>
        <time>2012-03-17T13:59:23Z</time>
      </trkpt>
      <trkpt lat="44.08971" lon="7.10395">
        <ele>649.504</ele>
        <time>2012-03-17T13:59:24Z</time>
      </trkpt>
      <trkpt lat="44.08981" lon="7.10397">
        <ele>648.761</ele>
        <time>2012-03-17T13:59:30Z</time>
      </trkpt>
      <trkpt lat="44.08981" lon="7.10396">
        <ele>648.813</ele>
        <time>2012-03-17T13:59:36Z</time>
      </trkpt>
      <trkpt lat="44.08981" lon="7.10396">
        <ele>648.493</ele>
        <time>2012-03-17T13:59:40Z</time>
      </trkpt>
      <trkpt lat="44.08974" lon="7.10408">
        <ele>649.615</ele>
        <time>2012-03-17T13:59:45Z</time>
      </trkpt>
      <trkpt lat="44.08964" lon="7.10416">
        <ele>651.137</ele>
        <time>2012-03-17T13:59:48Z</time>
      </trkpt>
      <trkpt lat="44.08958" lon="7.10419">
        <ele>652.076</ele>
        <time>2012-03-17T13:59:51Z</time>
      </trkpt>
      <trkpt lat="44.08956" lon="7.10424">
        <ele>649.535</ele>
        <time>2012-03-17T13:59:57Z</time>
      </trkpt>
      <trkpt lat="44.08954" lon="7.10433">
        <ele>645.819</ele>
        <time>2012-03-17T14:00:05Z</time>
      </trkpt>
      <trkpt lat="44.08953" lon="7.10437">
        <ele>644.927</ele>
        <time>2012-03-17T14:00:06Z</time>
      </trkpt>
      <trkpt lat="44.08956" lon="7.10441">
        <ele>641.565</ele>
        <time>2012-03-17T14:00:10Z</time>
      </trkpt>
      <trkpt lat="44.0896" lon="7.1044">
        <ele>640.704</ele>
        <time>2012-03-17T14:00:12Z</time>
      </trkpt>
      <trkpt lat="44.08958" lon="7.10447">
        <ele>637.953</ele>
        <time>2012-03-17T14:00:16Z</time>
      </trkpt>
      <trkpt lat="44.08956" lon="7.1045">
        <ele>637.734</ele>
        <time>2012-03-17T14:00:17Z</time>
      </trkpt>
      <trkpt lat="44.08956" lon="7.10457">
        <ele>633.964</ele>
        <time>2012-03-17T14:00:21Z</time>
      </trkpt>
      <trkpt lat="44.08959" lon="7.10455">
        <ele>634.666</ele>
        <time>2012-03-17T14:00:22Z</time>
      </trkpt>
      <trkpt lat="44.08967" lon="7.10452">
        <ele>633.597</ele>
        <time>2012-03-17T14:00:25Z</time>
      </trkpt>
      <trkpt lat="44.08966" lon="7.10459">
        <ele>629.882</ele>
        <time>2012-03-17T14:00:29Z</time>
      </trkpt>
      <trkpt lat="44.08961" lon="7.10472">
        <ele>626.041</ele>
        <time>2012-03-17T14:00:33Z</time>
      </trkpt>
      <trkpt lat="44.08967" lon="7.10473">
        <ele>622.001</ele>
        <time>2012-03-17T14:00:37Z</time>
      </trkpt>
      <trkpt lat="44.08983" lon="7.1047">
        <ele>619.18</ele>
        <time>2012-03-17T14:00:40Z</time>
      </trkpt>
      <trkpt lat="44.0899" lon="7.1047">
        <ele>615.981</ele>
        <time>2012-03-17T14:00:44Z</time>
      </trkpt>
      <trkpt lat="44.0898" lon="7.10487">
        <ele>611.608</ele>
        <time>2012-03-17T14:00:49Z</time>
      </trkpt>
      <trkpt lat="44.08988" lon="7.10486">
        <ele>607.859</ele>
        <time>2012-03-17T14:00:52Z</time>
      </trkpt>
      <trkpt lat="44.09007" lon="7.10483">
        <ele>605.672</ele>
        <time>2012-03-17T14:00:56Z</time>
      </trkpt>
      <trkpt lat="44.09018" lon="7.10481">
        <ele>603.674</ele>
        <time>2012-03-17T14:00:59Z</time>
      </trkpt>
      <trkpt lat="44.09023" lon="7.1048">
        <ele>602.708</ele>
        <time>2012-03-17T14:01:02Z</time>
      </trkpt>
      <trkpt lat="44.09036" lon="7.10478">
        <ele>599.836</ele>
        <time>2012-03-17T14:01:07Z</time>
      </trkpt>
      <trkpt lat="44.0904" lon="7.10478">
        <ele>597.736</ele>
        <time>2012-03-17T14:01:11Z</time>
      </trkpt>
      <trkpt lat="44.09041" lon="7.1048">
        <ele>596.747</ele>
        <time>2012-03-17T14:01:14Z</time>
      </trkpt>
      <trkpt lat="44.09037" lon="7.10488">
        <ele>594.833</ele>
        <time>2012-03-17T14:01:19Z</time>
      </trkpt>
      <trkpt lat="44.09044" lon="7.10488">
        <ele>591.371</ele>
        <time>2012-03-17T14:01:23Z</time>
      </trkpt>
      <trkpt lat="44.09044" lon="7.10489">
        <ele>591.023</ele>
        <time>2012-03-17T14:01:25Z</time>
      </trkpt>
      <trkpt lat="44.09037" lon="7.10493">
        <ele>589.492</ele>
        <time>2012-03-17T14:01:28Z</time>
      </trkpt>
      <trkpt lat="44.09021" lon="7.10511">
        <ele>585.289</ele>
        <time>2012-03-17T14:01:33Z</time>
      </trkpt>
      <trkpt lat="44.09016" lon="7.1052">
        <ele>581.779</ele>
        <time>2012-03-17T14:01:37Z</time>
      </trkpt>
      <trkpt lat="44.09024" lon="7.1052">
        <ele>577.225</ele>
        <time>2012-03-17T14:01:40Z</time>
      </trkpt>
      <trkpt lat="44.0904" lon="7.10519">
        <ele>572.281</ele>
        <time>2012-03-17T14:01:43Z</time>
      </trkpt>
      <trkpt lat="44.09056" lon="7.10519">
        <ele>565.429</ele>
        <time>2012-03-17T14:01:48Z</time>
      </trkpt>
      <trkpt lat="44.09046" lon="7.1053">
        <ele>563.023</ele>
        <time>2012-03-17T14:01:52Z</time>
      </trkpt>
      <trkpt lat="44.09033" lon="7.10543">
        <ele>560.045</ele>
        <time>2012-03-17T14:01:56Z</time>
      </trkpt>
      <trkpt lat="44.09031" lon="7.10545">
        <ele>558.436</ele>
        <time>2012-03-17T14:01:58Z</time>
      </trkpt>
      <trkpt lat="44.09032" lon="7.10548">
        <ele>558.229</ele>
        <time>2012-03-17T14:02:00Z</time>
      </trkpt>
      <trkpt lat="44.09029" lon="7.10556">
        <ele>556.752</ele>
        <time>2012-03-17T14:02:05Z</time>
      </trkpt>
      <trkpt lat="44.0904" lon="7.10556">
        <ele>556.394</ele>
        <time>2012-03-17T14:02:08Z</time>
      </trkpt>
      <trkpt lat="44.09049" lon="7.10559">
        <ele>553.801</ele>
        <time>2012-03-17T14:02:10Z</time>
      </trkpt>
      <trkpt lat="44.09058" lon="7.10559">
        <ele>553.956</ele>
        <time>2012-03-17T14:02:13Z</time>
      </trkpt>
      <trkpt lat="44.09059" lon="7.10563">
        <ele>552.983</ele>
        <time>2012-03-17T14:02:15Z</time>
      </trkpt>
      <trkpt lat="44.09043" lon="7.10578">
        <ele>551.032</ele>
        <time>2012-03-17T14:02:19Z</time>
      </trkpt>
      <trkpt lat="44.09045" lon="7.10581">
        <ele>548.153</ele>
        <time>2012-03-17T14:02:22Z</time>
      </trkpt>
      <trkpt lat="44.09048" lon="7.10582">
        <ele>547.975</ele>
        <time>2012-03-17T14:02:25Z</time>
      </trkpt>
      <trkpt lat="44.09053" lon="7.10586">
        <ele>545.743</ele>
        <time>2012-03-17T14:02:29Z</time>
      </trkpt>
      <trkpt lat="44.09063" lon="7.10585">
        <ele>543.513</ele>
        <time>2012-03-17T14:02:32Z</time>
      </trkpt>
      <trkpt lat="44.0908" lon="7.10581">
        <ele>538.65</ele>
        <time>2012-03-17T14:02:37Z</time>
      </trkpt>
      <trkpt lat="44.09099" lon="7.1058">
        <ele>534.737</ele>
        <time>2012-03-17T14:02:41Z</time>
      </trkpt>
      <trkpt lat="44.09101" lon="7.10581">
        <ele>533.607</ele>
        <time>2012-03-17T14:02:42Z</time>
      </trkpt>
      <trkpt lat="44.09099" lon="7.10588">
        <ele>532.539</ele>
        <time>2012-03-17T14:02:47Z</time>
      </trkpt>
      <trkpt lat="44.09101" lon="7.10592">
        <ele>528.139</ele>
        <time>2012-03-17T14:02:52Z</time>
      </trkpt>
      <trkpt lat="44.09101" lon="7.10597">
        <ele>524.598</ele>
        <time>2012-03-17T14:02:55Z</time>
      </trkpt>
      <trkpt lat="44.09094" lon="7.106">
        <ele>522.242</ele>
        <time>2012-03-17T14:02:59Z</time>
      </trkpt>
      <trkpt lat="44.09094" lon="7.10603">
        <ele>520.835</ele>
        <time>2012-03-17T14:03:02Z</time>
      </trkpt>
      <trkpt lat="44.09086" lon="7.10614">
        <ele>517.743</ele>
        <time>2012-03-17T14:03:07Z</time>
      </trkpt>
      <trkpt lat="44.09079" lon="7.10624">
        <ele>513.81</ele>
        <time>2012-03-17T14:03:11Z</time>
      </trkpt>
      <trkpt lat="44.09059" lon="7.10631">
        <ele>511.494</ele>
        <time>2012-03-17T14:03:16Z</time>
      </trkpt>
      <trkpt lat="44.09054" lon="7.1063">
        <ele>510.443</ele>
        <time>2012-03-17T14:03:17Z</time>
      </trkpt>
      <trkpt lat="44.09024" lon="7.10637">
        <ele>506.641</ele>
        <time>2012-03-17T14:03:23Z</time>
      </trkpt>
      <trkpt lat="44.09011" lon="7.10645">
        <ele>505.235</ele>
        <time>2012-03-17T14:03:27Z</time>
      </trkpt>
      <trkpt lat="44.09004" lon="7.1065">
        <ele>504.055</ele>
        <time>2012-03-17T14:03:29Z</time>
      </trkpt>
      <trkpt lat="44.08981" lon="7.10669">
        <ele>503.949</ele>
        <time>2012-03-17T14:03:34Z</time>
      </trkpt>
      <trkpt lat="44.08969" lon="7.10671">
        <ele>506.715</ele>
        <time>2012-03-17T14:03:38Z</time>
      </trkpt>
      <trkpt lat="44.08958" lon="7.10671">
        <ele>507.486</ele>
        <time>2012-03-17T14:03:41Z</time>
      </trkpt>
      <trkpt lat="44.08933" lon="7.10672">
        <ele>505.083</ele>
        <time>2012-03-17T14:03:46Z</time>
      </trkpt>
      <trkpt lat="44.08923" lon="7.10671">
        <ele>505.175</ele>
        <time>2012-03-17T14:03:48Z</time>
      </trkpt>
      <trkpt lat="44.08921" lon="7.1067">
        <ele>502.392</ele>
        <time>2012-03-17T14:03:54Z</time>
      </trkpt>
      <trkpt lat="44.08921" lon="7.10664">
        <ele>515.075</ele>
        <time>2012-03-17T14:04:18Z</time>
      </trkpt>
      <trkpt lat="44.08918" lon="7.10667">
        <ele>488.365</ele>
        <time>2012-03-17T14:05:30Z</time>
      </trkpt>
      <trkpt lat="44.08932" lon="7.10667">
        <ele>514.345</ele>
        <time>2012-03-17T14:08:04Z</time>
      </trkpt>
      <trkpt lat="44.08925" lon="7.10667">
        <ele>495.104</ele>
        <time>2012-03-17T14:09:03Z</time>
      </trkpt>
      <trkpt lat="44.08925" lon="7.10668">
        <ele>494.581</ele>
        <time>2012-03-17T14:09:04Z</time>
      </trkpt>
      <trkpt lat="44.08935" lon="7.10666">
        <ele>492.194</ele>
        <time>2012-03-17T14:09:11Z</time>
      </trkpt>
      <trkpt lat="44.08944" lon="7.1066">
        <ele>495.386</ele>
        <time>2012-03-17T14:09:16Z</time>
      </trkpt>
      <trkpt lat="44.08953" lon="7.10655">
        <ele>498.319</ele>
        <time>2012-03-17T14:09:22Z</time>
      </trkpt>
      <trkpt lat="44.08954" lon="7.10655">
        <ele>498.379</ele>
        <time>2012-03-17T14:09:23Z</time>
      </trkpt>
      <trkpt lat="44.08964" lon="7.10652">
        <ele>501.753</ele>
        <time>2012-03-17T14:09:30Z</time>
      </trkpt>
      <trkpt lat="44.08967" lon="7.10653">
        <ele>503.729</ele>
        <time>2012-03-17T14:09:35Z</time>
      </trkpt>
      <trkpt lat="44.08969" lon="7.10652">
        <ele>504.27</ele>
        <time>2012-03-17T14:09:40Z</time>
      </trkpt>
      <trkpt lat="44.08971" lon="7.10652">
        <ele>504.067</ele>
        <time>2012-03-17T14:09:44Z</time>
      </trkpt>
      <trkpt lat="44.08979" lon="7.10654">
        <ele>501.405</ele>
        <time>2012-03-17T14:09:48Z</time>
      </trkpt>
      <trkpt lat="44.0899" lon="7.10657">
        <ele>505.401</ele>
        <time>2012-03-17T14:09:54Z</time>
      </trkpt>
      <trkpt lat="44.08996" lon="7.10654">
        <ele>510.88</ele>
        <time>2012-03-17T14:10:00Z</time>
      </trkpt>
      <trkpt lat="44.09002" lon="7.10658">
        <ele>522.736</ele>
        <time>2012-03-17T14:10:10Z</time>
      </trkpt>
      <trkpt lat="44.08999" lon="7.10662">
        <ele>520.476</ele>
        <time>2012-03-17T14:10:17Z</time>
      </trkpt>
      <trkpt lat="44.09" lon="7.10661">
        <ele>519.513</ele>
        <time>2012-03-17T14:10:22Z</time>
      </trkpt>
      <trkpt lat="44.08989" lon="7.10667">
        <ele>515.37</ele>
        <time>2012-03-17T14:10:27Z</time>
      </trkpt>
      <trkpt lat="44.08975" lon="7.10665">
        <ele>513.442</ele>
        <time>2012-03-17T14:10:32Z</time>
      </trkpt>
      <trkpt lat="44.08959" lon="7.10665">
        <ele>510.381</ele>
        <time>2012-03-17T14:10:37Z</time>
      </trkpt>
      <trkpt lat="44.08955" lon="7.10667">
        <ele>509.781</ele>
        <time>2012-03-17T14:10:38Z</time>
      </trkpt>
      <trkpt lat="44.08934" lon="7.1067">
        <ele>506.248</ele>
        <time>2012-03-17T14:10:42Z</time>
      </trkpt>
      <trkpt lat="44.08918" lon="7.1067">
        <ele>501.266</ele>
        <time>2012-03-17T14:10:46Z</time>
      </trkpt>
      <trkpt lat="44.0892" lon="7.10666">
        <ele>497.023</ele>
        <time>2012-03-17T14:10:50Z</time>
      </trkpt>
      <trkpt lat="44.08912" lon="7.1066">
        <ele>500.276</ele>
        <time>2012-03-17T14:12:55Z</time>
      </trkpt>
      <trkpt lat="44.08908" lon="7.10659">
        <ele>496.954</ele>
        <time>2012-03-17T14:13:00Z</time>
      </trkpt>
      <trkpt lat="44.08894" lon="7.1065">
        <ele>495.903</ele>
        <time>2012-03-17T14:13:08Z</time>
      </trkpt>
      <trkpt lat="44.08887" lon="7.10642">
        <ele>497.134</ele>
        <time>2012-03-17T14:13:14Z</time>
      </trkpt>
      <trkpt lat="44.08884" lon="7.10643">
        <ele>498.575</ele>
        <time>2012-03-17T14:13:16Z</time>
      </trkpt>
      <trkpt lat="44.08885" lon="7.10656">
        <ele>497.596</ele>
        <time>2012-03-17T14:13:21Z</time>
      </trkpt>
      <trkpt lat="44.08883" lon="7.10675">
        <ele>496.155</ele>
        <time>2012-03-17T14:13:25Z</time>
      </trkpt>
      <trkpt lat="44.08877" lon="7.10698">
        <ele>496.395</ele>
        <time>2012-03-17T14:13:30Z</time>
      </trkpt>
      <trkpt lat="44.08863" lon="7.10702">
        <ele>502.527</ele>
        <time>2012-03-17T14:13:34Z</time>
      </trkpt>
      <trkpt lat="44.08859" lon="7.10699">
        <ele>502.205</ele>
        <time>2012-03-17T14:13:35Z</time>
      </trkpt>
      <trkpt lat="44.08845" lon="7.10691">
        <ele>501.073</ele>
        <time>2012-03-17T14:13:38Z</time>
      </trkpt>
      <trkpt lat="44.08821" lon="7.1068">
        <ele>500.193</ele>
        <time>2012-03-17T14:13:43Z</time>
      </trkpt>
      <trkpt lat="44.08808" lon="7.10653">
        <ele>502.214</ele>
        <time>2012-03-17T14:13:47Z</time>
      </trkpt>
      <trkpt lat="44.08793" lon="7.10623">
        <ele>501.984</ele>
        <time>2012-03-17T14:13:51Z</time>
      </trkpt>
      <trkpt lat="44.08775" lon="7.10595">
        <ele>500.604</ele>
        <time>2012-03-17T14:13:55Z</time>
      </trkpt>
      <trkpt lat="44.08755" lon="7.10556">
        <ele>498.163</ele>
        <time>2012-03-17T14:14:02Z</time>
      </trkpt>
      <trkpt lat="44.08737" lon="7.10535">
        <ele>495.833</ele>
        <time>2012-03-17T14:14:07Z</time>
      </trkpt>
      <trkpt lat="44.08721" lon="7.10512">
        <ele>494.183</ele>
        <time>2012-03-17T14:14:12Z</time>
      </trkpt>
      <trkpt lat="44.08692" lon="7.10487">
        <ele>494.545</ele>
        <time>2012-03-17T14:14:20Z</time>
      </trkpt>
      <trkpt lat="44.08677" lon="7.10475">
        <ele>493.553</ele>
        <time>2012-03-17T14:14:25Z</time>
      </trkpt>
      <trkpt lat="44.08658" lon="7.10458">
        <ele>494.984</ele>
        <time>2012-03-17T14:14:31Z</time>
      </trkpt>
      <trkpt lat="44.08648" lon="7.10453">
        <ele>494.132</ele>
        <time>2012-03-17T14:14:34Z</time>
      </trkpt>
      <trkpt lat="44.0864" lon="7.10461">
        <ele>493.072</ele>
        <time>2012-03-17T14:14:37Z</time>
      </trkpt>
      <trkpt lat="44.08631" lon="7.10457">
        <ele>492.714</ele>
        <time>2012-03-17T14:14:41Z</time>
      </trkpt>
      <trkpt lat="44.08623" lon="7.1045">
        <ele>490.773</ele>
        <time>2012-03-17T14:14:44Z</time>
      </trkpt>
      <trkpt lat="44.08616" lon="7.10453">
        <ele>487.429</ele>
        <time>2012-03-17T14:14:48Z</time>
      </trkpt>
      <trkpt lat="44.08596" lon="7.10463">
        <ele>484.749</ele>
        <time>2012-03-17T14:14:55Z</time>
      </trkpt>
      <trkpt lat="44.08578" lon="7.10467">
        <ele>490.199</ele>
        <time>2012-03-17T14:15:01Z</time>
      </trkpt>
      <trkpt lat="44.08563" lon="7.10476">
        <ele>488.254</ele>
        <time>2012-03-17T14:15:07Z</time>
      </trkpt>
      <trkpt lat="44.08545" lon="7.10484">
        <ele>485.095</ele>
        <time>2012-03-17T14:15:13Z</time>
      </trkpt>
      <trkpt lat="44.08522" lon="7.10488">
        <ele>487.79</ele>
        <time>2012-03-17T14:15:19Z</time>
      </trkpt>
      <trkpt lat="44.08513" lon="7.1049">
        <ele>488.811</ele>
        <time>2012-03-17T14:15:22Z</time>
      </trkpt>
      <trkpt lat="44.08507" lon="7.10489">
        <ele>488.498</ele>
        <time>2012-03-17T14:15:25Z</time>
      </trkpt>
      <trkpt lat="44.08501" lon="7.10502">
        <ele>488.437</ele>
        <time>2012-03-17T14:15:29Z</time>
      </trkpt>
      <trkpt lat="44.08497" lon="7.1052">
        <ele>488.897</ele>
        <time>2012-03-17T14:15:32Z</time>
      </trkpt>
      <trkpt lat="44.08479" lon="7.10544">
        <ele>486.853</ele>
        <time>2012-03-17T14:15:37Z</time>
      </trkpt>
      <trkpt lat="44.08465" lon="7.10551">
        <ele>486.464</ele>
        <time>2012-03-17T14:15:41Z</time>
      </trkpt>
      <trkpt lat="44.08455" lon="7.10552">
        <ele>486.696</ele>
        <time>2012-03-17T14:15:45Z</time>
      </trkpt>
      <trkpt lat="44.08446" lon="7.10533">
        <ele>488.626</ele>
        <time>2012-03-17T14:15:52Z</time>
      </trkpt>
      <trkpt lat="44.08439" lon="7.10521">
        <ele>488.343</ele>
        <time>2012-03-17T14:15:56Z</time>
      </trkpt>
      <trkpt lat="44.08437" lon="7.10523">
        <ele>488.754</ele>
        <time>2012-03-17T14:15:59Z</time>
      </trkpt>
      <trkpt lat="44.08437" lon="7.1052">
        <ele>493.028</ele>
        <time>2012-03-17T14:16:05Z</time>
      </trkpt>
      <trkpt lat="44.0844" lon="7.10519">
        <ele>496.426</ele>
        <time>2012-03-17T14:16:20Z</time>
      </trkpt>
    </trkseg>
  </trk>
</gpx>